﻿ProjectID	SampleID	SampleType	TaxonomyID	UniqCodeType	UniqCode	SampleName	ScientificName	CommonName	CollectionYear	CollectionMonth	CollectionDay	SamplingTimeStartEnd	SamplingTimeAMPM	SamplingDuration	WeatherStartEnd	CollectionRegion	CollectionCountry	CollectionArea	CollectionLatitudeFrom	CollectionLatitudeTo	CollectionLongitudeFrom	CollectionLongitudeTo	Sex	TissueOrgan	TissueLipid	TissueMoist	Weight	WeightUnit	Length	LengthUnit	LengthType	GrowthStage	Age	Disease	TemperatureStartEnd	WaterTemperatureStartEnd	pH	DO	EC	EC_temp	Salinity	SS	WaterDepthM	TransparencyM	WaterColor	SedimentTemperatureStartEnd	SedimentDepthM	SedimentAppearance	SedimentColor	SedimentSurfaceColor	SedimentOdor	SedimentImpurities	SedimentMoistureOnSiteAnalysis	IgnitionLossOnSiteAnalysis	SoilDepthM	FlowRate	MeanPM10	MeanTotalSuspendedParticles	HumidityStartEnd	WindDirectionStartEnd	WindSpeedMSStartEnd	AmountOfCollectedAirStartEnd	Remarks	RegisterDate	UpdateDate
PRA000008	SAA000324	ST003	34880	es-BANK	ET00656	E-2	"Nyctereutes procyonoides"	"Raccoon dog"	2000	12	26					Asia	Japan	Ehime	33.88141111	34.01356111	133.39135	133.6865194	Male	Liver	3.39																																							2016/10/5	2016/10/11
PRA000008	SAA000325	ST003	34880	es-BANK	"ET00659 "	E-5	"Nyctereutes procyonoides"	"Raccoon dog"	2001	2	21					Asia	Japan	Ehime	33.83600556	33.86477222	133.3492389	133.4008778	Male	Liver	3.45																																							2016/10/5	2016/10/11
PRA000008	SAA000326	ST003	34880	es-BANK	ET00661	E-7	"Nyctereutes procyonoides"	"Raccoon dog"	2001	3	10					Asia	Japan	Ehime	33.75333333	33.98555833	132.9744417	133.2908333	Female	Liver	4.26																																							2016/10/5	2016/10/11
PRA000008	SAA000327	ST003	34880	es-BANK	ET00666	E-12	"Nyctereutes procyonoides"	"Raccoon dog"	2001	3	16					Asia	Japan	Ehime	33.75333333	33.98555833	132.9744417	133.2908333	Male	Liver	4.98																																							2016/10/5	2016/10/11
PRA000008	SAA000328	ST003	34880	es-BANK	"ET00667 "	E-13	"Nyctereutes procyonoides"	"Raccoon dog"	2001	3	16					Asia	Japan	Ehime	33.75333333	33.98555833	132.9744417	133.2908333	Female	Liver	4.22																																							2016/10/5	2016/10/11
PRA000008	SAA000329	ST003	34880	es-BANK	"ET00668 "	E-14	"Nyctereutes procyonoides"	"Raccoon dog"	2001	3	16					Asia	Japan	Ehime	33.83600556	33.86477222	133.3492389	133.4008778	Female	Liver	3.64																																							2016/10/5	2016/10/11
PRA000008	SAA000330	ST003	34880	es-BANK	"ET00669 "	E-15	"Nyctereutes procyonoides"	"Raccoon dog"	2000	12	2					Asia	Japan	Ehime	33.82055556	33.85694444	132.8847222	132.9741667	Female	Liver	3.39		2.7	kg																																				2016/10/5	2016/10/11
PRA000008	SAA000331	ST003	34880	es-BANK	"ET00670 "	E-16	"Nyctereutes procyonoides"	"Raccoon dog"	2001	2	25					Asia	Japan	Ehime	33.68444167	33.75722222	132.9105556	133.2069444	Male	Liver	3.58		2.1	kg																																				2016/10/5	2016/10/11
PRA000008	SAA000332	ST003	34880	es-BANK	"ET00671 "	E-17	"Nyctereutes procyonoides"	"Raccoon dog"	2001	2	26					Asia	Japan	Ehime	33.83600556	33.86477222	133.3492389	133.4008778	Male	Liver	3.56																																							2016/10/5	2016/10/11
PRA000008	SAA000333	ST003	34880	es-BANK	ET00673	E-19	"Nyctereutes procyonoides"	"Raccoon dog"	2001	2	27					Asia	Japan	Ehime	33.75333333	33.98555833	132.9744417	133.2908333	Female	Liver	4.65																																							2016/10/5	2016/10/11
PRA000008	SAA000334	ST003	34880	es-BANK	"ET00674 "	E-20	"Nyctereutes procyonoides"	"Raccoon dog"	2001	3	17					Asia	Japan	Ehime	33.75333333	33.98555833	132.9744417	133.2908333	Male	Liver	2.56																																							2016/10/5	2016/10/11
PRA000008	SAA000335	ST003	34880	es-BANK	ET00675	E-21	"Nyctereutes procyonoides"	"Raccoon dog"	2001	3	18					Asia	Japan	Ehime	33.75333333	33.98555833	132.9744417	133.2908333	Male	Liver	3.65																																							2016/10/5	2016/10/11
PRA000008	SAA000336	ST003	34880	es-BANK	ET00678	E-24	"Nyctereutes procyonoides"	"Raccoon dog"	2001	1	18					Asia	Japan	Ehime	33.33055556	33.42916667	132.4830556	132.6438889	Female	Liver	4.08																																							2016/10/5	2016/10/11
PRA000008	SAA000337	ST003	34880	es-BANK	ET00679	E-25	"Nyctereutes procyonoides"	"Raccoon dog"	2002	2	7					Asia	Japan	Ehime	33.68444167	33.75722222	132.9105556	133.2069444	Female	Liver	3.66																																							2016/10/5	2016/10/11
PRA000008	SAA000338	ST003	34880	es-BANK	ET00680	E-26	"Nyctereutes procyonoides"	"Raccoon dog"	2002	2						Asia	Japan	Ehime	33.68444167	33.75722222	132.9105556	133.2069444	Male	Liver	5																																							2016/10/5	2016/10/11
PRA000008	SAA000339	ST003	34880	es-BANK	ET00681	E-27	"Nyctereutes procyonoides"	"Raccoon dog"	2002	3	12					Asia	Japan	Ehime	33.59805556	33.70472222	132.8675	133.0338889	Male	Liver	5.06																																							2016/10/5	2016/10/11
PRA000008	SAA000340	ST003	34880	es-BANK	ET00682	E-28	"Nyctereutes procyonoides"	"Raccoon dog"	2002	3	14					Asia	Japan	Ehime	33.83600556	33.86477222	133.3492389	133.4008778	Male	Liver	3.55																																							2016/10/5	2016/10/11
PRA000008	SAA000341	ST003	34880	es-BANK	ET00683	E-29	"Nyctereutes procyonoides"	"Raccoon dog"	2002	4	25					Asia	Japan	Ehime	33.84333333	33.94944444	133.2388889	133.3538889	Male	Liver	4.18																																							2016/10/5	2016/10/11
PRA000008	SAA000342	ST003	34880	es-BANK	ET00685	E-31	"Nyctereutes procyonoides"	"Raccoon dog"	2001	12	23					Asia	Japan	Ehime	33.05083333	33.33611111	132.2252778	132.6852778	Female	Liver	4.06		3.65	kg																																				2016/10/5	2016/10/11
PRA000008	SAA000343	ST003	34880	es-BANK	"ET00686 "	E-32	"Nyctereutes procyonoides"	"Raccoon dog"	2003	11	7					Asia	Japan	Ehime	33.75333333	33.98555833	132.9744417	133.2908333	Male	Liver	4.19																																							2016/10/5	2016/10/11
PRA000008	SAA000344	ST003	34880	es-BANK	"ET00687 "	E-33	"Nyctereutes procyonoides"	"Raccoon dog"	2003	11	7					Asia	Japan	Ehime	33.75333333	33.98555833	132.9744417	133.2908333	Female	Liver	4.02																																							2016/10/5	2016/10/11
PRA000008	SAA000345	ST003	34880	es-BANK	ET00489	O-1	"Nyctereutes procyonoides"	"Raccoon dog"	2004	10	8					Asia	Japan	Osaka	34.305	34.97166667	135.135	135.7883333	Male	Liver	5.75		3	kg																																				2016/10/5	2016/10/11
PRA000008	SAA000346	ST003	34880	es-BANK	"ET00501 "	O-2	"Nyctereutes procyonoides"	"Raccoon dog"	2004	10	13					Asia	Japan	Osaka	34.305	34.97166667	135.135	135.7883333	Male	Liver	3.11		3.5	kg																																				2016/10/5	2016/10/11
PRA000008	SAA000347	ST003	34880	es-BANK	"ET00502 "	O-3	"Nyctereutes procyonoides"	"Raccoon dog"	2004	10	13					Asia	Japan	Osaka	34.305	34.97166667	135.135	135.7883333	Female	Liver	2.8		2.8	kg																																				2016/10/5	2016/10/11
PRA000008	SAA000348	ST003	34880	es-BANK	ET00503	O-4	"Nyctereutes procyonoides"	"Raccoon dog"	2004							Asia	Japan	Osaka	34.305	34.97166667	135.135	135.7883333	Male	Liver	3.17		3.6	kg																																				2016/10/5	2016/10/11
PRA000008	SAA000349	ST003	34880	es-BANK	ET00504	O-5	"Nyctereutes procyonoides"	"Raccoon dog"	2004							Asia	Japan	Osaka	34.305	34.97166667	135.135	135.7883333	Male	Liver	3.93		4.5	kg				Matured																																2016/10/5	2016/10/11
PRA000008	SAA000350	ST003	34880	es-BANK	"ET00723 "	O-6	"Nyctereutes procyonoides"	"Raccoon dog"	2005							Asia	Japan	Osaka	34.305	34.97166667	135.135	135.7883333	Female	Liver	5.51		4.98	kg				Matured																																2016/10/5	2016/10/11
PRA000008	SAA000351	ST003	34880	es-BANK	ET00728	O-9	"Nyctereutes procyonoides"	"Raccoon dog"	2005							Asia	Japan	Osaka	34.305	34.97166667	135.135	135.7883333	Male	Liver	3.11		2.5	kg				Matured																																2016/10/5	2016/10/11
PRA000008	SAA000352	ST003	34880	es-BANK	ET00703	O-11	"Nyctereutes procyonoides"	"Raccoon dog"	2005							Asia	Japan	Osaka	34.305	34.97166667	135.135	135.7883333	Female	Liver	3.25		4.34	kg				Matured																																2016/10/5	2016/10/11
PRA000008	SAA000353	ST003	34880	es-BANK	ET00442		"Nyctereutes procyonoides"	"Raccoon dog"	2001	1	18					Asia	Japan	Kanagawa	35.31583333	35.53805833	139.1144417	139.6652778	Male	Liver	3.44																																							2016/10/5	2016/10/11
PRA000008	SAA000354	ST003	34880	es-BANK	ET00443		"Nyctereutes procyonoides"	"Raccoon dog"	2001	1	24					Asia	Japan	Kanagawa	35.31583333	35.53805833	139.1144417	139.6652778	Male	Liver	4.01																																							2016/10/5	2016/10/11
PRA000008	SAA000355	ST003	34880	es-BANK	ET00765		"Nyctereutes procyonoides"	"Raccoon dog"	2001	2	6					Asia	Japan	Kanagawa	35.31583333	35.53805833	139.1144417	139.6652778	Female	Liver	3.68																																							2016/10/5	2016/10/11
PRA000008	SAA000356	ST003	34880	es-BANK	ET00444		"Nyctereutes procyonoides"	"Raccoon dog"	2001	2	7					Asia	Japan	Kanagawa	35.31583333	35.53805833	139.1144417	139.6652778	Female	Liver	5.45																																							2016/10/5	2016/10/11
PRA000008	SAA000357	ST003	34880	es-BANK	ET00446		"Nyctereutes procyonoides"	"Raccoon dog"	2001	3	21					Asia	Japan	Kanagawa	35.31583333	35.53805833	139.1144417	139.6652778	Male	Liver	3.32																																							2016/10/5	2016/10/11
PRA000008	SAA000358	ST003	34880	es-BANK	ET00448		"Nyctereutes procyonoides"	"Raccoon dog"	2001	4	10					Asia	Japan	Kanagawa	35.31583333	35.53805833	139.1144417	139.6652778	Male	Liver	3.19																																							2016/10/5	2016/10/11
PRA000008	SAA000359	ST003	34880	es-BANK	ET00451		"Nyctereutes procyonoides"	"Raccoon dog"	2001	8	22					Asia	Japan	Kanagawa	35.31583333	35.53805833	139.1144417	139.6652778	Female	Liver	3.66																																							2016/10/5	2016/10/11
PRA000008	SAA000360	ST003	34880	es-BANK	ET00454		"Nyctereutes procyonoides"	"Raccoon dog"	2001	9	19					Asia	Japan	Kanagawa	35.31583333	35.53805833	139.1144417	139.6652778	Male	Liver	4.36																																							2016/10/5	2016/10/11
PRA000008	SAA000361	ST003	34880	es-BANK	ET00455		"Nyctereutes procyonoides"	"Raccoon dog"	2001	10	29					Asia	Japan	Kanagawa	35.31583333	35.53805833	139.1144417	139.6652778	Female	Liver	3.23																																							2016/10/5	2016/10/11
PRA000008	SAA000362	ST003	34880	es-BANK	ET00458		"Nyctereutes procyonoides"	"Raccoon dog"	2001	11	15					Asia	Japan	Kanagawa	35.31583333	35.53805833	139.1144417	139.6652778	Female	Liver	3.49																																							2016/10/5	2016/10/11
PRA000008	SAA000363	ST003	34880	es-BANK	ET00489	O-1	"Nyctereutes procyonoides"	"Raccoon dog"	2004	10	8					Asia	Japan	Osaka	34.305	34.97166667	135.135	135.7883333	Male	Adipose	57.68		3	kg																																				2016/10/5	2016/10/11
PRA000008	SAA000364	ST003	34880	es-BANK	"ET00501 "	O-2	"Nyctereutes procyonoides"	"Raccoon dog"	2004	10	13					Asia	Japan	Osaka	34.305	34.97166667	135.135	135.7883333	Male	Adipose	67.68		3.5	kg																																				2016/10/5	2016/10/11
PRA000008	SAA000365	ST003	34880	es-BANK	"ET00502 "	O-3	"Nyctereutes procyonoides"	"Raccoon dog"	2004	10	13					Asia	Japan	Osaka	34.305	34.97166667	135.135	135.7883333	Female	Adipose	75.87		2.8	kg																																				2016/10/5	2016/10/11
PRA000008	SAA000366	ST003	34880	es-BANK	ET00503	O-4	"Nyctereutes procyonoides"	"Raccoon dog"	2004							Asia	Japan	Osaka	34.305	34.97166667	135.135	135.7883333	Male	Adipose	75.1		3.6	kg																																				2016/10/5	2016/10/11
PRA000008	SAA000367	ST003	34880	es-BANK	ET00504	O-5	"Nyctereutes procyonoides"	"Raccoon dog"	2004							Asia	Japan	Osaka	34.305	34.97166667	135.135	135.7883333	Male	Adipose	79.41		4.5	kg				Matured																																2016/10/5	2016/10/11
PRA000008	SAA000368	ST003	34880	es-BANK	"ET00723 "	O-6	"Nyctereutes procyonoides"	"Raccoon dog"	2005							Asia	Japan	Osaka	34.305	34.97166667	135.135	135.7883333	Female	Adipose	88.03		4.98	kg				Matured																																2016/10/5	2016/10/11
PRA000008	SAA000369	ST003	34880	es-BANK	ET00728	O-9	"Nyctereutes procyonoides"	"Raccoon dog"	2005							Asia	Japan	Osaka	34.305	34.97166667	135.135	135.7883333	Male	Adipose	75.79		2.5	kg				Matured																																2016/10/5	2016/10/11
PRA000008	SAA000370	ST003	34880	es-BANK	ET00703	O-11	"Nyctereutes procyonoides"	"Raccoon dog"	2005							Asia	Japan	Osaka	34.305	34.97166667	135.135	135.7883333	Female	Adipose	82.14		4.34	kg				Matured																																2016/10/5	2016/10/11
PRA000009	SAA000371	ST005	54021	es-BANK	EB02698	BfA-794	"Phoebastria nigripes"	"Black-footed albatross (BfA) "	1998	2	22					"Pacific Ocean"			24.81666667	24.81666667	171.0666667	171.0666667	Male	"Pectoral muscle"	4.4		3100	g	61.1	cm	"Total length"	Subadult																																2016/10/11	2016/10/17
PRA000009	SAA000372	ST005	54021	es-BANK	EB02704	BfA-958	"Phoebastria nigripes"	"Black-footed albatross (BfA) "	1998	2	25					"Pacific Ocean"			24.5	24.5	169.6166667	169.6166667	Female	"Pectoral muscle"	5.4		3650	g	78.6	cm	"Total length"	Adult																																2016/10/11	2016/10/17
PRA000009	SAA000373	ST005	54021	es-BANK	EB02708	BfA-66	"Phoebastria nigripes"	"Black-footed albatross (BfA) "	1999	2	16					Asia	Japan	"Off coast of Ogasawara Islands, Tokyo"	27.03098889	27.11305556	142.1775	142.2380333	Male	"Pectoral muscle"	2.9		4000	g	83.7	cm	"Total length"	Adult																																2016/10/11	2016/10/17
PRA000009	SAA000374	ST005	54021	es-BANK	EB02712	BfA-69	"Phoebastria nigripes"	"Black-footed albatross (BfA) "	1999	3	7					Asia	Japan	"Off coast of Ogasawara Islands, Tokyo"	27.03098889	27.11305556	142.1775	142.2380333	Male	"Pectoral muscle"	3.8		4100	g	82.1	cm	"Total length"	Adult																																2016/10/11	2016/10/17
PRA000009	SAA000375	ST005	54021	es-BANK	EB02710	BfA-72	"Phoebastria nigripes"	"Black-footed albatross (BfA) "	1999	3						Asia	Japan	"Off coast of Ogasawara Islands, Tokyo"	27.01916667	27.18666667	142.1627778	142.2583333	Male	"Pectoral muscle"	4		4200	g	83.5	cm	"Total length"	Adult																																2016/10/11	2016/10/17
PRA000009	SAA000376	ST005	54020	es-BANK	EB03051	Lay-A3	"Phoebastria immutabilis"	"Laysan Albatross"	1998	3	16					"Pacific Ocean"			33.48333333	33.48333333	142.1	142.1	Female	"Pectoral muscle"	1.7		2000	g	77.6	cm	"Total length"	Adult																																2016/10/11	2016/10/17
PRA000009	SAA000377	ST005	54020	es-BANK	EB03043	Lay-419	"Phoebastria immutabilis"	"Laysan Albatross"	1998	2	12					"Pacific Ocean"			24.06666667	24.06666667	177.9833333	177.9833333	Male	"Pectoral muscle"	5.8		2900	g	80.3	cm	"Total length"	Adult																																2016/10/11	2016/10/17
PRA000009	SAA000378	ST005	54020	es-BANK	"EB03044 "	Lay-424	"Phoebastria immutabilis"	"Laysan Albatross"	1998	2	12					"Pacific Ocean"			24.06666667	24.06666667	177.9833333	177.9833333	Female	"Pectoral muscle"	3.9		2500	g	75.8	cm	"Total length"	Adult																																2016/10/11	2016/10/17
PRA000009	SAA000379	ST005	54020	es-BANK	EB03048	Lay-463	"Phoebastria immutabilis"	"Laysan Albatross"	1998	2	14					"Pacific Ocean"			24.06666667	24.58333333	171.5166667	171.5166667	Female	"Pectoral muscle"	0.97		2600	g	75.8	cm	"Total length"	Adult																																2016/10/11	2016/10/17
PRA000009	SAA000380	ST005	54020	es-BANK	"EB03050 "	Lay-950	"Phoebastria immutabilis"	"Laysan Albatross"	1998	2	25					"Pacific Ocean"			24.5	24.5	169.6166667	169.6166667	Male	"Pectoral muscle"	2.9		3300	g	82.2	cm	"Total length"	Adult																																2016/10/11	2016/10/17
PRA000009	SAA000381	ST005	30455	es-BANK	EB04992	741	"Fulmarus glacialis"	"Northern Fulmar"	1999	6	30					"Pacific Ocean"			51.5	51.5	180	180	Female	"Pectoral muscle"	3.3		590	g				Adult																																2016/10/11	2016/10/17
PRA000009	SAA000382	ST005	30455	es-BANK	EB04993	742	"Fulmarus glacialis"	"Northern Fulmar"	1999	6	30					"Pacific Ocean"			51.5	51.5	180	180	Female	"Pectoral muscle"	3.5		540	g				Adult																																2016/10/11	2016/10/17
PRA000009	SAA000383	ST005	30455			745	"Fulmarus glacialis"	"Northern Fulmar"	1999							"Pacific Ocean"			51.5	51.5	180	180	Male	"Pectoral muscle"	5.5		650	g				Adult																																2016/10/11	2016/10/17
PRA000009	SAA000384	ST005	30455	es-BANK	"EB05001 "	774	"Fulmarus glacialis"	"Northern Fulmar"	1999	7	14					"Pacific Ocean"			56.48333333	56.48333333	178.9833333	178.9833333	Male	"Pectoral muscle"	2.2		650	g				Adult																																2016/10/11	2016/10/17
PRA000009	SAA000385	ST005	30455	es-BANK	EB05002	775	"Fulmarus glacialis"	"Northern Fulmar"	1999	7	14					"Pacific Ocean"			56.48333333	56.48333333	178.9833333	178.9833333	Female	"Pectoral muscle"	1.9		600	g				Adult																																2016/10/11	2016/10/17
PRA000009	SAA000386	ST005	52647	es-BANK	EB01799	SSE-2	"Haliaeetus pelagicus"	"Stellers sea-Eagle"	1994	2	16					Asia	Japan	Hokkaido	43.93083333	43.94222222	144.3861111	144.4088889	Male	"Pectoral muscle"	0.81		4200	g				Adult																																2016/10/11	2016/10/17
PRA000009	SAA000387	ST005	179808	es-BANK	EB01059	99BTG-505	"Larus crassirostris"	"Black-tailed Gull"	1999	6	12					Asia	Japan	"Rishiri Island, Hokkaido"	45.10055556	45.25694444	141.135	141.3447222	Female	"Pectoral muscle"	5.3		550	g				Adult																																2016/10/11	2016/10/17
PRA000009	SAA000388	ST005	179808	es-BANK	EB01196	00BTG-557	"Larus crassirostris"	"Black-tailed Gull"	2000	6	5					Asia	Japan	"Rishiri Island, Hokkaido"	45.10055556	45.25694444	141.135	141.3447222	Female	"Pectoral muscle"	3.3		461	g	49.5	cm	"Total length"	Adult																																2016/10/11	2016/10/17
PRA000009	SAA000389	ST005	179808	es-BANK	EB01206	00BTG-558	"Larus crassirostris"	"Black-tailed Gull"	2000	6	6					Asia	Japan	"Rishiri Island, Hokkaido"	45.10055556	45.25694444	141.135	141.3447222	Female	"Pectoral muscle"	7.7		487	g	50	cm	"Total length"	Adult																																2016/10/11	2016/10/17
PRA000009	SAA000390	ST005	179808	es-BANK	EB01312	01BTG-518	"Larus crassirostris"	"Black-tailed Gull"	2001	6	9					Asia	Japan	"Rishiri Island, Hokkaido"	45.10055556	45.25694444	141.135	141.3447222	Female	"Pectoral muscle"	5.6		509	g				Adult																																2016/10/11	2016/10/17
PRA000009	SAA000391	ST005	179808	es-BANK	EB01351	01BTG-527	"Larus crassirostris"	"Black-tailed Gull"	2001	6	11					Asia	Japan	"Rishiri Island, Hokkaido"	45.10055556	45.25694444	141.135	141.3447222	Female	"Pectoral muscle"	5		485	g				Adult																																2016/10/11	2016/10/17
PRA000009	SAA000392	ST005	8957	es-BANK	EB01630	09-B110	"Accipiter gentilis"	Goshawk	1997	10	22					Asia	Japan	Tochigi	36.78722222	36.925	139.9286111	140.2588889	Male	"Pectoral muscle"	1.1		389	g	49.8	cm	"Total length"	Adult																																2016/10/11	2016/10/17
PRA000009	SAA000393	ST005	8962	es-BANK	EB00504	IPMA-165	"Aquila chrysaetos"	"Golden Eagle"	1994	10	3					Asia	Japan	Iwate	39.71075	40.04565278	141.47375	142.0098889	Female	"Pectoral muscle"	2.3		4100	g	85	cm	"Total length"	Adult																																2016/10/11	2016/10/17
PRA000009	SAA000394	ST005	8962	es-BANK	EB00508	IPMA-166	"Aquila chrysaetos"	"Golden Eagle"	1995	7	6					Asia	Japan	Iwate	38.85111111	38.97888889	141.4886111	141.5761111	Male	"Pectoral muscle"	0.96		2300	g	78	cm	"Total length"	Subadult																																2016/10/11	2016/10/17
PRA000009	SAA000395	ST005	36249	es-BANK	EB04543	981101O-JC1	"Corvus macrorhynchos"	"Jungle Crow"	1998	11	1					Asia	Japan	Osaka	34.305	34.97166667	135.135	135.7883333	Male	"Pectoral muscle"	0.91		465	g	58.1	cm	"Total length"	Adult																																2016/10/11	2016/10/17
PRA000009	SAA000396	ST005	36249	es-BANK	"EB04544 "	981101O-JC2	"Corvus macrorhynchos"	"Jungle Crow"	1998	11	1					Asia	Japan	Osaka	34.305	34.97166667	135.135	135.7883333	Male	"Pectoral muscle"	1.1		614	g	59.2	cm	"Total length"	Adult																																2016/10/11	2016/10/17
PRA000009	SAA000397	ST005	36249	es-BANK	"EB04545 "	981101O-JC4	"Corvus macrorhynchos"	"Jungle Crow"	1998	11	1					Asia	Japan	Osaka	34.305	34.97166667	135.135	135.7883333	Male	"Pectoral muscle"	1.8		610	g	60.1	cm	"Total length"	Adult																																2016/10/11	2016/10/17
PRA000009	SAA000398	ST005	36249	es-BANK	"EB04547 "	981101O-JC6	"Corvus macrorhynchos"	"Jungle Crow"	1998	11	1					Asia	Japan	Osaka	34.305	34.97166667	135.135	135.7883333	Male	"Pectoral muscle"	1.4		518	g	55.6	cm	"Total length"	Adult																																2016/10/11	2016/10/17
PRA000009	SAA000399	ST005	36249	es-BANK	"EB04549 "	981101O-JC8	"Corvus macrorhynchos"	"Jungle Crow"	1998	11	1					Asia	Japan	Osaka	34.305	34.97166667	135.135	135.7883333	Male	"Pectoral muscle"	0.92		528	g	56.6	cm	"Total length"	Adult																																2016/10/11	2016/10/17
PRA000009	SAA000400	ST005	9209			"01BLC04 (B-24)"	"Phalacrocorax carbo"	"Common Cormorant"	2001							Asia	Japan	"Lake Biwa, Shiga"	34.97222222	35.55222222	135.8594417	136.2613889	Male	"Pectoral muscle"	2.9		2370	g	78.2	cm	"Total length"	Adult																																2016/10/11	2016/10/17
PRA000009	SAA000401	ST005	9209			"01BLC06 (B-14)"	"Phalacrocorax carbo"	"Common Cormorant"	2001							Asia	Japan	"Lake Biwa, Shiga"	34.97222222	35.55222222	135.8594417	136.2613889	Male	"Pectoral muscle"	3.9		2140	g	76.5	cm	"Total length"	Adult																																2016/10/11	2016/10/17
PRA000009	SAA000402	ST005	9209			"01BLC08 (B-2)"	"Phalacrocorax carbo"	"Common Cormorant"	2001							Asia	Japan	"Lake Biwa, Shiga"	34.97222222	35.55222222	135.8594417	136.2613889	Male	"Pectoral muscle"	3.3		1940	g	80.2	cm	"Total length"	Adult																																2016/10/11	2016/10/17
PRA000009	SAA000403	ST005	9209			"01BLC12 (B-20)"	"Phalacrocorax carbo"	"Common Cormorant"	2001							Asia	Japan	"Lake Biwa, Shiga"	34.97222222	35.55222222	135.8594417	136.2613889	Female	"Pectoral muscle"	2		2160	g	75.3	cm	"Total length"	Adult																																2016/10/11	2016/10/17
PRA000016	SAA000533	ST026				Cam1	Soil		1999							Asia	Cambodia	"Phnom Penh"	11.43	11.72	104.8	104.9																																									"Reference site; Sample collected in 1999 or 2000"	2016/12/12	2016/12/12
PRA000016	SAA000534	ST026				RSS1	Soil		1999							Asia	Cambodia	"Phnom Penh"	11.43	11.72	104.8	104.9																																									"Reference site; Sample collected in 1999 or 2000"	2016/12/12	2016/12/12
PRA000016	SAA000535	ST026				RSS2	Soil		1999							Asia	Cambodia	"Phnom Penh"	11.43	11.72	104.8	104.9																																									"Reference site; Sample collected in 1999 or 2000"	2016/12/12	2016/12/12
PRA000016	SAA000536	ST026				RSS3	Soil		1999							Asia	Cambodia	"Phnom Penh"	11.43	11.72	104.8	104.9																																									"Reference site; Sample collected in 1999 or 2000"	2016/12/12	2016/12/12
PRA000016	SAA000537	ST026				RSS4	Soil		1999							Asia	Cambodia	"Phnom Penh"	11.43	11.72	104.8	104.9																																									"Reference site; Sample collected in 1999 or 2000"	2016/12/12	2016/12/12
PRA000016	SAA000538	ST026				St11	Soil		2004							Asia	India	Chennai	12.89	13.25	80.11	80.3																																									"Reference site"	2016/12/12	2016/12/12
PRA000016	SAA000539	ST026				St12	Soil		2004							Asia	India	Chennai	12.89	13.25	80.11	80.3																																									"Reference site"	2016/12/12	2016/12/12
PRA000016	SAA000540	ST026				St16	Soil		2004							Asia	India	Chennai	12.89	13.25	80.11	80.3																																									"Reference site"	2016/12/12	2016/12/12
PRA000016	SAA000541	ST026				St20	Soil		2004							Asia	India	Chennai	12.89	13.25	80.11	80.3																																									"Reference site"	2016/12/12	2016/12/12
PRA000016	SAA000542	ST026				CS5	Soil		2004							Asia	India	Chennai	12.89	13.25	80.11	80.3																																									"Reference site"	2016/12/12	2016/12/12
PRA000016	SAA000543	ST026				VT01	Soil		2004							Asia	Vietnam	"Can Tho"	10.02	10.07	105.72	105.77																																									"Reference site"	2016/12/12	2016/12/12
PRA000016	SAA000544	ST026				VT02	Soil		2004							Asia	Vietnam	"Can Tho"	10.02	10.07	105.72	105.77																																									"Reference site"	2016/12/12	2016/12/12
PRA000016	SAA000545	ST026				VT05	Soil		2004							Asia	Vietnam	"Can Tho"	10.02	10.07	105.72	105.77																																									"Reference site"	2016/12/12	2016/12/12
PRA000016	SAA000546	ST026				VT06	Soil		2004							Asia	Vietnam	"Can Tho"	10.02	10.07	105.72	105.77																																									"Reference site"	2016/12/12	2016/12/12
PRA000016	SAA000547	ST026				VT08	Soil		2004							Asia	Vietnam	"Can Tho"	10.02	10.07	105.72	105.77																																									"Reference site"	2016/12/12	2016/12/12
PRA000016	SAA000548	ST026				CSS-01	Soil		2004							Asia	Vietnam	"Can Tho"	10.02	10.07	105.72	105.77																																									"Reference site"	2016/12/12	2016/12/12
PRA000016	SAA000549	ST026				CSS-03	Soil		2004							Asia	Vietnam	"Can Tho"	10.02	10.07	105.72	105.77																																									"Reference site"	2016/12/12	2016/12/12
PRA000016	SAA000550	ST026				KHB-7	Soil		2003							Asia	Indonesia	Jakarta	-5.4	-5.833333333	106.1166667	107																																									"Reference site"	2016/12/12	2016/12/12
PRA000016	SAA000551	ST026				KHB-8	Soil		2003							Asia	Indonesia	Jakarta	-5.4	-5.833333333	106.1166667	107																																									"Reference site"	2016/12/12	2016/12/12
PRA000016	SAA000552	ST026				CBB5	Soil		2003							Asia	Indonesia	Jakarta	-5.4	-5.833333333	106.1166667	107																																									"Reference site"	2016/12/12	2016/12/12
PRA000016	SAA000553	ST026				CBB6	Soil		2003							Asia	Indonesia	Jakarta	-5.4	-5.833333333	106.1166667	107																																									"Reference site"	2016/12/12	2016/12/12
PRA000016	SAA000554	ST026				BSB9	Soil		2003							Asia	Indonesia	Jakarta	-5.4	-5.833333333	106.1166667	107																																									"Reference site"	2016/12/12	2016/12/12
PRA000016	SAA000555	ST026				TJB19	Soil		2003							Asia	Indonesia	Jakarta	-5.4	-5.833333333	106.1166667	107																																									"Reference site"	2016/12/12	2016/12/12
PRA000016	SAA000556	ST026				SDB21	Soil		2003							Asia	Indonesia	Jakarta	-5.4	-5.833333333	106.1166667	107																																									"Reference site"	2016/12/12	2016/12/12
PRA000016	SAA000557	ST026				BHL23	Soil		2003							Asia	Indonesia	Jakarta	-5.4	-5.833333333	106.1166667	107																																									"Reference site"	2016/12/12	2016/12/12
PRA000016	SAA000558	ST026				LG-8	Soil		2002							Asia	Malaysia	"Kuala Lumpur"	3.05	3.23	101.7	101.6																																									"Reference site"	2016/12/12	2016/12/12
PRA000016	SAA000559	ST026				LG-10	Soil		2002							Asia	Malaysia	"Kuala Lumpur"	3.05	3.23	101.7	101.6																																									"Reference site"	2016/12/12	2016/12/12
PRA000016	SAA000560	ST026				DRS-1	Soil		2000							Asia	Cambodia	"Phnom Penh"	11.43	11.72	104.8	104.9																																									"Dumping site"	2016/12/12	2016/12/12
PRA000016	SAA000561	ST026				DRS8	Soil		2000							Asia	Cambodia	"Phnom Penh"	11.43	11.72	104.8	104.9																																									"Dumping site"	2016/12/12	2016/12/12
PRA000016	SAA000562	ST026				DS1	Soil		1999							Asia	Cambodia	"Phnom Penh"	11.43	11.72	104.8	104.9																																									"Dumping site"	2016/12/12	2016/12/12
PRA000016	SAA000563	ST026				DS2	Soil		1999							Asia	Cambodia	"Phnom Penh"	11.43	11.72	104.8	104.9																																									"Dumping site"	2016/12/12	2016/12/12
PRA000016	SAA000564	ST026				DS3	Soil		1999							Asia	Cambodia	"Phnom Penh"	11.43	11.72	104.8	104.9																																									"Dumping site"	2016/12/12	2016/12/12
PRA000016	SAA000565	ST026				DSS2	Soil		1999							Asia	Cambodia	"Phnom Penh"	11.43	11.72	104.8	104.9																																									"Dumping site"	2016/12/12	2016/12/12
PRA000016	SAA000566	ST026				DS5	Soil		2004							Asia	India	Chennai	12.89	13.25	80.11	80.3																																									"Dumping site"	2016/12/12	2016/12/12
PRA000016	SAA000567	ST026				DS8	Soil		2004							Asia	India	Chennai	12.89	13.25	80.11	80.3																																									"Dumping site"	2016/12/12	2016/12/12
PRA000016	SAA000568	ST026				DS9	Soil		2004							Asia	India	Chennai	12.89	13.25	80.11	80.3																																									"Dumping site"	2016/12/12	2016/12/12
PRA000016	SAA000569	ST026				PDSI-1	Soil		2004							Asia	India	Chennai	12.89	13.25	80.11	80.3																																									"Dumping site"	2016/12/12	2016/12/12
PRA000016	SAA000570	ST026				PDSO-1	Soil		2004							Asia	India	Chennai	12.89	13.25	80.11	80.3																																									"Dumping site"	2016/12/12	2016/12/12
PRA000016	SAA000571	ST026				Moor-Rich2	Soil		2004							Asia	India	Chennai	12.89	13.25	80.11	80.3																																									"Dumping site"	2016/12/12	2016/12/12
PRA000016	SAA000572	ST026				"K-2 India"	Soil		2004							Asia	India	Chennai	12.89	13.25	80.11	80.3																																									"Dumping site"	2016/12/12	2016/12/12
PRA000016	SAA000573	ST026				PDS-2	Soil		2004							Asia	India	Chennai	12.89	13.25	80.11	80.3																																									"Dumping site"	2016/12/12	2016/12/12
PRA000016	SAA000574	ST026				PDS-6	Soil		2004							Asia	India	Chennai	12.89	13.25	80.11	80.3																																									"Dumping site"	2016/12/12	2016/12/12
PRA000016	SAA000575	ST026				PDS-8	Soil		2004							Asia	India	Chennai	12.89	13.25	80.11	80.3																																									"Dumping site"	2016/12/12	2016/12/12
PRA000016	SAA000576	ST026				DSS-02	Soil		2004							Asia	Vietnam	"Can Tho"	10.02	10.07	105.72	105.77																																									"Dumping site"	2016/12/12	2016/12/12
PRA000016	SAA000577	ST026				DSS-03	Soil		2004							Asia	Vietnam	"Can Tho"	10.02	10.07	105.72	105.77																																									"Dumping site"	2016/12/12	2016/12/12
PRA000016	SAA000578	ST026				DSS-04	Soil		2004							Asia	Vietnam	"Can Tho"	10.02	10.07	105.72	105.77																																									"Dumping site"	2016/12/12	2016/12/12
PRA000016	SAA000579	ST026				DSS-08	Soil		2004							Asia	Vietnam	"Can Tho"	10.02	10.07	105.72	105.77																																									"Dumping site"	2016/12/12	2016/12/12
PRA000016	SAA000580	ST026				DSS-09	Soil		2004							Asia	Vietnam	"Can Tho"	10.02	10.07	105.72	105.77																																									"Dumping site"	2016/12/12	2016/12/12
PRA000016	SAA000581	ST026				LDSS001	Soil		2003							Asia	Indonesia	Jakarta	-5.4	-5.833333333	106.1166667	107																																									"Dumping site; Sample collected in 2002 or 2003"	2016/12/12	2016/12/12
PRA000016	SAA000582	ST026				LDSS002	Soil		2003							Asia	Indonesia	Jakarta	-5.4	-5.833333333	106.1166667	107																																									"Dumping site; Sample collected in 2002 or 2003"	2016/12/12	2016/12/12
PRA000016	SAA000583	ST026				LDSS003	Soil		2003							Asia	Indonesia	Jakarta	-5.4	-5.833333333	106.1166667	107																																									"Dumping site; Sample collected in 2002 or 2003"	2016/12/12	2016/12/12
PRA000016	SAA000584	ST026				LDSS004	Soil		2003							Asia	Indonesia	Jakarta	-5.4	-5.833333333	106.1166667	107																																									"Dumping site; Sample collected in 2002 or 2003"	2016/12/12	2016/12/12
PRA000016	SAA000585	ST026				LDSS005	Soil		2003							Asia	Indonesia	Jakarta	-5.4	-5.833333333	106.1166667	107																																									"Dumping site; Sample collected in 2002 or 2003"	2016/12/12	2016/12/12
PRA000016	SAA000586	ST026				ISDS004	Soil		2003							Asia	Indonesia	Jakarta	-5.4	-5.833333333	106.1166667	107																																									"Dumping site; Sample collected in 2002 or 2003"	2016/12/12	2016/12/12
PRA000016	SAA000587	ST026				ISDS005	Soil		2003							Asia	Indonesia	Jakarta	-5.4	-5.833333333	106.1166667	107																																									"Dumping site; Sample collected in 2002 or 2003"	2016/12/12	2016/12/12
PRA000016	SAA000588	ST026				ISDS006	Soil		2003							Asia	Indonesia	Jakarta	-5.4	-5.833333333	106.1166667	107																																									"Dumping site; Sample collected in 2002 or 2003"	2016/12/12	2016/12/12
PRA000016	SAA000589	ST026				ISDS007	Soil		2003							Asia	Indonesia	Jakarta	-5.4	-5.833333333	106.1166667	107																																									"Dumping site; Sample collected in 2002 or 2003"	2016/12/12	2016/12/12
PRA000016	SAA000590	ST026				ISDS009	Soil		2003							Asia	Indonesia	Jakarta	-5.4	-5.833333333	106.1166667	107																																									"Dumping site; Sample collected in 2002 or 2003"	2016/12/12	2016/12/12
PRA000016	SAA000591	ST026				ISDS012	Soil		2003							Asia	Indonesia	Jakarta	-5.4	-5.833333333	106.1166667	107																																									"Dumping site; Sample collected in 2002 or 2003"	2016/12/12	2016/12/12
PRA000016	SAA000592	ST026				ISDS014	Soil		2003							Asia	Indonesia	Jakarta	-5.4	-5.833333333	106.1166667	107																																									"Dumping site; Sample collected in 2002 or 2003"	2016/12/12	2016/12/12
PRA000016	SAA000593	ST026				ISDS018	Soil		2003							Asia	Indonesia	Jakarta	-5.4	-5.833333333	106.1166667	107																																									"Dumping site; Sample collected in 2002 or 2003"	2016/12/12	2016/12/12
PRA000016	SAA000594	ST026				ISDS019	Soil		2003							Asia	Indonesia	Jakarta	-5.4	-5.833333333	106.1166667	107																																									"Dumping site; Sample collected in 2002 or 2003"	2016/12/12	2016/12/12
PRA000016	SAA000595	ST026				ISDS025	Soil		2003							Asia	Indonesia	Jakarta	-5.4	-5.833333333	106.1166667	107																																									"Dumping site; Sample collected in 2002 or 2003"	2016/12/12	2016/12/12
PRA000016	SAA000596	ST026				ISDS028	Soil		2003							Asia	Indonesia	Jakarta	-5.4	-5.833333333	106.1166667	107																																									"Dumping site; Sample collected in 2002 or 2003"	2016/12/12	2016/12/12
PRA000016	SAA000597	ST026				ISDS029	Soil		2003							Asia	Indonesia	Jakarta	-5.4	-5.833333333	106.1166667	107																																									"Dumping site; Sample collected in 2002 or 2003"	2016/12/12	2016/12/12
PRA000016	SAA000598	ST026				INDS1-1	Soil		2007							Asia	Indonesia	Jakarta	-5.4	-5.833333333	106.1166667	107																																									"Dumping site"	2016/12/12	2016/12/12
PRA000016	SAA000599	ST026				INDS1-2	Soil		2007							Asia	Indonesia	Jakarta	-5.4	-5.833333333	106.1166667	107																																									"Dumping site"	2016/12/12	2016/12/12
PRA000016	SAA000600	ST026				INDS1-3	Soil		2007							Asia	Indonesia	Jakarta	-5.4	-5.833333333	106.1166667	107																																									"Dumping site"	2016/12/12	2016/12/12
PRA000016	SAA000601	ST026				INDS2-1	Soil		2007							Asia	Indonesia	Jakarta	-5.4	-5.833333333	106.1166667	107																																									"Dumping site"	2016/12/12	2016/12/12
PRA000016	SAA000602	ST026				INDS2-2	Soil		2007							Asia	Indonesia	Jakarta	-5.4	-5.833333333	106.1166667	107																																									"Dumping site"	2016/12/12	2016/12/12
PRA000016	SAA000603	ST026				INDS2-3	Soil		2007							Asia	Indonesia	Jakarta	-5.4	-5.833333333	106.1166667	107																																									"Dumping site"	2016/12/12	2016/12/12
PRA000016	SAA000604	ST026				INDS2-4	Soil		2007							Asia	Indonesia	Jakarta	-5.4	-5.833333333	106.1166667	107																																									"Dumping site"	2016/12/12	2016/12/12
PRA000016	SAA000605	ST026				INDS2-5	Soil		2007							Asia	Indonesia	Jakarta	-5.4	-5.833333333	106.1166667	107																																									"Dumping site"	2016/12/12	2016/12/12
PRA000016	SAA000606	ST026				INDS3-1	Soil		2007							Asia	Indonesia	Jakarta	-5.4	-5.833333333	106.1166667	107																																									"Dumping site"	2016/12/12	2016/12/12
PRA000016	SAA000607	ST026				INDS3-2	Soil		2007							Asia	Indonesia	Jakarta	-5.4	-5.833333333	106.1166667	107																																									"Dumping site"	2016/12/12	2016/12/12
PRA000016	SAA000608	ST026				INDS3-3	Soil		2007							Asia	Indonesia	Jakarta	-5.4	-5.833333333	106.1166667	107																																									"Dumping site"	2016/12/12	2016/12/12
PRA000016	SAA000609	ST026				INDS4-1	Soil		2007							Asia	Indonesia	Jakarta	-5.4	-5.833333333	106.1166667	107																																									"Dumping site"	2016/12/12	2016/12/12
PRA000016	SAA000610	ST026				INDS4-2	Soil		2007							Asia	Indonesia	Jakarta	-5.4	-5.833333333	106.1166667	107																																									"Dumping site"	2016/12/12	2016/12/12
PRA000016	SAA000611	ST026				INDS4-3	Soil		2007							Asia	Indonesia	Jakarta	-5.4	-5.833333333	106.1166667	107																																									"Dumping site"	2016/12/12	2016/12/12
PRA000016	SAA000612	ST026				INDS5-1	Soil		2007							Asia	Indonesia	Jakarta	-5.4	-5.833333333	106.1166667	107																																									"Dumping site"	2016/12/12	2016/12/12
PRA000016	SAA000613	ST026				INDS5-2	Soil		2007							Asia	Indonesia	Jakarta	-5.4	-5.833333333	106.1166667	107																																									"Dumping site"	2016/12/12	2016/12/12
PRA000016	SAA000614	ST026				INDS5-3	Soil		2007							Asia	Indonesia	Jakarta	-5.4	-5.833333333	106.1166667	107																																									"Dumping site"	2016/12/12	2016/12/12
PRA000016	SAA000615	ST026				TPA2	Soil		2003							Asia	Indonesia	Jakarta	-5.4	-5.833333333	106.1166667	107																																									"Dumping site"	2016/12/12	2016/12/12
PRA000016	SAA000616	ST026				TPA3	Soil		2003							Asia	Indonesia	Jakarta	-5.4	-5.833333333	106.1166667	107																																									"Dumping site"	2016/12/12	2016/12/12
PRA000016	SAA000617	ST026				R-3	Soil		2002							Asia	Malaysia	"Kuala Lumpur"	3.05	3.23	101.6	101.7																																									"Dumping site"	2016/12/12	2016/12/12
PRA000016	SAA000618	ST026				P11	Soil		2002							Asia	Malaysia	"Kuala Lumpur"	3.05	3.23	101.6	101.7																																									"Dumping site"	2016/12/12	2016/12/12
PRA000017	SAA000619	ST003	9606			E-08	"Homo sapiens"	Human	2004							Asia	Japan	Ehime	32.88472222	34.30166667	132.0125	133.6930556	Male	Adipose	73								"25 y.o."	Rhabdomyosarcoma																													"Measenteric fat; Same sample as SAA000652"	2016/11/29	2016/12/5
PRA000017	SAA000620	ST003	9606			E-01	"Homo sapiens"	Human	2003							Asia	Japan	Ehime	32.88472222	34.30166667	132.0125	133.6930556	Male	Adipose	72								"34 y.o."	"Hepatic insufficiency, hepatitis B "																													"Measenteric fat"	2016/11/29	2016/12/5
PRA000017	SAA000621	ST003	9606			E-20	"Homo sapiens"	Human	2004							Asia	Japan	Ehime	32.88472222	34.30166667	132.0125	133.6930556	Male	Adipose	82								"40 y.o."	"Hepatic insufficiency, renal failure "																													"Measenteric fat"	2016/11/29	2016/12/5
PRA000017	SAA000622	ST003	9606			E-16	"Homo sapiens"	Human	2004							Asia	Japan	Ehime	32.88472222	34.30166667	132.0125	133.6930556	Male	Adipose	41								"41 y.o."	"Liposarcoma, liver metastasis, lung metastasis "																													"Measenteric fat; Same sample as SAA000659"	2016/11/29	2016/12/5
PRA000017	SAA000623	ST003	9606			E-02	"Homo sapiens"	Human	2003							Asia	Japan	Ehime	32.88472222	34.30166667	132.0125	133.6930556	Male	Adipose	11								"49 y.o."	"Malignant melanoma "																													"Measenteric fat"	2016/11/29	2016/12/5
PRA000017	SAA000624	ST003	9606			E-09	"Homo sapiens"	Human	2004							Asia	Japan	Ehime	32.88472222	34.30166667	132.0125	133.6930556	Male	Adipose	50								"57 y.o."	Cholangiocarcinoma																													"Measenteric fat; Same sample as SAA000653"	2016/11/29	2016/12/5
PRA000017	SAA000625	ST003	9606			215	"Homo sapiens"	Human	2003							Asia	Japan	Kanto	34.917714	36.28333333	138.7113889	140.857758	Male	Adipose	42								"58 y.o."	"Acute myelocytic leukemia "																													"Measenteric fat; Same sample as SAA000675"	2016/11/29	2016/12/5
PRA000017	SAA000626	ST003	9606			221	"Homo sapiens"	Human	2003							Asia	Japan	Kanto	34.917714	36.28333333	138.7113889	140.857758	Male	Adipose	52								"60 y.o."	"Hepatocellular carcinoma "																													"Measenteric fat; Same sample as SAA000681"	2016/11/29	2016/12/5
PRA000017	SAA000627	ST003	9606			222	"Homo sapiens"	Human	2003							Asia	Japan	Kanto	34.917714	36.28333333	138.7113889	140.857758	Male	Adipose	61								"66 y.o."	"Renal insufficiency "																													"Measenteric fat"	2016/11/29	2016/12/5
PRA000017	SAA000628	ST003	9606			E-04	"Homo sapiens"	Human	2004							Asia	Japan	Ehime	32.88472222	34.30166667	132.0125	133.6930556	Male	Adipose	62								"69 y.o."	"Cervical lymphnode metastatic cancer of unknown origin"																													"Measenteric fat; Same sample as SAA000648"	2016/11/29	2016/12/5
PRA000017	SAA000629	ST003	9606			E-12	"Homo sapiens"	Human	2004							Asia	Japan	Ehime	32.88472222	34.30166667	132.0125	133.6930556	Male	Adipose	75								"70 y.o."	"Perforation of gastro-intestinal tract, pneumocystis carini pneumonia "																													"Measenteric fat; Same sample as SAA000656"	2016/11/29	2016/12/5
PRA000017	SAA000630	ST003	9606			E-13	"Homo sapiens"	Human	2004							Asia	Japan	Ehime	32.88472222	34.30166667	132.0125	133.6930556	Male	Adipose	77								"73 y.o."	"Gastric cancer, malgnant lymphoma "																													"Measenteric fat; Same sample as SAA000657"	2016/11/29	2016/12/5
PRA000017	SAA000631	ST003	9606			E-10	"Homo sapiens"	Human	2004							Asia	Japan	Ehime	32.88472222	34.30166667	132.0125	133.6930556	Male	Adipose	76								"76 y.o."	"Pneumonia, idiopathic interstitial pneumonia "																													"Measenteric fat; Same sample as SAA000654"	2016/11/29	2016/12/5
PRA000017	SAA000632	ST003	9606			E-11	"Homo sapiens"	Human	2004							Asia	Japan	Ehime	32.88472222	34.30166667	132.0125	133.6930556	Male	Adipose	60								"79 y.o."	"Lung cancer "																													"Measenteric fat; Same sample as SAA000655"	2016/11/29	2016/12/5
PRA000017	SAA000633	ST003	9606			219	"Homo sapiens"	Human	2003							Asia	Japan	Kanto	34.917714	36.28333333	138.7113889	140.857758	Male	Adipose	69								"79 y.o."	"Malignant lymphoma "																													"Measenteric fat; Same sample as SAA000679"	2016/11/29	2016/12/5
PRA000017	SAA000634	ST003	9606			E-14	"Homo sapiens"	Human	2004							Asia	Japan	Ehime	32.88472222	34.30166667	132.0125	133.6930556	Male	Adipose	55								"81 y.o."	"Pancreatic cancer "																													"Measenteric fat"	2016/11/29	2016/12/5
PRA000017	SAA000635	ST003	9606			E-15	"Homo sapiens"	Human	2004							Asia	Japan	Ehime	32.88472222	34.30166667	132.0125	133.6930556	Male	Adipose	72								"81 y.o."	"Metastatic liver cancer "																													"Measenteric fat; Same sample as SAA000658"	2016/11/29	2016/12/5
PRA000017	SAA000636	ST003	9606			217	"Homo sapiens"	Human	2003							Asia	Japan	Kanto	34.917714	36.28333333	138.7113889	140.857758	Male	Adipose	72								"81 y.o."	"Cardiac infarction "																													"Measenteric fat; Same sample as SAA000677"	2016/11/29	2016/12/5
PRA000017	SAA000637	ST003	9606			E-03	"Homo sapiens"	Human	2003							Asia	Japan	Ehime	32.88472222	34.30166667	132.0125	133.6930556	Female	Adipose	77								"59 y.o."	"Acute lymphocytic leukemia"																													"Measenteric fat; Same sample as SAA000647"	2016/11/29	2016/12/5
PRA000017	SAA000638	ST003	9606			E-05	"Homo sapiens"	Human	2004							Asia	Japan	Ehime	32.88472222	34.30166667	132.0125	133.6930556	Female	Adipose	70								"53 y.o."	"Acute myelocytic leukemia "																													"Measenteric fat; Same sample as SAA000649"	2016/11/29	2016/12/5
PRA000017	SAA000639	ST003	9606			E-06	"Homo sapiens"	Human	2004							Asia	Japan	Ehime	32.88472222	34.30166667	132.0125	133.6930556	Female	Adipose	50								"69 y.o."	"Carcinoma of the gallbladder "																													"Measenteric fat; Same sample as SAA000650"	2016/11/29	2016/12/5
PRA000017	SAA000640	ST003	9606			E-07	"Homo sapiens"	Human	2004							Asia	Japan	Ehime	32.88472222	34.30166667	132.0125	133.6930556	Female	Adipose	58								"72 y.o."	"Hepatic insufficiency, liver cirrhosis "																													"Measenteric fat; Same sample as SAA000651"	2016/11/29	2016/12/5
PRA000017	SAA000641	ST003	9606			E-17	"Homo sapiens"	Human	2004							Asia	Japan	Ehime	32.88472222	34.30166667	132.0125	133.6930556	Female	Adipose	75								"62 y.o."	"Multiple systemic atrophy "																													"Measenteric fat; Same sample as SAA000660"	2016/11/29	2016/12/5
PRA000017	SAA000642	ST003	9606			212	"Homo sapiens"	Human	2003							Asia	Japan	Kanto	34.917714	36.28333333	138.7113889	140.857758	Female	Adipose	81								"62 y.o."	"Breast cancer"																													"Measenteric fat; Same sample as SAA000674"	2016/11/29	2016/12/5
PRA000017	SAA000643	ST003	9606			E-18	"Homo sapiens"	Human	2004							Asia	Japan	Ehime	32.88472222	34.30166667	132.0125	133.6930556	Female	Adipose	73								"76 y.o."	"Gastric cancer, lung cancer "																													"Measenteric fat; Same sample as SAA000661"	2016/11/29	2016/12/5
PRA000017	SAA000644	ST003	9606			E-19	"Homo sapiens"	Human	2004							Asia	Japan	Ehime	32.88472222	34.30166667	132.0125	133.6930556	Female	Adipose	75								"71 y.o."	"Breast cancer, lymphoangitis carcinomatosa, idiopathic interstitial pneumonia "																													"Measenteric fat; Same sample as SAA000662"	2016/11/29	2016/12/5
PRA000017	SAA000645	ST003	9606			218	"Homo sapiens"	Human	2003							Asia	Japan	Kanto	34.917714	36.28333333	138.7113889	140.857758	Female	Adipose	60								"83 y.o."	"Lung cancer"																													"Measenteric fat; Same sample as SAA000678"	2016/11/29	2016/12/5
PRA000017	SAA000646	ST003	9606			220	"Homo sapiens"	Human	2003							Asia	Japan	Kanto	34.917714	36.28333333	138.7113889	140.857758	Female	Adipose	66								"109 y.o."	"Senile deterioration"																													"Measenteric fat; Same sample as SAA000680"	2016/11/29	2016/12/5
PRA000030	SAA001903	ST004	34892	es-BANK	EW00736	9053	"Neophocaena phocaenoides"	"Finless Porpoise"	1990							Asia	China	Dongshan	23.65352778	23.71171389	117.2606639	117.2949778	Male	Blubber	87		27	kg	121	cm	"Body length"		"1 y.o."																															2017/5/31	2017/5/31
PRA000030	SAA001904	ST004	34892	es-BANK	EW00743	9063	"Neophocaena phocaenoides"	"Finless Porpoise"	1990							Asia	China	Dongshan	23.65352778	23.71171389	117.2606639	117.2949778	Male	Blubber	73		29	kg	126.2	cm	"Body length"		"1 y.o."																															2017/5/31	2017/5/31
PRA000030	SAA001905	ST004	34892	es-BANK	EW00747	9067	"Neophocaena phocaenoides"	"Finless Porpoise"	1990							Asia	China	Dongshan	23.65352778	23.71171389	117.2606639	117.2949778	Male	Blubber	92		52.5	kg	153.2	cm	"Body length"		"6 y.o."																															2017/5/31	2017/5/31
PRA000030	SAA001906	ST004	34892	es-BANK	EW00753	9074	"Neophocaena phocaenoides"	"Finless Porpoise"	1990							Asia	China	Dongshan	23.65352778	23.71171389	117.2606639	117.2949778	Male	Blubber	78		54	kg	158.5	cm	"Body length"		"6 y.o."																															2017/5/31	2017/5/31
PRA000030	SAA001907	ST004	34892	es-BANK	EW00755	9076	"Neophocaena phocaenoides"	"Finless Porpoise"	1990							Asia	China	Dongshan	23.65352778	23.71171389	117.2606639	117.2949778	Male	Blubber	83		57	kg	160.3	cm	"Body length"		"11 y.o."																															2017/5/31	2017/5/31
PRA000030	SAA001908	ST004	34892	es-BANK	EW00758	9079	"Neophocaena phocaenoides"	"Finless Porpoise"	1990							Asia	China	Dongshan	23.65352778	23.71171389	117.2606639	117.2949778	Male	Blubber	91		60	kg	161.7	cm	"Body length"		"5 y.o."																															2017/5/31	2017/5/31
PRA000030	SAA001909	ST004	34892	es-BANK	EW00741	9061	"Neophocaena phocaenoides"	"Finless Porpoise"	1990							Asia	China	Dongshan	23.65352778	23.71171389	117.2606639	117.2949778	Male	Blubber	71		63	kg	167.1	cm	"Body length"		"8 y.o."																															2017/5/31	2017/5/31
PRA000030	SAA001910	ST004	34892	es-BANK	EW00861	NP00-28/12	"Neophocaena phocaenoides"	"Finless Porpoise"	2000	12	28					Asia	China	"Hong Kong"	22.16097222	22.49902222	113.8576722	114.4423972	Male	Blubber	40																																						"Body length: >123 cm"	2017/5/31	2017/5/31
PRA000030	SAA001911	ST004	34892	es-BANK	EW00860	NP00-26/12	"Neophocaena phocaenoides"	"Finless Porpoise"	2000	12	26					Asia	China	"Hong Kong"	22.16097222	22.49902222	113.8576722	114.4423972	Male	Blubber	34				152	cm	"Body length"																																	2017/5/31	2017/5/31
PRA000030	SAA001912	ST004	34892	es-BANK	EW00862	NP01-20/03	"Neophocaena phocaenoides"	"Finless Porpoise"	2001	3	20					Asia	China	"Hong Kong"	22.16097222	22.49902222	113.8576722	114.4423972	Male	Blubber	63				121	cm	"Body length"																																	2017/5/31	2017/5/31
PRA000030	SAA001913	ST004	34892	es-BANK	EW00864	NP01-24/05	"Neophocaena phocaenoides"	"Finless Porpoise"	2001	5	24					Asia	China	"Hong Kong"	22.16097222	22.49902222	113.8576722	114.4423972	Male	Blubber	65				159	cm	"Body length"																																	2017/5/31	2017/5/31
PRA000030	SAA001914	ST004	34892	es-BANK	EW00863	NP01-12/04	"Neophocaena phocaenoides"	"Finless Porpoise"	2001	4	12					Asia	China	"Hong Kong"	22.16097222	22.49902222	113.8576722	114.4423972	Male	Blubber	32				163	cm	"Body length"																																	2017/5/31	2017/5/31
PRA000032	SAA001968	ST004	9737	es-BANK	EW04115		"Stenella coeruleoalba"	"Striped dolphin"	1978	12	19					Asia	Japan	"Taiji, Wakayama"	33.54416667	33.62305833	135.885	136.0180583	Male	Blubber	36.05		132	kg	227	cm	"Body length"	Matured	"11.5 y.o."																															2017/6/9	2017/6/9
PRA000032	SAA001969	ST004	9737	es-BANK	EW04116		"Stenella coeruleoalba"	"Striped dolphin"	1978	12	19					Asia	Japan	"Taiji, Wakayama"	33.54416667	33.62305833	135.885	136.0180583	Male	Blubber	49.24		160	kg	230	cm	"Body length"	Matured	"17.5 y.o."																															2017/6/9	2017/6/9
PRA000032	SAA001970	ST004	9737	es-BANK	EW04157		"Stenella coeruleoalba"	"Striped dolphin"	1979	12	15					Asia	Japan	"Taiji, Wakayama"	33.54416667	33.62305833	135.885	136.0180583	Male	Blubber	55				235	cm	"Body length"	Matured	"19.5 y.o."																															2017/6/9	2017/6/9
PRA000032	SAA001971	ST004	9737	es-BANK	EW04174		"Stenella coeruleoalba"	"Striped dolphin"	1979	12	15					Asia	Japan	"Taiji, Wakayama"	33.54416667	33.62305833	135.885	136.0180583	Male	Blubber	73.54				239	cm	"Body length"	Matured	"18.5 y.o."																															2017/6/9	2017/6/9
PRA000032	SAA001972	ST004	9737	es-BANK	EW04180		"Stenella coeruleoalba"	"Striped dolphin"	1979	12	15					Asia	Japan	"Taiji, Wakayama"	33.54416667	33.62305833	135.885	136.0180583	Male	Blubber	90.98				230	cm	"Body length"	Matured	"18.5 y.o."																															2017/6/9	2017/6/9
PRA000032	SAA001973	ST004	9737	es-BANK	EW04186		"Stenella coeruleoalba"	"Striped dolphin"	1979	12	15					Asia	Japan	"Taiji, Wakayama"	33.54416667	33.62305833	135.885	136.0180583	Male	Blubber	67.17				233	cm	"Body length"	Matured	"19.5 y.o."																															2017/6/9	2017/6/9
PRA000032	SAA001974	ST004	9737	es-BANK	EW04438		"Stenella coeruleoalba"	"Striped dolphin"	1986	12	9					Asia	Japan	"Taiji, Wakayama"	33.54416667	33.62305833	135.885	136.0180583	Male	Blubber	55.93						"Body length"		"20.5 y.o."																															2017/6/9	2017/6/9
PRA000032	SAA001975	ST004	9737	es-BANK	EW04439		"Stenella coeruleoalba"	"Striped dolphin"	1986	12	9					Asia	Japan	"Taiji, Wakayama"	33.54416667	33.62305833	135.885	136.0180583	Male	Blubber	46.75				228	cm	"Body length"		"9.5 y.o."																															2017/6/9	2017/6/9
PRA000032	SAA001976	ST004	9737	es-BANK	EW04500		"Stenella coeruleoalba"	"Striped dolphin"	1986	12	9					Asia	Japan	"Taiji, Wakayama"	33.54416667	33.62305833	135.885	136.0180583	Male	Blubber	54				251	cm	"Body length"		"31.5 y.o."																															2017/6/9	2017/6/9
PRA000032	SAA001977	ST004	9737	es-BANK	EW04534		"Stenella coeruleoalba"	"Striped dolphin"	1992	8	3					"Pacific Ocean"		"Pacific Ocean"	37.2		147.55		Male	Blubber	62.26				226	cm	"Body length"																																	2017/6/9	2017/6/9
PRA000032	SAA001978	ST004	9737	es-BANK	EW04539		"Stenella coeruleoalba"	"Striped dolphin"	1992	8	8					"Pacific Ocean"		"Pacific Ocean"	36.95		151.6666667		Male	Blubber	56.05				231	cm	"Body length"																																	2017/6/9	2017/6/9
PRA000032	SAA001979	ST004	9737	es-BANK	EW04547		"Stenella coeruleoalba"	"Striped dolphin"	1992	8	10					"Pacific Ocean"		"Pacific Ocean"	36.93333333		154.3		Male	Blubber	64.74				226	cm	"Body length"																																	2017/6/9	2017/6/9
PRA000032	SAA001980	ST004	9737	es-BANK	EW04548		"Stenella coeruleoalba"	"Striped dolphin"	1992	8	11					"Pacific Ocean"		"Pacific Ocean"	37.25		154.4833333		Male	Blubber	45.91				226	cm	"Body length"																																	2017/6/9	2017/6/9
PRA000032	SAA001981	ST004	9737	es-BANK	EW04557		"Stenella coeruleoalba"	"Striped dolphin"	1992	11	22					"Pacific Ocean"		"Pacific Ocean"	33.54999		136.0666667		Male	Blubber	28.43				235	cm	"Body length"																																	2017/6/9	2017/6/9
PRA000032	SAA001982	ST004	9737	es-BANK	EW04559		"Stenella coeruleoalba"	"Striped dolphin"	1992	11	23					"Pacific Ocean"		"Pacific Ocean"	33.48333333		136.19999		Male	Blubber	71.5				230	cm	"Body length"																																	2017/6/9	2017/6/9
PRA000032	SAA001983	ST004	9737	es-BANK	EW04566	SD1	"Stenella coeruleoalba"	"Striped dolphin"	2003	3	30					Asia	Japan	"Gogo-shima, Ehime"	33.86462778	33.929025	132.6527333	132.6982167	Male	Blubber	56.2		155	kg	230.8	cm	"Body length"																																	2017/6/9	2017/6/9
PRA000032	SAA001984	ST004	9737	es-BANK	EW04567	SD2	"Stenella coeruleoalba"	"Striped dolphin"	2003	3	30					Asia	Japan	"Gogo-shima, Ehime"	33.86462778	33.929025	132.6527333	132.6982167	Female	Blubber	56.2		105	kg	223	cm	"Body length"																																	2017/6/9	2017/6/9
PRA000032	SAA001985	ST004	9737	es-BANK	EW04568	SD3	"Stenella coeruleoalba"	"Striped dolphin"	2003	4	1					Asia	Japan	"Gogo-shima, Ehime"	33.86462778	33.929025	132.6527333	132.6982167	Male	Blubber	58.4		150	kg	237.6	cm	"Body length"																																	2017/6/9	2017/6/9
PRA000032	SAA001986	ST004	9737	es-BANK	EW04569	SD4	"Stenella coeruleoalba"	"Striped dolphin"	2003	4	1					Asia	Japan	"Gogo-shima, Ehime"	33.86462778	33.929025	132.6527333	132.6982167	Male	Blubber	49.8		155	kg	232	cm	"Body length"																																	2017/6/9	2017/6/9
PRA000032	SAA001987	ST004	9737	es-BANK	EW04570	SD5	"Stenella coeruleoalba"	"Striped dolphin"	2003	4	1					Asia	Japan	"Gogo-shima, Ehime"	33.86462778	33.929025	132.6527333	132.6982167	Male	Blubber	44.1		135	kg	231	cm	"Body length"																																	2017/6/9	2017/6/9
PRA000032	SAA001988	ST004	9737	es-BANK	EW04571	SD6	"Stenella coeruleoalba"	"Striped dolphin"	2003	4	1					Asia	Japan	"Gogo-shima, Ehime"	33.86462778	33.929025	132.6527333	132.6982167	Male	Blubber	54.4		150	kg	236.5	cm	"Body length"																																	2017/6/9	2017/6/9
PRA000032	SAA001989	ST004	9737	es-BANK	EW04567	SD2	"Stenella coeruleoalba"	"Striped dolphin"	2003	3	30					Asia	Japan	"Gogo-shima, Ehime"	33.86462778	33.929025	132.6527333	132.6982167	Female	Brain	9.86		105	kg	223	cm	"Body length"																																	2017/6/9	2017/6/9
PRA000032	SAA001990	ST004	9737	es-BANK	EW04568	SD3	"Stenella coeruleoalba"	"Striped dolphin"	2003	4	1					Asia	Japan	"Gogo-shima, Ehime"	33.86462778	33.929025	132.6527333	132.6982167	Male	Brain	15.47		150	kg	237.6	cm	"Body length"																																	2017/6/9	2017/6/9
PRA000032	SAA001991	ST004	9737	es-BANK	EW04570	SD5	"Stenella coeruleoalba"	"Striped dolphin"	2003	4	1					Asia	Japan	"Gogo-shima, Ehime"	33.86462778	33.929025	132.6527333	132.6982167	Male	Brain	11.57		135	kg	231	cm	"Body length"																																	2017/6/9	2017/6/9
PRA000032	SAA001992	ST004	9737	es-BANK	EW04566	SD1	"Stenella coeruleoalba"	"Striped dolphin"	2003	3	30					Asia	Japan	"Gogo-shima, Ehime"	33.86462778	33.929025	132.6527333	132.6982167	Male	Liver	2.41		155	kg	230.8	cm	"Body length"																																	2017/6/9	2017/6/9
PRA000032	SAA001993	ST004	9737	es-BANK	EW04567	SD2	"Stenella coeruleoalba"	"Striped dolphin"	2003	3	30					Asia	Japan	"Gogo-shima, Ehime"	33.86462778	33.929025	132.6527333	132.6982167	Female	Liver	2.95		105	kg	223	cm	"Body length"																																	2017/6/9	2017/6/9
PRA000032	SAA001994	ST004	9737	es-BANK	EW04568	SD3	"Stenella coeruleoalba"	"Striped dolphin"	2003	4	1					Asia	Japan	"Gogo-shima, Ehime"	33.86462778	33.929025	132.6527333	132.6982167	Male	Liver	2.85		150	kg	237.6	cm	"Body length"																																	2017/6/9	2017/6/9
PRA000032	SAA001995	ST004	9737	es-BANK	EW04569	SD4	"Stenella coeruleoalba"	"Striped dolphin"	2003	4	1					Asia	Japan	"Gogo-shima, Ehime"	33.86462778	33.929025	132.6527333	132.6982167	Male	Liver	3.43		155	kg	232	cm	"Body length"																																	2017/6/9	2017/6/9
PRA000032	SAA001996	ST004	9737	es-BANK	EW04570	SD5	"Stenella coeruleoalba"	"Striped dolphin"	2003	4	1					Asia	Japan	"Gogo-shima, Ehime"	33.86462778	33.929025	132.6527333	132.6982167	Male	Liver	2.55		135	kg	231	cm	"Body length"																																	2017/6/9	2017/6/9
PRA000032	SAA001997	ST004	9737	es-BANK	EW04571	SD6	"Stenella coeruleoalba"	"Striped dolphin"	2003	4	1					Asia	Japan	"Gogo-shima, Ehime"	33.86462778	33.929025	132.6527333	132.6982167	Male	Liver	2.8		150	kg	236.5	cm	"Body length"																																	2017/6/9	2017/6/9
PRA000032	SAA001998	ST004	9737	es-BANK	EW04566	SD1	"Stenella coeruleoalba"	"Striped dolphin"	2003	3	30					Asia	Japan	"Gogo-shima, Ehime"	33.86462778	33.929025	132.6527333	132.6982167	Male	Muscle	0.36		155	kg	230.8	cm	"Body length"																																	2017/6/9	2017/6/9
PRA000032	SAA001999	ST004	9737	es-BANK	EW04567	SD2	"Stenella coeruleoalba"	"Striped dolphin"	2003	3	30					Asia	Japan	"Gogo-shima, Ehime"	33.86462778	33.929025	132.6527333	132.6982167	Female	Muscle	0.5		105	kg	223	cm	"Body length"																																	2017/6/9	2017/6/9
PRA000032	SAA002000	ST004	9737	es-BANK	EW04568	SD3	"Stenella coeruleoalba"	"Striped dolphin"	2003	4	1					Asia	Japan	"Gogo-shima, Ehime"	33.86462778	33.929025	132.6527333	132.6982167	Male	Muscle	0.47		150	kg	237.6	cm	"Body length"																																	2017/6/9	2017/6/9
PRA000032	SAA002001	ST004	9737	es-BANK	EW04569	SD4	"Stenella coeruleoalba"	"Striped dolphin"	2003	4	1					Asia	Japan	"Gogo-shima, Ehime"	33.86462778	33.929025	132.6527333	132.6982167	Male	Muscle	0.54		155	kg	232	cm	"Body length"																																	2017/6/9	2017/6/9
PRA000032	SAA002002	ST004	9737	es-BANK	EW04570	SD5	"Stenella coeruleoalba"	"Striped dolphin"	2003	4	1					Asia	Japan	"Gogo-shima, Ehime"	33.86462778	33.929025	132.6527333	132.6982167	Male	Muscle	0.5		135	kg	231	cm	"Body length"																																	2017/6/9	2017/6/9
PRA000032	SAA002003	ST004	9737	es-BANK	EW04571	SD6	"Stenella coeruleoalba"	"Striped dolphin"	2003	4	1					Asia	Japan	"Gogo-shima, Ehime"	33.86462778	33.929025	132.6527333	132.6982167	Male	Muscle	0.69		150	kg	236.5	cm	"Body length"																																	2017/6/9	2017/6/9
PRA000036	SAA002109	ST004	103596	es-BANK	EW00089	820106-16	"Peponocephala electra"	"Melon-headed whale"	1982	1						Asia	Japan	"Aoshima, Miyazaki"	31.45	32.73333333	131.9163889	132.5502778	Male	Blubber	80		211.7	kg	258	cm	"Body length"	Mature																																2017/5/12	2017/5/12
PRA000036	SAA002110	ST004	103596	es-BANK	EW00090	820106-17	"Peponocephala electra"	"Melon-headed whale"	1982	1						Asia	Japan	"Aoshima, Miyazaki"	31.45	32.73333333	131.9163889	132.5502778	Male	Blubber	54		198.4	kg	251	cm	"Body length"	Mature	"37.5 y.o."																															2017/5/12	2017/5/12
PRA000036	SAA002111	ST004	103596	es-BANK	EW00091	820106-18	"Peponocephala electra"	"Melon-headed whale"	1982	1						Asia	Japan	"Aoshima, Miyazaki"	31.45	32.73333333	131.9163889	132.5502778	Male	Blubber	46		175.6	kg	247.5	cm	"Body length"	Mature	"24.5 y.o."																															2017/05/12	2017/05/12
PRA000036	SAA002112	ST004	103596	es-BANK	EW00093	820106-20	"Peponocephala electra"	"Melon-headed whale"	1982	1						Asia	Japan	"Aoshima, Miyazaki"	31.45	32.73333333	131.9163889	132.5502778	Male	Blubber	64		196.5	kg	247	cm	"Body length"	Mature	"41.5 y.o."																															2017/5/12	2017/5/12
PRA000036	SAA002113	ST004	103596	es-BANK	EW00086	820106-13	"Peponocephala electra"	"Melon-headed whale"	1982	1						Asia	Japan	"Aoshima, Miyazaki"	31.45	32.73333333	131.9163889	132.5502778	Male	Blubber	66		144.2	kg	236	cm	"Body length"	Immature	"12.5 y.o."																															2017/5/12	2017/5/12
PRA000036	SAA002114	ST004	103596	es-BANK	EW00076	820106-03	"Peponocephala electra"	"Melon-headed whale"	1982	1						Asia	Japan	"Aoshima, Miyazaki"	31.45	32.73333333	131.9163889	132.5502778	Female	Blubber	44		165.9	kg	240	cm	"Body length"	Mature	"29.5 y.o."																														"Pregnant: Dam of SAA002118 (EW00094)"	2017/5/12	2017/5/12
PRA000036	SAA002115	ST004	103596	es-BANK	EW00088	820106-15	"Peponocephala electra"	"Melon-headed whale"	1982	1						Asia	Japan	"Aoshima, Miyazaki"	31.45	32.73333333	131.9163889	132.5502778	Female	Blubber	66		172.8	kg	235	cm	"Body length"	Mature	"25.5 y.o."																														"Pregnant: Dam of SAA002117(EW00095)"	2017/5/12	2017/5/12
PRA000036	SAA002116	ST004	103596	es-BANK	EW00101	820109-52	"Peponocephala electra"	"Melon-headed whale"	1982	1						Asia	Japan	"Aoshima, Miyazaki"	31.45	32.73333333	131.9163889	132.5502778	Male	Blubber	44		12.2	kg	101	cm	"Body length"	Fetus																															"Fetus of EW00098"	2017/5/12	2017/5/12
PRA000036	SAA002117	ST004	103596	es-BANK	EW00095	820106-22	"Peponocephala electra"	"Melon-headed whale"	1982	1						Asia	Japan	"Aoshima, Miyazaki"	31.45	32.73333333	131.9163889	132.5502778	Male	Blubber	44		9.26	kg	92	cm	"Body length"	Fetus																															"Fetus of SAA002115 (EW00088)"	2017/5/12	2017/5/12
PRA000036	SAA002118	ST004	103596	es-BANK	EW00094	820106-21	"Peponocephala electra"	"Melon-headed whale"	1982	1						Asia	Japan	"Aoshima, Miyazaki"	31.45	32.73333333	131.9163889	132.5502778	Male	Blubber	39		7.26	kg	80	cm	"Body length"	Fetus																															"Fetus of SAA002114 (EW00076)"	2017/5/12	2017/5/12
PRA000036	SAA002119	ST004	103596	es-BANK	EW00113	M32623	"Peponocephala electra"	"Melon-headed whale"	2001	2	12					Asia	Japan	"Hasaki, Ibaraki"	35.73184444	35.82913333	140.7697722	140.8939278	Male	Blubber	63				270	cm	"Body length"	Mature																																2017/5/12	2017/5/12
PRA000036	SAA002120	ST004	103596	es-BANK	EW00127	M32677	"Peponocephala electra"	"Melon-headed whale"	2001	3	12					Asia	Japan	"Tanegashima, Kagoshima"	30.28055556	30.89444444	130.8252778	131.2708333	Male	Blubber	63				261	cm	"Body length"	Immature																																2017/5/12	2017/5/12
PRA000036	SAA002121	ST004	103596	es-BANK	EW04690	M32818	"Peponocephala electra"	"Melon-headed whale"	2002	2	25					Asia	Japan	"Hasaki, Ibaraki"	35.73184444	35.82913333	140.7697722	140.8939278	Male	Blubber	30				255	cm	"Body length"	Immature	"11.5 y.o."																															2017/5/12	2017/5/12
PRA000036	SAA002122	ST004	103596	es-BANK	EW00125	M32655	"Peponocephala electra"	"Melon-headed whale"	2001	3	12					Asia	Japan	"Tanegashima, Kagoshima"	30.28055556	30.89444444	130.8252778	131.2708333	Male	Blubber	73				253	cm	"Body length"	Mature																																2017/5/12	2017/5/12
PRA000036	SAA002123	ST004	103596	es-BANK	EW00121	M32632	"Peponocephala electra"	"Melon-headed whale"	2001	2	14					Asia	Japan	"Hasaki, Ibaraki"	35.73184444	35.82913333	140.7697722	140.8939278	Male	Blubber	67				249	cm	"Body length"	Unknown																																2017/5/12	2017/5/12
PRA000036	SAA002124	ST004	103596	es-BANK	EW00124	M32654	"Peponocephala electra"	"Melon-headed whale"	2001	3	12					Asia	Japan	"Tanegashima, Kagoshima"	30.28055556	30.89444444	130.8252778	131.2708333	Male	Blubber	74				245.5	cm	"Body length"	Mature																																2017/05/12	2017/05/12
PRA000036	SAA002125	ST004	103596	es-BANK	EW00134	M32774	"Peponocephala electra"	"Melon-headed whale"	2002	2	25					Asia	Japan	"Hasaki, Ibaraki"	35.73184444	35.82913333	140.7697722	140.8939278	Male	Blubber	39				243	cm	"Body length"	Mature	"15.5 y.o."																															2017/5/12	2017/5/12
PRA000036	SAA002126	ST004	103596	es-BANK	EW04669	M32785	"Peponocephala electra"	"Melon-headed whale"	2002	2	25					Asia	Japan	"Hasaki, Ibaraki"	35.73184444	35.82913333	140.7697722	140.8939278	Male	Blubber	72				243	cm	"Body length"	Mature	"16.5 y.o."																															2017/5/12	2017/5/12
PRA000036	SAA002127	ST004	103596	es-BANK	EW04676	M32798	"Peponocephala electra"	"Melon-headed whale"	2002	2	25					Asia	Japan	"Hasaki, Ibaraki"	35.73184444	35.82913333	140.7697722	140.8939278	Male	Blubber	41				234	cm	"Body length"	Immature	"10.5 y.o."																															2017/5/12	2017/5/12
PRA000036	SAA002128	ST004	103596	es-BANK	EW00132	M32770	"Peponocephala electra"	"Melon-headed whale"	2002	2	25					Asia	Japan	"Hasaki, Ibaraki"	35.73184444	35.82913333	140.7697722	140.8939278	Male	Blubber	69				222	cm	"Body length"	Immature																																2017/5/12	2017/5/12
PRA000036	SAA002129	ST004	103596	es-BANK	EW00130	M32768	"Peponocephala electra"	"Melon-headed whale"	2002	2	25					Asia	Japan	"Hasaki, Ibaraki"	35.73184444	35.82913333	140.7697722	140.8939278	Male	Blubber	58				219	cm	"Body length"	Immature	"5.5 y.o."																															2017/5/12	2017/5/12
PRA000036	SAA002130	ST004	103596	es-BANK	EW04667	M32780	"Peponocephala electra"	"Melon-headed whale"	2002	2	25					Asia	Japan	"Hasaki, Ibaraki"	35.73184444	35.82913333	140.7697722	140.8939278	Male	Blubber	63				214	cm	"Body length"	Immature	"2 y.o."																															2017/5/12	2017/5/12
PRA000036	SAA002131	ST004	103596	es-BANK	EW00137	M32814	"Peponocephala electra"	"Melon-headed whale"	2002	2	25					Asia	Japan	"Hasaki, Ibaraki"	35.73184444	35.82913333	140.7697722	140.8939278	Male	Blubber	54				211	cm	"Body length"	Immature																																2017/5/12	2017/5/12
PRA000036	SAA002132	ST004	103596	es-BANK	EW00138	M32815	"Peponocephala electra"	"Melon-headed whale"	2001	2	25					Asia	Japan	"Hasaki, Ibaraki"	35.73184444	35.82913333	140.7697722	140.8939278	Female	Blubber	63				250	cm	"Body length"	Mature	"30.5 y.o."																															2017/5/12	2017/5/12
PRA000036	SAA002133	ST004	103596	es-BANK	EW00123	M32637	"Peponocephala electra"	"Melon-headed whale"	2001	3	12					Asia	Japan	"Tanegashima, Kagoshima"	30.28055556	30.89444444	130.8252778	131.2708333	Female	Blubber	74				248	cm	"Body length"	Mature																																2017/5/12	2017/5/12
PRA000036	SAA002134	ST004	103596	es-BANK	EW04689	M32816	"Peponocephala electra"	"Melon-headed whale"	2002	2	25					Asia	Japan	"Hasaki, Ibaraki"	35.73184444	35.82913333	140.7697722	140.8939278	Female	Blubber	50				248	cm	"Body length"	Mature	"20.5 y.o."																														Pregnant	2017/5/12	2017/5/12
PRA000036	SAA002135	ST004	103596	es-BANK	EW04661	M32771	"Peponocephala electra"	"Melon-headed whale"	2002	2	25					Asia	Japan	"Hasaki, Ibaraki"	35.73184444	35.82913333	140.7697722	140.8939278	Female	Blubber	62				246	cm	"Body length"	Mature	"13.5 y.o."																															2017/5/12	2017/5/12
PRA000036	SAA002136	ST004	103596	es-BANK	EW04682	M32805	"Peponocephala electra"	"Melon-headed whale"	2002	2	25					Asia	Japan	"Hasaki, Ibaraki"	35.73184444	35.82913333	140.7697722	140.8939278	Female	Blubber	76				246	cm	"Body length"	Mature	"35.5 y.o."																															2017/5/12	2017/5/12
PRA000036	SAA002137	ST004	103596	es-BANK	EW00114	M32624	"Peponocephala electra"	"Melon-headed whale"	2001	2	12					Asia	Japan	"Hasaki, Ibaraki"	35.73184444	35.82913333	140.7697722	140.8939278	Female	Blubber	59				245	cm	"Body length"	Mature																																2017/5/12	2017/5/12
PRA000036	SAA002138	ST004	103596	es-BANK	EW00133	M32772	"Peponocephala electra"	"Melon-headed whale"	2002	2	25					Asia	Japan	"Hasaki, Ibaraki"	35.73184444	35.82913333	140.7697722	140.8939278	Female	Blubber	47				242	cm	"Body length"	Mature																																2017/5/12	2017/5/12
PRA000036	SAA002139	ST004	103596	es-BANK	EW04681	M32804	"Peponocephala electra"	"Melon-headed whale"	2002	2	25					Asia	Japan	"Hasaki, Ibaraki"	35.73184444	35.82913333	140.7697722	140.8939278	Female	Blubber	54				241	cm	"Body length"	Mature	"9.5 y.o."																															2017/5/12	2017/5/12
PRA000036	SAA002140	ST004	103596	es-BANK	EW00126	M32660	"Peponocephala electra"	"Melon-headed whale"	2001	3	12					Asia	Japan	"Tanegashima, Kagoshima"	30.28055556	30.89444444	130.8252778	131.2708333	Female	Blubber	77				236	cm	"Body length"	Mature																																2017/5/12	2017/5/12
PRA000036	SAA002141	ST004	103596	es-BANK	EW00142	M32830	"Peponocephala electra"	"Melon-headed whale"	2002	2	25					Asia	Japan	"Hasaki, Ibaraki"	35.73184444	35.82913333	140.7697722	140.8939278	Female	Blubber	54				236	cm	"Body length"	Mature																																2017/5/12	2017/5/12
PRA000036	SAA002142	ST004	103596	es-BANK	EW00140	M32826	"Peponocephala electra"	"Melon-headed whale"	2002	2	25					Asia	Japan	"Hasaki, Ibaraki"	35.73184444	35.82913333	140.7697722	140.8939278	Female	Blubber	47				231	cm	"Body length"	Mature																																2017/5/12	2017/5/12
PRA000036	SAA002143	ST004	103596	es-BANK	EW00141	M32828	"Peponocephala electra"	"Melon-headed whale"	2002	2	25					Asia	Japan	"Hasaki, Ibaraki"	35.73184444	35.82913333	140.7697722	140.8939278	Female	Blubber	63				231	cm	"Body length"	Mature																																2017/5/12	2017/5/12
PRA000036	SAA002144	ST004	103596	es-BANK	EW00104	020225-81	"Peponocephala electra"	"Melon-headed whale"	2002	2	25					Asia	Japan	"Hasaki, Ibaraki"	35.73184444	35.82913333	140.7697722	140.8939278	Female	Blubber	51				230	cm	"Body length"	Mature																																2017/5/12	2017/5/12
PRA000036	SAA002145	ST004	103596	es-BANK	EW00110	M32800	"Peponocephala electra"	"Melon-headed whale"	2002	2	25					Asia	Japan	"Hasaki, Ibaraki"	35.73184444	35.82913333	140.7697722	140.8939278	Female	Blubber	62				230	cm	"Body length"	Immature																																2017/5/12	2017/5/12
PRA000036	SAA002146	ST004	103596	es-BANK	EW04684	M32808	"Peponocephala electra"	"Melon-headed whale"	2002	2	25					Asia	Japan	"Hasaki, Ibaraki"	35.73184444	35.82913333	140.7697722	140.8939278	Female	Blubber	60				229	cm	"Body length"	Mature	"32.5 y.o."																															2017/5/12	2017/5/12
PRA000036	SAA002147	ST004	103596	es-BANK	EW04668	M32783	"Peponocephala electra"	"Melon-headed whale"	2002	2	25					Asia	Japan	"Hasaki, Ibaraki"	35.73184444	35.82913333	140.7697722	140.8939278	Female	Blubber	66				228	cm	"Body length"	Mature	"21.5 y.o."																														Pregnant	2017/5/12	2017/5/12
PRA000036	SAA002148	ST004	103596	es-BANK	EW00136	M32811	"Peponocephala electra"	"Melon-headed whale"	2002	2	25					Asia	Japan	"Hasaki, Ibaraki"	35.73184444	35.82913333	140.7697722	140.8939278	Female	Blubber	63				228	cm	"Body length"	Immature																																2017/5/12	2017/5/12
PRA000036	SAA002149	ST004	103596	es-BANK	EW04673	M32791	"Peponocephala electra"	"Melon-headed whale"	2002	2	25					Asia	Japan	"Hasaki, Ibaraki"	35.73184444	35.82913333	140.7697722	140.8939278	Female	Blubber	24				226	cm	"Body length"	Immature	"6.5 y.o."																															2017/5/12	2017/5/12
PRA000036	SAA002150	ST004	103596	es-BANK	EW00108	020225-32	"Peponocephala electra"	"Melon-headed whale"	2002	2	25					Asia	Japan	"Hasaki, Ibaraki"	35.73184444	35.82913333	140.7697722	140.8939278	Female	Blubber	65				223	cm	"Body length"	Mature																																2017/5/12	2017/5/12
PRA000036	SAA002151	ST004	103596	es-BANK	EW04678	M32801	"Peponocephala electra"	"Melon-headed whale"	2002	2	25					Asia	Japan	"Hasaki, Ibaraki"	35.73184444	35.82913333	140.7697722	140.8939278	Female	Blubber	63				222	cm	"Body length"	Mature	"25.5 y.o."																															2017/5/12	2017/5/12
PRA000036	SAA002152	ST004	103596	es-BANK	EW04679	M32802	"Peponocephala electra"	"Melon-headed whale"	2002	2	25					Asia	Japan	"Hasaki, Ibaraki"	35.73184444	35.82913333	140.7697722	140.8939278	Female	Blubber	80				210	cm	"Body length"	Immature	"1.5 y.o."																															2017/5/12	2017/5/12
PRA000036	SAA002153	ST004	103596	es-BANK	EW04671	M32789	"Peponocephala electra"	"Melon-headed whale"	2002	2	25					Asia	Japan	"Hasaki, Ibaraki"	35.73184444	35.82913333	140.7697722	140.8939278	Female	Blubber	73				208	cm	"Body length"	Immature	"1.5 y.o."																															2017/5/12	2017/5/12
PRA000036	SAA002154	ST004	103596	es-BANK	EW04680	M32803	"Peponocephala electra"	"Melon-headed whale"	2002	2	25					Asia	Japan	"Hasaki, Ibaraki"	35.73184444	35.82913333	140.7697722	140.8939278	Female	Blubber	49				201	cm	"Body length"	Immature	"2 y.o."																															2017/5/12	2017/5/12
PRA000036	SAA002155	ST004	103596	es-BANK	EW04764	M34076	"Peponocephala electra"	"Melon-headed whale"	2006	1	23					Asia	Japan	"Asahi, Chiba"	35.70111111		140.7113889		Male	Blubber	50		229.05	kg	255.6	cm	"Body length"	Mature																																2017/05/12	2017/05/12
PRA000036	SAA002156	ST004	103596	es-BANK	EW04762	M34077	"Peponocephala electra"	"Melon-headed whale"	2006	1	23					Asia	Japan	"Asahi, Chiba"	35.70111111		140.7113889		Male	Blubber	32		137.5	kg	234	cm	"Body length"	Mature																																2017/5/12	2017/5/12
PRA000036	SAA002157	ST004	103596	es-BANK	EW04766	M34072	"Peponocephala electra"	"Melon-headed whale"	2006	1	23					Asia	Japan	"Asahi, Chiba"	35.70111111		140.7113889		Male	Blubber	47		224.05	kg	249	cm	"Body length"	Mature																																2017/5/12	2017/5/12
PRA000036	SAA002158	ST004	103596	es-BANK	EW04772	060301-6	"Peponocephala electra"	"Melon-headed whale"	2006	2	28					Asia	Japan	"Torami Coast, Torami, Ichinomiya, Chiba"	35.33	35.35972222	140.3919417	140.3979167	Male	Blubber	45				239	cm	"Body length"	Mature																															M34090	2017/05/12	2020/12/25
PRA000036	SAA002159	ST004	103596	es-BANK	EW04779	060301-1	"Peponocephala electra"	"Melon-headed whale"	2006	2	28					Asia	Japan	"Torami Coast, Torami, Ichinomiya, Chiba"	35.33	35.35972222	140.3919417	140.3979167	Male	Blubber	81				260	cm	"Body length"	Mature																															M34085	2017/05/12	2020/12/25
PRA000042	SAA002341	ST009	73031			"Preab Island"	"Perna viridis"	"Asian green mussel"	2004							Asia	Cambodia	"Preab Island"	10.559482	11.93609	102.787446	103.74339		"Whole soft tissue"	1.4				92	mm	"Shell length"																																"n=34 Pooled; Harbor"	2017/9/27	2017/9/27
PRA000042	SAA002342	ST009	73031			"Koh Kchorng"	"Perna viridis"	"Asian green mussel"	2004							Asia	Cambodia	"Koh Kchorng"	10.559482	11.93609	102.787446	103.74339		"Whole soft tissue"	1.6				80	mm	"Shell length"																																"n=45 Pooled; Rural area"	2017/9/27	2017/9/27
PRA000042	SAA002343	ST009	73031			Xiamen_Haichang	"Perna viridis"	"Asian green mussel"	2004							Asia	China	Xiamen	24.419248	24.546729	118.002245	118.087732		"Whole soft tissue"	0.45				"60 - 90"	mm	"Shell length"																																"n=108 Pooled; Commercial area"	2017/9/27	2017/9/27
PRA000042	SAA002344	ST009	73031			Qingzhou	"Perna viridis"	"Asian green mussel"	2004							Asia	China	Qingzhou	36.416263	36.954784	118.182408	118.77155		"Whole soft tissue"	0.76				"60 - 90"	mm	"Shell length"																																"n=178 Pooled; Small Town"	2017/9/27	2017/9/27
PRA000042	SAA002345	ST009	73031			"Fuzhou_Ming Jian"	"Perna viridis"	"Asian green mussel"	2004							Asia	China	Fuzhou	25.413261	25.572156	119.223735	119.879002		"Whole soft tissue"	0.7				"40 - 70"	mm	"Shell length"																																"n=218 Pooled; Agriculture, Residential area"	2017/9/27	2017/9/27
PRA000042	SAA002346	ST009	73031			"Beihai "	"Perna viridis"	"Asian green mussel"	2004							Asia	China	"Beihai "	21.403842	21.738972	108.855005	109.7707		"Whole soft tissue"	0.91				"60 - 90"	mm	"Shell length"																																"n=156 Pooled; Small city"	2017/9/27	2017/9/27
PRA000042	SAA002347	ST009	73031			Shantau_Lauping	"Perna viridis"	"Asian green mussel"	2004							Asia	China	"Shantau "	23.102299	23.602755	116.53924	116.909923		"Whole soft tissue"	0.99				"60 - 90"	mm	"Shell length"																																"n=104 Pooled; Residnetial area"	2017/9/27	2017/9/27
PRA000042	SAA002349	ST009	6550			Dalian	"Mytilus edulis"	"Blue mussel"	2004							Asia	China	Dalian	38.752184	40.181599	121.158975	123.492628		"Whole soft tissue"	0.67				"30 - 75"	mm	"Shell length"																																"n=69 Pooled; Aquaculture"	2017/9/27	2017/9/27
PRA000042	SAA002350	ST009	6550			"Chong Ming Dao_Shanghai"	"Mytilus edulis"	"Blue mussel"	2004							Asia	China	"Chong Ming Dao, Shanghai"	31.441648	31.863894	121.171316	121.990437		"Whole soft tissue"	0.79				"30 - 75"	mm	"Shell length"																																"n=79 Pooled; Industrial, Commercial area"	2017/9/27	2017/9/27
PRA000042	SAA002351	ST009	6550			"Lian Yun  Gang"	"Mytilus edulis"	"Blue mussel"	2004							Asia	China	"Lian Yun  Gang"	34.386956	35.105406	119.210949	119.794567		"Whole soft tissue"	1.2				"40 - 75"	mm	"Shell length"																																"n=50 Pooled; Aquaculture"	2017/9/27	2017/9/27
PRA000042	SAA002352	ST009	6550			"Jiao Zhou Wan_Qingdao"	"Mytilus edulis"	"Blue mussel"	2004							Asia	China	"Jiao Zhou Wan, Qingdao"	36.129984	36.181752	120.102721	120.144207		"Whole soft tissue"	0.78				"30 - 75"	mm	"Shell length"																																"n=72 Pooled; Industrial area"	2017/9/27	2017/9/27
PRA000042	SAA002353	ST009	73031			"Tsim sha Tsui"	"Perna viridis"	"Asian green mussel"	2004							Asia	China	"Hong Kong"	22.294251	22.300955	114.164788	114.176306		"Whole soft tissue"	1.3																																						"Pooled; Commercial area"	2017/9/27	2017/9/27
PRA000042	SAA002354	ST009	73031			"Kat O"	"Perna viridis"	"Asian green mussel"	2004							Asia	China	"Hong Kong"	22.532001	22.555097	114.286212	114.316531		"Whole soft tissue"	1																																						"Pooled; Aquaculture area"	2017/9/27	2017/9/27
PRA000042	SAA002355	ST009	73031			"Cheung Chau"	"Perna viridis"	"Asian green mussel"	2004							Asia	China	"Hong Kong"	22.196039	22.223074	114.017302	114.040874		"Whole soft tissue"	1.3																																						"Pooled; Residential area"	2017/9/27	2017/9/27
PRA000042	SAA002356	ST009	73031			"Sai Wan Ho"	"Perna viridis"	"Asian green mussel"	2004							Asia	China	"Hong Kong"	22.279392	22.284328	114.217802	114.223317		"Whole soft tissue"	1.3																																						"Pooled; Residential area"	2017/9/27	2017/9/27
PRA000042	SAA002357	ST009	73031			"Ma Liu Shui"	"Perna viridis"	"Asian green mussel"	2004							Asia	China	"Hong Kong"	22.41	22.428766	114.194339	114.214945		"Whole soft tissue"	1.4																																						"Pooled; Residential area"	2017/9/27	2017/9/27
PRA000042	SAA002358	ST009	73031			"Lung Kwu Tan"	"Perna viridis"	"Asian green mussel"	2004							Asia	China	"Hong Kong"	22.359504	22.425725	113.901442	113.947694		"Whole soft tissue"	0.64																																						"Pooled; Power station"	2017/9/27	2017/9/27
PRA000042	SAA002359	ST009	73031			"Ma Wan"	"Perna viridis"	"Asian green mussel"	2004							Asia	China	"Hong Kong"	22.343159	22.355759	114.05414	114.065204		"Whole soft tissue"	1.2																																						"Pooled; Aquaculture area"	2017/9/27	2017/9/27
PRA000042	SAA002360	ST009	73031			"Ma On Shan"	"Perna viridis"	"Asian green mussel"	2004							Asia	China	"Hong Kong"	22.408943	22.437196	114.219959	114.275565		"Whole soft tissue"	1.1																																						"Pooled; Residential area"	2017/9/27	2017/9/27
PRA000042	SAA002361	ST009	73031			"Sha Tau Kok"	"Perna viridis"	"Asian green mussel"	2004							Asia	China	"Hong Kong"	22.525595	22.544371	114.208345	114.227575		"Whole soft tissue"	1.6																																						"Pooled; Aquaculture area"	2017/9/27	2017/9/27
PRA000042	SAA002362	ST009	73031			"Lamma Island"	"Perna viridis"	"Asian green mussel"	2004							Asia	China	"Hong Kong"	22.177826	22.240926	114.104338	114.159322		"Whole soft tissue"	1.7																																						Pooled	2017/9/27	2017/9/27
PRA000042	SAA002363	ST009	73031			Pondicherry	"Perna viridis"	"Asian green mussel"	2004							Asia	India	Pondicherry	11.899741	11.972989	79.78589	79.840221		"Whole soft tissue"	0.37				"98 - 124"	mm	"Shell length"																																"n=35 Pooled; Industry, small harbor"	2017/9/27	2017/9/27
PRA000042	SAA002364	ST009	73031			Kakinada	"Perna viridis"	"Asian green mussel"	2004							Asia	India	Kakinada	16.916843	17.036695	82.203802	82.283624		"Whole soft tissue"	2.4				"88 - 129"	mm	"Shell length"																																"n=18 Pooled; Aqua-and agriculture, harbor"	2017/9/27	2017/9/27
PRA000042	SAA002365	ST009	73031			Kasimedu	"Perna viridis"	"Asian green mussel"	2004							Asia	India	Kasimedu	13.123868	13.126898	80.294433	80.297587		"Whole soft tissue"	0.95				"87 - 105"	mm	"Shell length"																																"n=20 Pooled; Fishing harbor"	2017/9/27	2017/9/27
PRA000042	SAA002366	ST009	73031			"Muara Angek_A"	"Perna viridis"	"Asian green mussel"	2003							Asia	Indonesia	"Muara Angek, Jakarta Bay"	-6.103269	-6.105417	106.774504	106.777027		"Whole soft tissue"	0.6				"58 - 86"	mm	"Shell length"																																"n=31 Pooled; Urban, fishing port, polluted"	2017/9/27	2017/9/27
PRA000042	SAA002367	ST009	73031			"Muara Angek_B"	"Perna viridis"	"Asian green mussel"	2003							Asia	Indonesia	"Muara Angek, Jakarta Bay"	-6.103269	-6.105417	106.774504	106.777027		"Whole soft tissue"	0.93				"52 - 65"	mm	"Shell length"																																"n=27 Pooled; Urban, fishing port, polluted"	2017/9/27	2017/9/27
PRA000042	SAA002368	ST009	73031			Cilincing_A	"Perna viridis"	"Asian green mussel"	2003							Asia	Indonesia	"Cilincing, Jakarta Bay"	-6.091834	-6.126882	106.908371	106.970887		"Whole soft tissue"	0.9				"52 - 73"	mm	"Shell length"																																"n=22 Pooled; Urban, industrial, polluted"	2017/9/27	2017/9/27
PRA000042	SAA002369	ST009	73031			Cilincing_B	"Perna viridis"	"Asian green mussel"	2003							Asia	Indonesia	"Cilincing, Jakarta Bay"	-6.091834	-6.126882	106.908371	106.970887		"Whole soft tissue"	0.86				"70 - 88"	mm	"Shell length"																																"n=20 Pooled; Urban, industrial, polluted"	2017/9/27	2017/9/27
PRA000042	SAA002370	ST009	6550			Osaka	"Mytilus edulis"	"Blue mussel"	2003							Asia	Japan	Osaka	34.27194444	35.05138889	135.0919444	135.7466667		"Whole soft tissue"	1.9				"47 - 66"	mm	"Shell length"																																"n=29 Pooled; Urban area"	2017/9/27	2017/9/27
PRA000042	SAA002371	ST009	6550	es-BANK	EF04157	Hokkaido	"Mytilus edulis"	"Blue mussel"	2003	6	13					Asia	Japan	Hokkaido	43.72472222	43.8225	141.1436111	141.3319444		"Whole soft tissue"	0.49																																						"Pooled; Rural area"	2017/9/27	2017/9/27
PRA000042	SAA002372	ST009	6550	es-BANK	EF04158	Fukui	"Mytilus edulis"	"Blue mussel"	2003	7	8					Asia	Japan	Fukui	35.65083333	35.80722222	135.9586111	136.1111111		"Whole soft tissue"	0.56																																						"Pooled; Rural area"	2017/9/27	2017/9/27
PRA000042	SAA002373	ST009	6550	es-BANK	EF04155	Mie	"Mytilus edulis"	"Blue mussel"	2003							Asia	Japan	Mie	33.6975	34.78638889	136.2413889	136.925		"Whole soft tissue"	0.74																																						"Pooled; Aquaculture"	2017/9/27	2017/9/27
PRA000042	SAA002374	ST009	6550			Miyagi	"Mytilus edulis"	"Blue mussel"	2004							Asia	Japan	Miyagi	37.77333333	39.00277778	140.275	141.6752778		"Whole soft tissue"	1.6																																						"Pooled; Fishing harbor"	2017/9/27	2017/9/27
PRA000042	SAA002375	ST009	6550			"Uljin A"	"Mytilus edulis"	"Blue mussel"	2005							Asia	Korea	Uljin	36.648131	37.145258	129.36385	129.477521		"Whole soft tissue"	0.78				"45 - 70"	mm	"Shell length"																																"n=36 Pooled; Less industrial activity"	2017/9/27	2017/9/27
PRA000042	SAA002376	ST009	6550			"Ganggu_Yandok M-3"	"Mytilus edulis"	"Blue mussel"	2005							Asia	Korea	"Ganggu, Yandok"	36.355654	36.363704	129.380696	129.393991		"Whole soft tissue"	1.7				"35 - 46"	mm	"Shell length"																																"n=10 Pooled; Less industrial activity"	2017/9/27	2017/9/27
PRA000042	SAA002377	ST009	6550			"Yeongil Bay_Pohang M-2"	"Mytilus edulis"	"Blue mussel"	2005							Asia	Korea	"Yeongil Bay, Pohang"	35.991998	36.105747	129.383822	129.551267		"Whole soft tissue"	0.93				"42 - 52"	mm	"Shell length"																																"n=50 Pooled; Industrial complex"	2017/9/27	2017/9/27
PRA000042	SAA002378	ST009	6550			Guryongpo	"Mytilus edulis"	"Blue mussel"	2005							Asia	Korea	Guryongpo	35.982171	35.99088	129.552113	129.567192		"Whole soft tissue"	1.5				"45 - 58"	mm	"Shell length"																																"n=58 Pooled; Less industrial activity"	2017/9/27	2017/9/27
PRA000042	SAA002379	ST009	6550			"Welseong B"	"Mytilus edulis"	"Blue mussel"	2005							Asia	Korea	Welseong	35.71249	35.744088	129.473832	129.480208		"Whole soft tissue"	1.8				"53 - 68"	mm	"Shell length"																																"n=49 Pooled; Nuclear power plant"	2017/9/27	2017/9/27
PRA000042	SAA002380	ST009	6550			"Ulsan Bay_M-8"	"Mytilus edulis"	"Blue mussel"	2005							Asia	Korea	"Ulsan Bay"	35.471723	35.543636	129.356992	129.412547		"Whole soft tissue"	1				"54 - 77"	mm	"Shell length"																																"n=42 Pooled; Industrial complex"	2017/9/27	2017/9/27
PRA000042	SAA002381	ST009	6550			"Ulsan Bay_M-6"	"Mytilus edulis"	"Blue mussel"	2005							Asia	Korea	"Ulsan Bay"	35.471723	35.543636	129.356992	129.412547		"Whole soft tissue"	2.1				"45 - 65"	mm	"Shell length"																																"n=42 Pooled; Industrial complex"	2017/9/27	2017/9/27
PRA000042	SAA002382	ST009	6550			"Onsan Bay_M-1"	"Mytilus edulis"	"Blue mussel"	2005							Asia	Korea	"Onsan Bay"	35.438997	35.469979	129.341166	129.370395		"Whole soft tissue"	0.81				"55 - 71"	mm	"Shell length"																																"n=49 Pooled; Industrial complex"	2017/9/27	2017/9/27
PRA000042	SAA002383	ST009	6550			"Onsan Bay_M-2"	"Mytilus edulis"	"Blue mussel"	2005							Asia	Korea	"Onsan Bay"	35.438997	35.469979	129.341166	129.370395		"Whole soft tissue"	1.8				"50 - 70"	mm	"Shell length"																																"n=43 Pooled; Industrial complex"	2017/9/27	2017/9/27
PRA000042	SAA002384	ST009	6550			"Kori_Ulju County A"	"Mytilus edulis"	"Blue mussel"	2005							Asia	Korea	"Kori, Ulju County"	35.318071	35.331722	129.28175	129.312848		"Whole soft tissue"	2.1				"45 - 65"	mm	"Shell length"																																"n=44 Pooled; Nuclear power plant"	2017/9/27	2017/9/27
PRA000042	SAA002385	ST009	6550			"Busan Bay_M-1"	"Mytilus edulis"	"Blue mussel"	2005							Asia	Korea	"Busan Bay"	35.031915	35.129124	128.946326	129.126502		"Whole soft tissue"	2.3				"40 - 55"	mm	"Shell length"																																"n=10 Pooled; Industrial complex"	2017/9/27	2017/9/27
PRA000042	SAA002386	ST009	6550			Wonmunnpo_M-1	"Mytilus edulis"	"Blue mussel"	2005							Asia	Korea	Wonmunnpo	34.762668	34.970661	128.310296	128.477854		"Whole soft tissue"	2				"46 - 82"	mm	"Shell length"																																"n=32 Pooled; Farming areas"	2017/9/27	2017/9/27
PRA000042	SAA002387	ST009	6550			"Kohyonsong Bay_Geoje M-3"	"Mytilus edulis"	"Blue mussel"	2005							Asia	Korea	"Kohyonsong Bay, Geoje"	34.825577	35.033289	128.463717	128.750763		"Whole soft tissue"	1.4				"53 - 62"	mm	"Shell length"																																"n=37 Pooled; Shipyard, Farming areas"	2017/9/27	2017/9/27
PRA000042	SAA002388	ST009	6550			"Okpo Bay_M-2"	"Mytilus edulis"	"Blue mussel"	2005							Asia	Korea	"Okpo Bay"	34.883997	34.904103	128.696106	128.720357		"Whole soft tissue"	1.2				"51 - 81"	mm	"Shell length"																																"n=22 Pooled; Repairing shipyard"	2017/9/27	2017/9/27
PRA000042	SAA002389	ST009	6550			"Masan Bay_M-2"	"Mytilus edulis"	"Blue mussel"	2005							Asia	Korea	"Masan Bay"	35.137817	35.211717	128.587008	128.607937		"Whole soft tissue"	0.75				"38 - 62"	mm	"Shell length"																																"n=32 Pooled; Industrial complex"	2017/9/27	2017/9/27
PRA000042	SAA002390	ST009	6550			"Haengam Bay_Jinhae"	"Mytilus edulis"	"Blue mussel"	2005							Asia	Korea	"Haengam Bay, Jinhae"	35.096831	35.12546	128.67755	128.702301		"Whole soft tissue"	1.2				"41 - 58"	mm	"Shell length"																																"n=39 Pooled; Industrial area"	2017/9/27	2017/9/27
PRA000042	SAA002391	ST009	6550			"Gwangyang Bay"	"Mytilus edulis"	"Blue mussel"	2005							Asia	Korea	"Gwangyang Bay"	34.901103	34.965817	127.578645	127.76671		"Whole soft tissue"	0.86				"46 - 66"	mm	"Shell length"																																"n=44 Pooled; Industrial complex"	2017/9/27	2017/9/27
PRA000042	SAA002392	ST009	6550			"Gamak Bay_Yeosu"	"Mytilus edulis"	"Blue mussel"	2005							Asia	Korea	"Gamak Bay, Yeosu"	34.404401	34.888577	127.511499	127.802703		"Whole soft tissue"	1.3				"33 - 57"	mm	"Shell length"																																"n=10 Pooled; Coastal protected area"	2017/9/27	2017/9/27
PRA000042	SAA002393	ST009	6550			"Sacheon Bay_Sacheon"	"Mytilus edulis"	"Blue mussel"	2005							Asia	Korea	"Sacheon Bay, Sacheon"	35.023727	35.079191	128.019806	128.059989		"Whole soft tissue"	0.72				"37 - 55"	mm	"Shell length"																																"n=75 Pooled; Thermoelectric power plant"	2017/9/27	2017/9/27
PRA000042	SAA002394	ST009	6550			"Shihwa Lake_Incheon"	"Mytilus edulis"	"Blue mussel"	2005							Asia	Korea	"Shihwa Lake, Incheon"	37.253175	37.329087	126.578865	126.744541		"Whole soft tissue"	1.3				"35 - 67"	mm	"Shell length"																																"n=10 Pooled; Industrial area"	2017/9/27	2017/9/27
PRA000042	SAA002395	ST009	6550			"Garorim Bay_Dangjin"	"Mytilus edulis"	"Blue mussel"	2005							Asia	Korea	"Garorim Bay, Dangjin"	36.795087	37.060206	126.413168	126.856741		"Whole soft tissue"	1.2				"50 - 87"	mm	"Shell length"																																"n=17 Pooled; Farming area"	2017/9/27	2017/9/27
PRA000042	SAA002396	ST009	6550			"Chunsu Bay_Hongseong"	"Mytilus edulis"	"Blue mussel"	2005							Asia	Korea	"Chunsu Bay, Hongseong"	36.520935	36.591548	126.456191	126.49465		"Whole soft tissue"	0.95				"46 - 64"	mm	"Shell length"																																"n=46 Pooled; Influx of migratory birds"	2017/9/27	2017/9/27
PRA000042	SAA002397	ST009	73031			"Port Dicknon"	"Perna viridis"	"Asian green mussel"	2004							Asia	Malaysia	"Port Dicknon"	2.440408	2.603669	101.743455	101.856744		"Whole soft tissue"	0.28																																						"Pooled; Old port and refinery"	2017/9/27	2017/9/27
PRA000042	SAA002398	ST009	73031			"Pantai Lido_Johor Bahru"	"Perna viridis"	"Asian green mussel"	2004							Asia	Malaysia	"Pantai Lido, Johor Bahru"	1.457054		103.74703			"Whole soft tissue"	0.71																																						"Pooled; Port, Indusrial and urban area"	2017/9/27	2017/9/27
PRA000042	SAA002399	ST009	73031			"Pasir Puteh"	"Perna viridis"	"Asian green mussel"	2004							Asia	Malaysia	"Pasir Puteh"	5.890881	5.917307	102.469272	102.487977		"Whole soft tissue"	1.5																																						"Pooled; Port, Indusrial and urban area"	2017/9/27	2017/9/27
PRA000042	SAA002400	ST009	73031			"Sebatu "	"Perna viridis"	"Asian green mussel"	2004							Asia	Malaysia	"Sebatu "	2.109479	2.113466	102.461977	102.464577		"Whole soft tissue"	1.8																																						"Pooled; Rural area"	2017/9/27	2017/9/27
PRA000042	SAA002401	ST009	73031			Penang	"Perna viridis"	"Asian green mussel"	2005							Asia	Malaysia	Penang	5.230033	5.473407	100.177071	100.423838		"Whole soft tissue"	0.95																																						"Pooled; Port, Indusrial and urban area"	2017/9/27	2017/9/27
PRA000042	SAA002402	ST009	73031			Bacoor_Cavite	"Perna viridis"	"Asian green mussel"	2004							Asia	Philippines	"Bacoor, Cavite"	14.452118	14.475175	120.925641	120.970036		"Whole soft tissue"	0.85																																						"Pooled; Highly urbanized area"	2017/9/27	2017/9/27
PRA000042	SAA002403	ST009	73031			"Naic Cavite"	"Perna viridis"	"Asian green mussel"	2004							Asia	Philippines	"Naic Cavite"	14.309938	14.347352	120.730489	120.780857		"Whole soft tissue"	0.6																																						"Pooled; Suburban area"	2017/9/27	2017/9/27
PRA000042	SAA002404	ST009	73031			"Hai Phong"	"Perna viridis"	"Asian green mussel"	2004							Asia	Vietnam	"Hai Phong"	20.814166	20.875376	106.637402	106.759742		"Whole soft tissue"	0.8				"60 - 75"	mm	"Shell length"																																"n=103 Pooled; Harbor"	2017/9/27	2017/9/27
PRA000042	SAA002405	ST009	73031			"Quang Binh"	"Perna viridis"	"Asian green mussel"	2004							Asia	Vietnam	"Quang Binh"	17.166083	17.952169	106.445203	106.98831		"Whole soft tissue"	1.2				"45 - 90"	mm	"Shell length"																																"n=136 Pooled; Beach and tourist area"	2017/9/27	2017/9/27
PRA000042	SAA002406	ST009	73031			"Thanh Hoa"	"Perna viridis"	"Asian green mussel"	2004							Asia	Vietnam	"Thanh Hoa"	19.296326	19.966096	105.786765	106.021406		"Whole soft tissue"	1				"35 - 80"	mm	"Shell length"																																"n=123 Pooled; Beach and tourist area"	2017/9/27	2017/9/27
PRA000042	SAA002407	ST009	73031			"Hue "	"Perna viridis"	"Asian green mussel"	2004							Asia	Vietnam	"Hue "	16.209137	16.73985	107.392383	108.187518		"Whole soft tissue"	0.52				"75 - 110"	mm	"Shell length"																																"n=18 Pooled; Shrimp farming"	2017/9/27	2017/9/27
PRA000042	SAA002408	ST009	73031			"Nha Trang"	"Perna viridis"	"Asian green mussel"	2004							Asia	Vietnam	"Nha Trang"	12.143691	12.374175	109.196031	109.33564		"Whole soft tissue"	0.35				"85 - 95"	mm	"Shell length"																																"n=44 Pooled; Shrimp farming"	2017/9/27	2017/9/27
PRA000079	SAA004498	ST023				TP-1_53	Sediment	"Sediment Core"	2002	6	6					Asia	Japan	"Tokyo Bay"	35.58666667		139.8783333						17.65	"g wet"															13				"0 - 0.05"						81	12.3									"Ignition loss(%):at 600 ℃, 2h; Depositional age (year)(by <sup>210</sup>Pb method): 1998; Bulk dens(g/cm3): 1.11"	2018/11/8	2018/11/8
PRA000079	SAA004499	ST023				TP-1_56	Sediment	"Sediment Core"	2002	6	6					Asia	Japan	"Tokyo Bay"	35.58666667		139.8783333						15.86	"g wet"															13				"0.05 - 0.1"						73.8	11.3									"Ignition loss(%):at 600 ℃, 2h; Depositional age (year)(by <sup>210</sup>Pb method): 1989; Bulk dens(g/cm3): 11.16"	2018/11/8	2018/11/8
PRA000079	SAA004500	ST023				TP-1_59	Sediment	"Sediment Core"	2002	6	6					Asia	Japan	"Tokyo Bay"	35.58666667		139.8783333						15.7	"g wet"															13				"0.1 - 0.15"						73.9	10.8									"Ignition loss(%):at 600 ℃, 2h; Depositional age (year)(by <sup>210</sup>Pb method): 1979; Bulk dens(g/cm3): 11.17"	2018/11/8	2018/11/8
PRA000079	SAA004501	ST023				TP-1_62	Sediment	"Sediment Core"	2002	6	6					Asia	Japan	"Tokyo Bay"	35.58666667		139.8783333						16.7	"g wet"															13				"0.15 - 0.2"						70.9	9.7									"Ignition loss(%):at 600 ℃, 2h; Depositional age (year)(by <sup>210</sup>Pb method): 1968; Bulk dens(g/cm3): 11.19"	2018/11/8	2018/11/8
PRA000079	SAA004502	ST023				TP-1_67	Sediment	"Sediment Core"	2002	6	6					Asia	Japan	"Tokyo Bay"	35.58666667		139.8783333						16.36	"g wet"															13				"0.25 - 0.3"						67.9	8.2									"Ignition loss(%):at 600 ℃, 2h; Depositional age (year)(by <sup>210</sup>Pb method): 1943; Bulk dens(g/cm3): 11.22"	2018/11/8	2018/11/8
PRA000079	SAA004503	ST023				TP-1_69	Sediment	"Sediment Core"	2002	6	6					Asia	Japan	"Tokyo Bay"	35.58666667		139.8783333						16	"g wet"															13				"0.3 - 0.35"						66.5	7.8									"Ignition loss(%):at 600 ℃, 2h; Depositional age (year)(by <sup>210</sup>Pb method): 1930; Bulk dens(g/cm3): 11.23"	2018/11/8	2018/11/8
PRA000079	SAA004504	ST023				TP-1_71	Sediment	"Sediment Core"	2002	6	6					Asia	Japan	"Tokyo Bay"	35.58666667		139.8783333						17.25	"g wet"															13				"0.35 - 0.4"						65.4	7.8									"Ignition loss(%):at 600 ℃, 2h; Depositional age (year)(by <sup>210</sup>Pb method): 1915; Bulk dens(g/cm3): 11.23"	2018/11/8	2018/11/8
PRA000079	SAA004505	ST023				TP-4_106	Sediment	"Sediment Core"	2002	6	6					Asia	Japan	"Tokyo Bay"	35.545		139.9133333																						20				"0 - 0.05"						84.5	13.8									"Ignition loss(%):at 600 ℃, 2h; Depositional age (year)(by <sup>210</sup>Pb method): 2000; Bulk dens(g/cm3): 11.09"	2018/11/8	2018/11/8
PRA000079	SAA004506	ST023				TP-4_109	Sediment	"Sediment Core"	2002	6	6					Asia	Japan	"Tokyo Bay"	35.545		139.9133333																						20				"0.05 - 0.1"						77.9	12.5									"Ignition loss(%):at 600 ℃, 2h; Depositional age (year)(by <sup>210</sup>Pb method): 1995; Bulk dens(g/cm3): 11.14"	2018/11/8	2018/11/8
PRA000079	SAA004507	ST023				TP-4_111	Sediment	"Sediment Core"	2002	6	6					Asia	Japan	"Tokyo Bay"	35.545		139.9133333																						20				"0.1 - 0.15"						77.4	12.2									"Ignition loss(%):at 600 ℃, 2h; Depositional age (year)(by <sup>210</sup>Pb method): 1988; Bulk dens(g/cm3): 11.14"	2018/11/8	2018/11/8
PRA000079	SAA004508	ST023				TP-4_116	Sediment	"Sediment Core"	2002	6	6					Asia	Japan	"Tokyo Bay"	35.545		139.9133333																						20				"0.15 - 0.2"						77.3	11.9									"Ignition loss(%):at 600 ℃, 2h; Depositional age (year)(by <sup>210</sup>Pb method): 1982; Bulk dens(g/cm3): 11.14"	2018/11/8	2018/11/8
PRA000079	SAA004509	ST023				TP-4_118	Sediment	"Sediment Core"	2002	6	6					Asia	Japan	"Tokyo Bay"	35.545		139.9133333																						20				"0.2 - 0.25"						76.4	10.7									"Ignition loss(%):at 600 ℃, 2h; Depositional age (year)(by <sup>210</sup>Pb method): 1975; Bulk dens(g/cm3): 11.15"	2018/11/8	2018/11/8
PRA000079	SAA004510	ST023				TP-4_119	Sediment	"Sediment Core"	2002	6	6					Asia	Japan	"Tokyo Bay"	35.545		139.9133333																						20				"0.25 - 0.3"						76.6	11									"Ignition loss(%):at 600 ℃, 2h; Depositional age (year)(by <sup>210</sup>Pb method): 1968; Bulk dens(g/cm3): 11.15"	2018/11/8	2018/11/8
PRA000079	SAA004511	ST023				TP-4_121	Sediment	"Sediment Core"	2002	6	6					Asia	Japan	"Tokyo Bay"	35.545		139.9133333																						20				"0.3 - 0.35"						73.8	10.1									"Ignition loss(%):at 600 ℃, 2h; Depositional age (year)(by <sup>210</sup>Pb method): 1961; Bulk dens(g/cm3): 11.18"	2018/11/8	2018/11/8
PRA000079	SAA004512	ST023				TP-4_126	Sediment	"Sediment Core"	2002	6	6					Asia	Japan	"Tokyo Bay"	35.545		139.9133333																						20				"0.4 - 0.45"						75.3	9.9									"Ignition loss(%):at 600 ℃, 2h; Depositional age (year)(by <sup>210</sup>Pb method): 1945; Bulk dens(g/cm3): 11.16"	2018/11/8	2018/11/8
PRA000079	SAA004513	ST023				TP-5_29	Sediment	"Sediment Core"	2002	6	5					Asia	Japan	"Tokyo Bay"	35.52833333		139.9783333						15.25	"g wet"															19				"0 - 0.05"						81.9	12.4									"Ignition loss(%):at 600 ℃, 2h; Depositional age (year)(by <sup>210</sup>Pb method): 1999; Bulk dens(g/cm3): 11.12"	2018/11/8	2018/11/8
PRA000079	SAA004514	ST023				TP-5_30	Sediment	"Sediment Core"	2002	6	5					Asia	Japan	"Tokyo Bay"	35.52833333		139.9783333						15.03	"g wet"															19				"0.05 - 0.1"						76.2	12.2									"Ignition loss(%):at 600 ℃, 2h; Depositional age (year)(by <sup>210</sup>Pb method): 1992; Bulk dens(g/cm3): 11.16"	2018/11/8	2018/11/8
PRA000079	SAA004515	ST023				TP-5_35	Sediment	"Sediment Core"	2002	6	5					Asia	Japan	"Tokyo Bay"	35.52833333		139.9783333						15.16	"g wet"															19				"0.1 - 0.15"						75.1	11.3									"Ignition loss(%):at 600 ℃, 2h; Depositional age (year)(by <sup>210</sup>Pb method): 1984; Bulk dens(g/cm3): 11.17"	2018/11/8	2018/11/8
PRA000079	SAA004516	ST023				TP-5_36	Sediment	"Sediment Core"	2002	6	5					Asia	Japan	"Tokyo Bay"	35.52833333		139.9783333						15.12	"g wet"															19				"0.15 - 0.2"						74.6	11.2									"Ignition loss(%):at 600 ℃, 2h; Depositional age (year)(by <sup>210</sup>Pb method): 1975; Bulk dens(g/cm3): 11.17"	2018/11/8	2018/11/8
PRA000079	SAA004517	ST023				TP-5_39	Sediment	"Sediment Core"	2002	6	5					Asia	Japan	"Tokyo Bay"	35.52833333		139.9783333						15.92	"g wet"															19				"0.2 - 0.25"						71.1	9.9									"Ignition loss(%):at 600 ℃, 2h; Depositional age (year)(by <sup>210</sup>Pb method): 1966; Bulk dens(g/cm3): 11.2"	2018/11/8	2018/11/8
PRA000079	SAA004518	ST023				TP-5_43	Sediment	"Sediment Core"	2002	6	5					Asia	Japan	"Tokyo Bay"	35.52833333		139.9783333						15.41	"g wet"															19				"0.3 - 0.35"						67.9	9									"Ignition loss(%):at 600 ℃, 2h; Depositional age (year)(by <sup>210</sup>Pb method): 1945; Bulk dens(g/cm3): 11.24"	2018/11/8	2018/11/8
PRA000079	SAA004519	ST023				TP-5_45	Sediment	"Sediment Core"	2002	6	5					Asia	Japan	"Tokyo Bay"	35.52833333		139.9783333						15.22	"g wet"															19				"0.35 - 0.4"						66.7	8.5									"Ignition loss(%):at 600 ℃, 2h; Depositional age (year)(by <sup>210</sup>Pb method): 1933; Bulk dens(g/cm3): 11.25"	2018/11/8	2018/11/8
PRA000080	SAA004526	ST009	6564	es-BANK	EF05630	St.1_Oys-37	"Crassostrea sp."	Oyster	2005	5	14					Asia	Japan	"Ishikari-gawa River mouth, Hokkaido"	43.25803333	43.27386389	141.3631639	141.3721861		"Whole soft tissue"	1.2				"0.9 - 10.2 "	cm	"Shell length"																																"Pooled; Sampling location: St. 1"	2018/11/19	2018/11/19
PRA000080	SAA004527	ST009	29158	es-BANK	EF04165	St.1_Mus-03	"Mytilus galloprovincialis"	"Blue mussel"	2005	5	14					Asia	Japan	"Ishikari-gawa River, Hokkaido"	43.20676667	43.52913889	141.3299361	141.8824194		"Whole soft tissue"	1.1				"1.4 - 6.4"	cm	"Shell length"																																"Pooled; Sampling location: St. 1"	2018/11/19	2018/11/19
PRA000080	SAA004528	ST009	6564	es-BANK	EF05641	St.2_Oys-48	"Crassostrea sp."	Oyster	2005	11	10					Asia	Japan	"Aomori Port, Aomori"	40.83063333	40.86621111	140.6878139	140.837075		"Whole soft tissue"	1				"4 - 7.6 "	cm	"Shell length"																																"Pooled; Sampling location: St. 2"	2018/11/19	2018/11/19
PRA000080	SAA004529	ST009	6564	es-BANK	EF05637	St.3_Oys-44	"Crassostrea sp."	Oyster	2005	11	8					Asia	Japan	"Kamaishi Port, Iwate"	39.26333333	39.28611111	141.8983333	141.9038889		"Whole soft tissue"	1.4				"6.9 - 14.6 "	cm	"Shell length"																																"Pooled; Sampling location: St. 3"	2018/11/19	2018/11/19
PRA000080	SAA004530	ST009	6564	es-BANK	EF05636	St.4_Oys-43	"Crassostrea sp."	Oyster	2005	11	8					Asia	Japan	"Kesennuma Port, Miyagi"	38.90527778	38.90666667	141.5766667	141.5766667		"Whole soft tissue"	1.7				"4.3 - 8.9 "	cm	"Shell length"																																"Pooled; Sampling location: St. 4"	2018/11/19	2018/11/19
PRA000080	SAA004531	ST009	29158	es-BANK	EF06324	St.4_Mus-06	"Mytilus galloprovincialis"	"Blue mussel"	2005	11	8					Asia	Japan	"Kesennuma Port, Miyagi"	38.90527778	38.90666667	141.5766667	141.5766667		"Whole soft tissue"	2.4				"2.7 - 6.2"	cm	"Shell length"																																"Pooled; Sampling location: St. 4"	2018/11/19	2018/11/19
PRA000080	SAA004532	ST009	6564	es-BANK	EF05600	St.5_Oys-07	"Crassostrea sp."	Oyster	2005	8	6					Asia	Japan	"Toyama Port, Toyama"	36.76083333	36.77861111	137.1911111	137.2647222		"Whole soft tissue"	2.6				"2.3 - 8.2 "	cm	"Shell length"																																"Pooled; Sampling location: St. 5"	2018/11/19	2018/11/19
PRA000080	SAA004533	ST009	6564	es-BANK	EF05604	St.6_Oys-11	"Crassostrea sp."	Oyster	2005	8	7					Asia	Japan	"Tsuruga, Fukui"	35.65083333	35.80722222	135.9586111	136.1111111		"Whole soft tissue"	2.7				"1.6 - 6.5 "	cm	"Shell length"																																"Pooled; Sampling location: St. 6"	2018/11/19	2018/11/19
PRA000080	SAA004534	ST009	6564	es-BANK	EF05603	St.7_Oys-10	"Crassostrea sp."	Oyster	2005	6	29					Asia	Japan	"Tokyo Bay, Odaiba, Tokyo"	35.58166667	35.6375	139.7597222	139.855		"Whole soft tissue"	1.3				"1.6 - 6.5 "	cm	"Shell length"																																"Pooled; Sampling location: St. 7"	2018/11/19	2018/11/19
PRA000080	SAA004535	ST009	6564	es-BANK	EF05612	St.8_Oys-19	"Crassostrea sp."	Oyster	2005	8	6					Asia	Japan	"Ota-gawa River Mouth, Shizuoka"	34.65722222	34.68888889	137.8836111	137.9130556		"Whole soft tissue"	2				"1.6 - 6.7 "	cm	"Shell length"																																"Pooled; Sampling location: St. 8"	2018/11/19	2018/11/19
PRA000080	SAA004536	ST009	6564	es-BANK	EF05602	St.9_Oys-09	"Crassostrea sp."	Oyster	2005	8	8					Asia	Japan	"Nagoya Port, Aichi"	35.07444444	35.08638889	136.8711111	136.8886111		"Whole soft tissue"	1.7				"2.4 - 7.6 "	cm	"Shell length"																																"Pooled; Sampling location: St. 9"	2018/11/19	2018/11/19
PRA000080	SAA004537	ST009	6564	es-BANK	EF05610	St.10_Oys-17	"Crassostrea sp."	Oyster	2005	6	14					Asia	Japan	"Osaka South Port, Osaka"	34.60666667	34.67138889	135.3105556	135.4486111		"Whole soft tissue"	2.8				"0.7 - 6.7 "	cm	"Shell length"																																"Pooled; Sampling location: St. 10"	2018/11/19	2018/11/19
PRA000080	SAA004538	ST009	6564	es-BANK	EF05616	St.11_Oys-23	"Crassostrea sp."	Oyster	2005	6	14					Asia	Japan	"Front of Kaiyukan, Osaka"	34.63943333	34.672325	135.3870278	135.4400861		"Whole soft tissue"	2				"0.9 - 6.9 "	cm	"Shell length"																																"Pooled; Sampling location: St. 11"	2018/11/19	2018/11/19
PRA000080	SAA004539	ST009	6564	es-BANK	EF05595	St.12_Oys-02	"Crassostrea sp."	Oyster	2005	5	30					Asia	Japan	"Kobe Port, Hyogo"	34.56083333	34.62083333	135.0525	135.3125		"Whole soft tissue"	3.4				"2.8 - 8.7 "	cm	"Shell length"																																"Pooled; Sampling location: St. 12"	2018/11/19	2018/11/19
PRA000080	SAA004540	ST009	6564	es-BANK	EF05617	St.13_Oys-24	"Crassostrea sp."	Oyster	2005	6	18					Asia	Japan	"Himeji, Hyogo"	34.713075	34.77719722	134.5728972	134.7587194		"Whole soft tissue"	3.3				"1.3 - 10.7 "	cm	"Shell length"																																"Pooled; Sampling location: St. 13"	2018/11/19	2018/11/19
PRA000080	SAA004541	ST009	29158	es-BANK	EF04166	St.13_Mus-01	"Mytilus galloprovincialis"	"Blue mussel"	2005	6	18					Asia	Japan	"Himeji, Hyogo"	34.713075	34.77719722	134.5728972	134.7587194		"Whole soft tissue"	1.9				"6.6 - 9.3"	cm	"Shell length"																																"Pooled; Sampling location: St. 13"	2018/11/19	2018/11/19
PRA000080	SAA004542	ST009	6564	es-BANK	EF05618	St.14_Oys-25	"Crassostrea sp."	Oyster	2005	6	25					Asia	Japan	"Ujina Port, Hiroshima"	34.33361111	34.36138889	132.3836111	132.4969444		"Whole soft tissue"	3.2				"2.2 - 7.9 "	cm	"Shell length"																																"Pooled; Sampling location: St. 14"	2018/11/19	2018/11/19
PRA000080	SAA004543	ST009	6564	es-BANK	EF05628	St.15_Oys-35	"Crassostrea sp."	Oyster	2005	6	24					Asia	Japan	"Kure Port, Hiroshima"	34.23583333	34.23972222	132.5455556	132.5569444		"Whole soft tissue"	2.7				"3 - 8.1 "	cm	"Shell length"																																"Pooled; Sampling location: St. 15"	2018/11/19	2018/11/19
PRA000080	SAA004544	ST009	6564	es-BANK	EF05625	St.16_Oys-32	"Crassostrea sp."	Oyster	2005	6	26					Asia	Japan	"Edomari Port, Hofu, Yamaguchi"	34.03217778	34.04163333	131.5970333	131.6019		"Whole soft tissue"	2.9				"1.2 - 8.3 "	cm	"Shell length"																																"Pooled; Sampling location: St. 16"	2018/11/19	2018/11/19
PRA000080	SAA004545	ST009	6564	es-BANK	EF05623	St.17_Oys-30	"Crassostrea sp."	Oyster	2005	6	26					Asia	Japan	"Hagi Port, Yamagichi"	34.41831667	34.42974722	131.3650889	131.4070722		"Whole soft tissue"	3.1				"2.6 - 9 "	cm	"Shell length"																																"Pooled; Sampling location: St. 17"	2018/11/19	2018/11/19
PRA000080	SAA004546	ST009	29158	es-BANK	EF04167	St.17_Mus-02	"Mytilus galloprovincialis"	"Blue mussel"	2005	6	26					Asia	Japan	"Hagi Port, Yamagichi"	34.41831667	34.42974722	131.3650889	131.4070722		"Whole soft tissue"	1.1				"4.3 - 8.7"	cm	"Shell length"																																"Pooled; Sampling location: St. 17"	2018/11/19	2018/11/19
PRA000080	SAA004547	ST009	6564	es-BANK	EF05615	St.18_Oys-22	"Crassostrea sp."	Oyster	2005	6	25					Asia	Japan	"Horie Port, Ehime"	33.9206	33.93695	132.7529972	132.7605028		"Whole soft tissue"	2.7				"3.7 - 7.5 "	cm	"Shell length"																																"Pooled; Sampling location: St. 18"	2018/11/19	2018/11/19
PRA000080	SAA004548	ST009	6564	es-BANK	EF05605	St.19_Oys-12	"Crassostrea sp."	Oyster	2005	6	24					Asia	Japan	"Kochi Port, Kochi"	33.45055556	33.48083333	133.5405556	133.615		"Whole soft tissue"	3.5				"1.9 - 7.1 "	cm	"Shell length"																																"Pooled; Sampling location: St. 19"	2018/11/19	2018/11/19
PRA000080	SAA004549	ST009	6564	es-BANK	EF05594	St.20_Oys-01	"Crassostrea sp."	Oyster	2005	7	13					Asia	Japan	"Front of Fukuoka Dome, Fukuoka"	33.59751111	33.59799444	130.3552306	130.3633833		"Whole soft tissue"	2.6				"2.8 - 5.7 "	cm	"Shell length"																																"Pooled; Sampling location: St. 20"	2018/11/19	2018/11/19
PRA000080	SAA004550	ST009	6564	es-BANK	EF05627	St.21_Oys-34	"Crassostrea sp."	Oyster	2005	7	31					Asia	Japan	"Minamata Bay, Kumamoto"	32.14694444	32.24333333	130.2266667	130.3525		"Whole soft tissue"	2.2				"1 - 8.3 "	cm	"Shell length"																																"Pooled; Sampling location: St. 21"	2018/11/19	2018/11/19
PRA000080	SAA004551	ST009	6564	es-BANK	EF05633	St.22_Oys-40	"Crassostrea sp."	Oyster	2005	10	11					Asia	Japan	"Okutakejima Port, Okinawa"	26.12583333	26.13194444	127.7691667	127.7797222		"Whole soft tissue"	2.2				"2.2 - 6.5 "	cm	"Shell length"																																"Pooled; Sampling location: St. 22"	2018/11/19	2018/11/19
PRA000086	SAA004921	ST026				GH13-1-2	Soil	"Surface soil (e-waste burning spot/open-burning area)"	2013	8						Africa	Ghana	"Agbogbloshie e-waste site"	5.5519917		-0.2283139						0.61	g																											0-0.02									2019/4/11	2019/4/11
PRA000086	SAA004922	ST026				GH13-1-6	Soil	"Surface soil (e-waste burning spot/open-burning area)"	2013	8						Africa	Ghana	"Agbogbloshie e-waste site"	5.5522944		-0.2280222						0.95	g																											0-0.02									2019/4/11	2019/4/11
PRA000086	SAA004923	ST026				GH13-1-10	Soil	"Surface soil (e-waste burning spot/open-burning area)"	2013	8						Africa	Ghana	"Agbogbloshie e-waste site"	5.5521194		-0.22815						1.09	g																											0-0.02									2019/4/11	2019/4/11
PRA000086	SAA004924	ST026				GH13-2-5	Soil	"Surface soil (e-waste burning spot/open-burning area)"	2013	8						Africa	Ghana	"Agbogbloshie e-waste site"	5.5517222		-0.2277556						0.64	g																											0-0.02									2019/4/11	2019/4/11
PRA000086	SAA004925	ST026				GH13-2-8	Soil	"Surface soil (e-waste burning spot/open-burning area)"	2013	8						Africa	Ghana	"Agbogbloshie e-waste site"	5.5514417		-0.2280528						0.53	g																											0-0.02									2019/4/11	2019/4/11
PRA000086	SAA004926	ST026				GH13-2-10	Soil	"Surface soil (e-waste burning spot/open-burning area)"	2013	8						Africa	Ghana	"Agbogbloshie e-waste site"	5.5516778		-0.2279028						1	g																											0-0.02									2019/4/11	2019/4/11
PRA000086	SAA004927	ST026				GH13-3-1	Soil	"Surface soil (e-waste burning spot/open-burning area)"	2013	8						Africa	Ghana	"Agbogbloshie e-waste site"	5.550925		-0.2264861						0.86	g																											0-0.02									2019/4/11	2019/4/11
PRA000086	SAA004928	ST026				GH13-3-6	Soil	"Surface soil (e-waste burning spot/open-burning area)"	2013	8						Africa	Ghana	"Agbogbloshie e-waste site"	5.5508333		-0.2261222						0.52	g																											0-0.02									2019/4/11	2019/4/11
PRA000086	SAA004929	ST026				GH13-3-9	Soil	"Surface soil (e-waste burning spot/open-burning area)"	2013	8						Africa	Ghana	"Agbogbloshie e-waste site"	5.5512694		-0.2262194						0.53	g																											0-0.02									2019/4/11	2019/4/11
PRA000086	SAA004930	ST026				GH13-4-1	Soil	"Surface soil (e-waste burning spot/open-burning area)"	2013	8						Africa	Ghana	"Agbogbloshie e-waste site"	5.5509722		-0.2253361						0.57	g																											0-0.02									2019/4/11	2019/4/11
PRA000086	SAA004931	ST026				GH13-4-3	Soil	"Surface soil (e-waste burning spot/open-burning area)"	2013	8						Africa	Ghana	"Agbogbloshie e-waste site"	5.5513417		-0.2252583						0.31	g																											0-0.02									2019/4/11	2019/4/11
PRA000086	SAA004932	ST026				GH13-4-8	Soil	"Surface soil (e-waste burning spot/open-burning area)"	2013	8						Africa	Ghana	"Agbogbloshie e-waste site"	5.5503333		-0.225325						0.83	g																											0-0.02									2019/4/11	2019/4/11
PRA000086	SAA004933	ST026				GH13-5-6	Soil	"Surface soil (common solid waste burning spot)"	2013	8						Africa	Ghana	"Agbogbloshie e-waste site"	5.554225		-0.2287972						0.71	g																											0-0.02									2019/4/11	2019/4/11
PRA000086	SAA004934	ST026				GH13-5-8	Soil	"Surface soil (common solid waste burning spot)"	2013	8						Africa	Ghana	"Agbogbloshie e-waste site"	5.5540417		-0.2285306						0.59	g																											0-0.02									2019/4/11	2019/4/11
PRA000086	SAA004935	ST026				GH13-5-10	Soil	"Surface soil (common solid waste burning spot)"	2013	8						Africa	Ghana	"Agbogbloshie e-waste site"	5.5539556		-0.228775						0.61	g																											0-0.02									2019/4/11	2019/4/11
PRA000086	SAA004936	ST026				GH13-6-1	Soil	"Surface soil (dismantling area)"	2013	8						Africa	Ghana	"Agbogbloshie e-waste site"	5.5540167		-0.2250833						1.06	g																											0-0.02									2019/4/11	2019/4/11
PRA000086	SAA004937	ST026				GH13-6-2	Soil	"Surface soil (dismantling area)"	2013	8						Africa	Ghana	"Agbogbloshie e-waste site"	5.5539056		-0.2249972						1.08	g																											0-0.02									2019/4/11	2019/4/11
PRA000086	SAA004938	ST026				GH13-6-3	Soil	"Surface soil (dismantling area)"	2013	8						Africa	Ghana	"Agbogbloshie e-waste site"	5.5537222		-0.2247944						1.9	g																											0-0.02									2019/4/11	2019/4/11
PRA000086	SAA004939	ST026				GH13-6-4	Soil	"Surface soil (dismantling area)"	2013	8						Africa	Ghana	"Agbogbloshie e-waste site"	5.55355		-0.224725						1.08	g																											0-0.02									2019/4/11	2019/4/11
PRA000086	SAA004940	ST026				GH13-6-6	Soil	"Surface soil (dismantling area)"	2013	8						Africa	Ghana	"Agbogbloshie e-waste site"	5.5535389		-0.2250806						1.06	g																											0-0.02									2019/4/11	2019/4/11
PRA000086	SAA004941	ST026				GH13-6-7	Soil	"Surface soil (dismantling area)"	2013	8						Africa	Ghana	"Agbogbloshie e-waste site"	5.5534		-0.2252806						1.08	g																											0-0.02									2019/4/11	2019/4/11
PRA000086	SAA004942	ST026				GH13-6-8	Soil	"Surface soil (dismantling area)"	2013	8						Africa	Ghana	"Agbogbloshie e-waste site"	5.5532167		-0.2255861						1.1	g																											0-0.02									2019/4/11	2019/4/11
PRA000086	SAA004943	ST026				GH13-6-10	Soil	"Surface soil (dismantling area)"	2013	8						Africa	Ghana	"Agbogbloshie e-waste site"	5.5527861		-0.2254028						0.45	g																											0-0.02									2019/4/11	2019/4/11
PRA000086	SAA004944	ST026				GH13-6-14	Soil	"Surface soil (dismantling area)"	2013	8						Africa	Ghana	"Agbogbloshie e-waste site"	5.5521333		-0.22605						0.49	g																											0-0.02									2019/4/11	2019/4/11
PRA000086	SAA004945	ST026				GH13-6-15	Soil	"Surface soil (dismantling area)"	2013	8						Africa	Ghana	"Agbogbloshie e-waste site"	5.5524361		-0.2264417						1.04	g																											0-0.02									2019/4/11	2019/4/11
PRA000086	SAA004946	ST026				GH13-7-2	Soil	"Surface soil (dismantling area)"	2013	8						Africa	Ghana	"Agbogbloshie e-waste site"	5.5533306		-0.226825						1.1	g																											0-0.02									2019/4/11	2019/4/11
PRA000086	SAA004947	ST026				GH13-7-5	Soil	"Surface soil (dismantling area)"	2013	8						Africa	Ghana	"Agbogbloshie e-waste site"	5.5539361		-0.2266694						1.02	g																											0-0.02									2019/4/11	2019/4/11
PRA000086	SAA004948	ST026				GH13-7-7	Soil	"Surface soil (dismantling area)"	2013	8						Africa	Ghana	"Agbogbloshie e-waste site"	5.5544		-0.2266306						1.13	g																											0-0.02									2019/4/11	2019/4/11
PRA000086	SAA004949	ST026				GH13-7-9	Soil	"Surface soil (Other area)"	2013	8						Africa	Ghana	"Agbogbloshie e-waste site"	5.5546167		-0.22615						1.22	g																											0-0.02									2019/4/11	2019/4/11
PRA000086	SAA004950	ST026				GH13-102	Soil	"Surface soil (dismantling area)"	2013	8						Africa	Ghana	"Agbogbloshie e-waste site"	5.5527972		-0.2262111						1.1	g																											0-0.02									2019/4/11	2019/4/11
PRA000086	SAA004951	ST026				GH13-109	Soil	"Surface soil (e-waste burning spot/open-burning area)"	2013	8						Africa	Ghana	"Agbogbloshie e-waste site"	5.5520278		-0.2250028						0.45	g																											0-0.02									2019/4/11	2019/4/11
PRA000086	SAA004952	ST026				GH13-110	Soil	"Surface soil (Other area)"	2013	8						Africa	Ghana	"Agbogbloshie e-waste site"	5.5500056		-0.2256389						0.56	g																											0-0.02									2019/4/11	2019/4/11
PRA000086	SAA004953	ST026				GH13-113	Soil	"Surface soil (Other area)"	2013	8						Africa	Ghana	"Agbogbloshie e-waste site"	5.5489194		-0.2252556						0.79	g																											0-0.02									2019/4/11	2019/4/11
PRA000086	SAA004954	ST026				GH13-114	Soil	"Surface soil (Other area)"	2013	8						Africa	Ghana	"Agbogbloshie e-waste site"	5.5499139		-0.2261417						0.41	g																											0-0.02									2019/4/11	2019/4/11
PRA000086	SAA004955	ST026				GH13-116	Soil	"Surface soil (Other area)"	2013	8						Africa	Ghana	"Agbogbloshie e-waste site"	5.5504083		-0.2264917						0.75	g																											0-0.02									2019/4/11	2019/4/11
PRA000086	SAA004956	ST026				GH13-119	Soil	"Surface soil (e-waste burning spot/open-burning area)"	2013	8						Africa	Ghana	"Agbogbloshie e-waste site"	5.5515778		-0.226775						1.03	g																											0-0.02									2019/4/11	2019/4/11
PRA000086	SAA004957	ST026				GH13-123	Soil	"Surface soil (Other area)"	2013	8						Africa	Ghana	"Agbogbloshie e-waste site"	5.5523111		-0.2287444						0.96	g																											0-0.02									2019/4/11	2019/4/11
PRA000086	SAA004958	ST026				GH13-125	Soil	"Surface soil (Other area)"	2013	8						Africa	Ghana	"Agbogbloshie e-waste site"	5.5527778		-0.2292556						0.64	g																											0-0.02									2019/4/11	2019/4/11
PRA000086	SAA004959	ST026				GH13-126	Soil	"Surface soil (Other area)"	2013	8						Africa	Ghana	"Agbogbloshie e-waste site"	5.55405		-0.2293278						0.52	g																											0-0.02									2019/4/11	2019/4/11
PRA000086	SAA004960	ST026				GH13-128	Soil	"Surface soil (Other area)"	2013	8						Africa	Ghana	"Agbogbloshie e-waste site"	5.5540528		-0.227775						0.79	g																											0-0.02									2019/4/11	2019/4/11
PRA000086	SAA004961	ST026				GH13-129	Soil	"Surface soil (Other area)"	2013	8						Africa	Ghana	"Agbogbloshie e-waste site"	5.5544083		-0.2273972						0.58	g																											0-0.02									2019/4/11	2019/4/11
PRA000101	SAA007139	ST009	157729			SP-5-O_2017	"Saccostrea mordax"	"Small rock oyster"	2017	8	4					Asia	Japan	"Gusuku, Nago City, Okinawa"	26.58727778		127.9801389			"Whole soft tissues"	2.1																																							2020/6/8	2020/6/8
PRA000101	SAA007140	ST009	157729			SP-7-O_2017	"Saccostrea mordax"	"Small rock oyster"	2017	8	4					Asia	Japan	"Onna Village, Okinawa"	26.50908333		127.8738333			"Whole soft tissues"	2.1																																							2020/6/8	2020/6/8
PRA000101	SAA007141	ST009	157729			SP-8-O_2017	"Saccostrea mordax"	"Small rock oyster"	2017	8	4					Asia	Japan	"Onna Village, Okinawa"	26.44736111		127.8030278			"Whole soft tissues"	1.8																																							2020/6/8	2020/6/8
PRA000101	SAA007142	ST009	157729			SP-9-O_2017	"Saccostrea mordax"	"Small rock oyster"	2017	8	4					Asia	Japan	"Onna Village, Okinawa"	26.438		127.7631667			"Whole soft tissues"	1.9																																							2020/6/8	2020/6/8
PRA000101	SAA007143	ST009	157729			SP-10-O_2017	"Saccostrea mordax"	"Small rock oyster"	2017	8	4					Asia	Japan	"Uruma City, Okinawa"	26.42780556		127.8323333			"Whole soft tissues"	2.5																																							2020/6/8	2020/6/8
PRA000101	SAA007144	ST009	157729			SP-11-O_2017	"Saccostrea mordax"	"Small rock oyster"	2017	8	4					Asia	Japan	"Okinawa City, Okinawa"	26.3235		127.8351111			"Whole soft tissues"	5.1																																							2020/6/8	2020/6/8
PRA000101	SAA007145	ST009	157729			SP-12-O_2017	"Saccostrea mordax"	"Small rock oyster"	2017	8	4					Asia	Japan	"Kadena Town, Okinawa"	26.36238889		127.7468889			"Whole soft tissues"	1.9																																							2020/6/8	2020/6/8
PRA000101	SAA007146	ST009	157729			SP-13-O_2017	"Saccostrea mordax"	"Small rock oyster"	2017	8	4					Asia	Japan	"Chatan Town, Okinawa"	26.32188889		127.755			"Whole soft tissues"	2.1																																							2020/6/8	2020/6/8
PRA000101	SAA007147	ST009	157729			SP-14-O_2017	"Saccostrea mordax"	"Small rock oyster"	2017	8	4					Asia	Japan	"Chatan Town, Okinawa"	26.29711111		127.7576944			"Whole soft tissues"	2.1																																							2020/6/8	2020/6/8
PRA000101	SAA007148	ST009	157729			SP-15-O_2017	"Saccostrea mordax"	"Small rock oyster"	2017	8	4					Asia	Japan	"Urasoe City, Okinawa"	26.27219444		127.7231111			"Whole soft tissues"	1.3																																							2020/6/8	2020/6/8
PRA000101	SAA007149	ST009	157729			SP-16-O_2017	"Saccostrea mordax"	"Small rock oyster"	2017	8	4					Asia	Japan	"Urasoe City, Okinawa"	26.24461111		127.6795			"Whole soft tissues"	1.9																																							2020/6/8	2020/6/8
PRA000101	SAA007150	ST009	157729			SP-17-O_2017	"Saccostrea mordax"	"Small rock oyster"	2017	8	4					Asia	Japan	"Naha City, Okinawa"	26.23080556		127.6803889			"Whole soft tissues"	2.4																																							2020/6/8	2020/6/8
PRA000101	SAA007151	ST009	157729			SP-18-O_2017	"Saccostrea mordax"	"Small rock oyster"	2017	8	4					Asia	Japan	"Naha City, Okinawa"	26.22702778		127.68075			"Whole soft tissues"	1.3																																							2020/6/8	2020/6/8
PRA000101	SAA007152	ST009	157729			SP-19-O_2017	"Saccostrea mordax"	"Small rock oyster"	2017	8	4					Asia	Japan	"Naha City, Okinawa"	26.22719444		127.6808056			"Whole soft tissues"	2.1																																							2020/6/8	2020/6/8
PRA000101	SAA007153	ST009	157729			SP-20-O_2017	"Saccostrea mordax"	"Small rock oyster"	2017	8	4					Asia	Japan	"Naha City, Okinawa"	26.20869444		127.6753889			"Whole soft tissues"	1.8																																							2020/6/8	2020/6/8
PRA000101	SAA007154	ST009	157729			SP-21-O_2017	"Saccostrea mordax"	"Small rock oyster"	2017	8	4					Asia	Japan	"Nanjo City, Okinawa"	26.182		127.7786944			"Whole soft tissues"	2																																							2020/6/8	2020/6/8
PRA000101	SAA007155	ST009	157729			SP-22-O_2017	"Saccostrea mordax"	"Small rock oyster"	2017	8	4					Asia	Japan	"Itoman City, Okinawa"	26.12988889		127.6683056			"Whole soft tissues"	2.2																																							2020/6/8	2020/6/8
PRA000101	SAA007156	ST009	157729			SP-1-O_2018	"Saccostrea mordax"	"Small rock oyster"	2018	5	26					Asia	Japan	"Ginama, Kunigami Village, Okinawa"	26.84938889		128.2525			"Whole soft tissues"	1.2																																							2020/6/8	2020/6/8
PRA000101	SAA007158	ST009	157729			SP-4-O_2018	"Saccostrea mordax"	"Small rock oyster"	2018	5	26					Asia	Japan	"Ada, Kunigami Village, Okinawa"	26.74138889		128.3188056			"Whole soft tissues"	1.5																																							2020/6/8	2020/6/8
PRA000101	SAA007160	ST009	157729			SP-6-O_2018	"Saccostrea mordax"	"Small rock oyster"	2018	5	26					Asia	Japan	"Teima, Nago City, Okinawa"	26.55133333		128.0637222			"Whole soft tissues"	0.53																																							2020/6/8	2020/6/8
PRA000101	SAA007162	ST009	157729			SP-7-O_2018	"Saccostrea mordax"	"Small rock oyster"	2018	5	25					Asia	Japan	"Onna Village, Okinawa"	26.50908333		127.8738333			"Whole soft tissues"	1.4																																							2020/6/8	2020/6/8
PRA000101	SAA007164	ST009	157729			SP-12-O_2018	"Saccostrea mordax"	"Small rock oyster"	2018	5	25					Asia	Japan	"Kadena Town, Okinawa"	26.36238889		127.7468889			"Whole soft tissues"	1.6																																							2020/6/8	2020/6/8
PRA000101	SAA007166	ST009	157729			SP-22-O_2018	"Saccostrea mordax"	"Small rock oyster"	2018	5	25					Asia	Japan	"Kadena Town, Okinawa"	26.12988889		127.6683056			"Whole soft tissues"	1.2																																							2020/6/8	2020/6/8
PRA000101	SAA007168	ST009	157729			SP-2-O_2018	"Saccostrea mordax"	"Small rock oyster"	2018	5	26					Asia	Japan	"Kunigami Village, Okinawa"	26.84980556		128.2533056			"Whole soft tissues"	1.7																																							2020/6/8	2020/6/8
PRA000101	SAA007169	ST009	157729			SP-3-O_2018	"Saccostrea mordax"	"Small rock oyster"	2018	5	26					Asia	Japan	"Hentona, Kunigami Village, Okinawa"	26.74880556		128.1763889			"Whole soft tissues"	0.9																																							2020/6/8	2020/6/8
PRA000101	SAA007170	ST009	157729			SP-1-O_2019	"Saccostrea mordax"	"Small rock oyster"	2019	7	2					Asia	Japan	"Ginama, Kunigami Village, Okinawa"	26.84938889		128.2525			"Whole soft tissues"	2	82																																						2020/6/8	2020/6/8
PRA000101	SAA007174	ST009	157729			SP-20-O_2019	"Saccostrea mordax"	"Small rock oyster"	2019	7	3					Asia	Japan	"Naha City, Okinawa"	26.20869444		127.6753889			"Whole soft tissues"	0.62	90																																						2020/6/8	2020/6/8
PRA000101	SAA007178	ST009	157729			SP-5-O_2019	"Saccostrea mordax"	"Small rock oyster"	2019	7	2					Asia	Japan	"Nago City, Okinawa"	26.58727778		127.9801389			"Whole soft tissues"	1.8	82																																						2020/6/8	2020/6/8
PRA000101	SAA007180	ST009	157729			SP-10-O_2019	"Saccostrea mordax"	"Small rock oyster"	2019	7	2					Asia	Japan	"Uruma City, Okinawa"	26.42780556		127.8323333			"Whole soft tissues"	1.4	86																																						2020/6/8	2020/6/8
PRA000101	SAA007182	ST009	157729			SP-21-O_2019	"Saccostrea mordax"	"Small rock oyster"	2019	7	1					Asia	Japan	"Nanjo City, Okinawa"	26.182		127.7786944			"Whole soft tissues"	1.6	83																																						2020/6/8	2020/6/8
PRA000106	SAA007452	ST033				UI-H1	Air	"Air in an urban house"	2013	3	6			"39 days(Jan. 27_Mar.06)"		Asia	Vietnam	"Linh Dam Urban Area, Hoang Mai, Hanoi City"	20.96311111		105.8321389																																										"Samling: Bedroom of a 9th floor apartment, near window; Average temperature (Jan.-Mar. 2013):20 ℃; "	2020/10/12	2020/10/12
PRA000106	SAA007453	ST033				UI-H2	Air	"Air in an urban house"	2013	2	27			"31 days(Jan. 28_Feb.27)"		Asia	Vietnam	"Co Nhue Urban Area, Bac Tu Liem, Hanoi City"	21.06272222		105.7816389																																										"Sampling spot: Bedroom/living room of a 2nd floor apartment in urban area; Average temperature (Jan.-Mar. 2013):20 ℃"	2020/10/12	2020/10/12
PRA000106	SAA007454	ST033				UI-H3	Air	"Air in an urban house"	2013	2	27			"34 days(Jan. 25_Feb.27)"		Asia	Vietnam	"Van Quan Urban Area, Ha Dong, Hanoi City"	20.96527778		105.7718056																																										"Sampling spot: Living room on 2nd floor of a house in urban area; Average temperature (Jan.-Mar. 2013):20 ℃"	2020/10/12	2020/10/12
PRA000106	SAA007455	ST033				UI-OF	Air	"Air in an urban house"	2013	2	25			"33 days(Jan. 24_Feb.25)"		Asia	Vietnam	"VNU Univ. of Science, Thanh Xuan, Hanoi City"	20.28063889		105.808																																										"Sampling spot: University office on 3rd floor in urban area; Average temperature (Jan.-Mar. 2013):20 ℃"	2020/10/12	2020/10/12
PRA000106	SAA007456	ST029				UO-R	Air	"Air in urban residential area"	2013	2	25			"32 days(Jan. 25_Feb.25)"		Asia	Vietnam	"Le Van Luong Street, Thanh Xuan, Hanoi City"	21.00486111		105.8032222																																										"Sampling spot: Balcony on 4th floor of a house located in residential area with high population density; Average temperature (Jan.-Mar. 2013):20 ℃"	2020/10/12	2020/10/12
PRA000106	SAA007457	ST029				"UO-M "	Air	"Air in urban mixed land-use area"	2015	11	11			"38 days(Sep. 30_Nov.11)"		Asia	Vietnam	"VNU Univ. of Science, Thanh Xuan, Hanoi City"	20.28063889		105.808																																										"Sampling spot: Garden side of 3rd floor located in a mixed land-use area comprising institutional, residential and industrial (tobacco, rubber, soap) uses with high traffic density; Average temperature (Sep.-Nov. 2015):27 ℃"	2020/10/12	2020/10/12
PRA000106	SAA007458	ST029				ELV-0	Air	"Air in rural area"	2015	11	6			"39 days(Sep. 29_Nov.06)"		Asia	Vietnam	"Thuyen Village, Bac Giang City"	21.28063889		106.2333611																																										"Samling spot: Background garden of a rural house, far from ELV processing area; Average temperature (Sep.-Nov. 2015):27 ℃"	2020/10/12	2020/10/12
PRA000106	SAA007459	ST028				ELV-1	Air	"Air in semi-open ELV workshop"	2013	2	26			"48 days(Jan. 10_Feb.26)"		Asia	Vietnam	"Thuyen Village, Bac Giang City"	21.27836667		106.23105																																										"Sampling spot: Background semi-open workshops reinforced by steel frames and corrugated sheets and household backyards with ELV processing activities such as dismantling, metal scrapping, stockpiling vehicular parts, and disposing less valuable materials (e.g. by open burning); Average temperature (Jan.-Mar. 2013):20 ℃"	2020/10/12	2020/10/12
PRA000106	SAA007460	ST028				ELV-2	Air	"Air in semi-open ELV workshop"	2013	2	26			"48 days(Jan. 10_Feb.26)"		Asia	Vietnam	"Thuyen Village, Bac Giang City"	21.27981667		106.23165																																										"Sampling spot: Background semi-open workshops reinforced by steel frames and corrugated sheets and household backyards with ELV processing activities such as dismantling, metal scrapping, stockpiling vehicular parts, and disposing less valuable materials (e.g., by open burning); Average temperature (Jan.-Mar. 2013):20 ℃"	2020/10/12	2020/10/12
PRA000106	SAA007461	ST028				ELV-3	Air	"Air in semi-open ELV workshop"	2013	2	26			"48 days(Jan. 10_Feb.26)"		Asia	Vietnam	"Thuyen Village, Bac Giang City"	21.28038889		106.2339444																																										"Sampling spot: Background semi-open workshops reinforced by steel frames and corrugated sheets and household backyards with ELV processing activities such as dismantling, metal scrapping, stockpiling vehicular parts, and disposing less valuable materials (e.g., by open burning); Average temperature (Jan.-Mar. 2013):20 ℃"	2020/10/12	2020/10/12
PRA000106	SAA007462	ST028				PR	Air	"Air in semi-open plastic recycling facility"	2013	2	26			"49 days(Jan. 09_Feb.26)"		Asia	Vietnam	"Tan Cuong Commune, Thai Nguyen City"	21.53286111		105.7489722																																										"Sampling spot: Semi-open workshop with steel frames and corrugated sheets. Obsolete plastic products were crushed into small pieces by mechanical method and then pressed into a heated extruder for pelletization; Average temperature (Jan.-Mar. 2013):20 ℃"	2020/10/12	2020/10/12
PRA000106	SAA007463	ST028				OR-1	Air	"Air in semi-open oil refining facility"	2013	2	26			"49 days(Jan. 09_Feb.26)"		Asia	Vietnam	"Tan Cuong Commune, Thai Nguyen City"	21.53288889		105.7479167																																										"Sampling spot: Semi-open workshops with steel frames and corrugated sheets. Industrial and vehicular waste oils were collected, classified, and treated by chemical separation to recover original oils or to produce industrial burning oils; Average temperature (Jan.-Mar. 2013):20 ℃"	2020/10/12	2020/10/12
PRA000106	SAA007464	ST028				OR-2	Air	"Air in semi-open oil refining facility"	2013	2	26			"49 days(Jan. 09_Feb.26)"		Asia	Vietnam	"Tan Cuong Commune, Thai Nguyen City"	21.53288889		105.7479167																																										"Sampling spot: Semi-open workshops with steel frames and corrugated sheets. Industrial and vehicular waste oils were collected, classified, and treated by chemical separation to recover original oils or to produce industrial burning oils; Average temperature (Jan.-Mar. 2013):20 ℃"	2020/10/12	2020/10/12
PRA000106	SAA007465	ST028				RM-1	Air	"Air in semi-open rubber melting facility"	2013	2	26			"49 days(Jan. 09_Feb.26)"		Asia	Vietnam	"Tan Cuong Commune, Thai Nguyen City"	21.53216667		105.7494167																																										"Sampling spot: Semi-open workshops with steel frames and corrugated sheets. Rubber tires were pyrolized to recover carbon black and to produce industrial burning oils; Average temperature (Jan.-Mar. 2013):20 ℃"	2020/10/12	2020/10/12
PRA000106	SAA007466	ST028				RM-2	Air	"Air in semi-open rubber melting facility"	2013	2	26			"49 days(Jan. 09_Feb.26)"		Asia	Vietnam	"Tan Cuong Commune, Thai Nguyen City"	21.53216667		105.7494167																																										"Sampling spot: Semi-open workshops with steel frames and corrugated sheets. Rubber tires were pyrolized to recover carbon black and to produce industrial burning oils; Average temperature (Jan.-Mar. 2013):20 ℃"	2020/10/12	2020/10/12
PRA000107	SAA007467	ST031				HN-RD-1	Air	"Road dust (Urban)"	2016	8	10					Asia	Vietnam	"Tran Nhat Duat, Hoan Kiem, Hanoi"	21.03527778	21.03888889	105.8519444	105.8541667																																									"Pooled (n=4); Coodinates: 1_1:N 21.03888889  E 105.8519444; 1_2:N 21.03722222  E 105.8530556; 1_3:N 21.03666667  E 105.8536111; 1_4:N 21.03527778  E 105.8541667; Sampling spot: Residential/Commercial/Motorbikes and car repairing shops; Traffic: Asphalt, High traffic (bus, cars, motorbikes); "	2020/10/26	2020/10/26
PRA000107	SAA007468	ST031				HN-RD-3	Air	"Road dust (Urban)"	2016	8	8					Asia	Vietnam	"Le Thanh Tong (school yard), Hoan Kiem, Hanoi"	21.02083333	21.02416667	105.8575	105.8586111																																									"Pooled (n=4); Coodinates: 3_1:N 21.02416667  E 105.8575; 3_2:N 21.02083333  E 105.8586111; 3_3:N 21.02111111  E 105.8583333; 3_4:N 21.02083333  E 105.8583333; Sampling spot: Universities; Traffic: Concrete, Meium traffic, Car and motorbike park;"	2020/10/26	2020/10/26
PRA000107	SAA007469	ST031				HN-RD-8	Air	"Road dust (Urban)"	2016	9	16					Asia	Vietnam	"Tran Khanh Du, Hai Ba Trung, Hanoi"	21.01916667	21.02555556	105.8597222	105.8619444																																									"Pooled (n=4); Coodinates: 8_1:N 21.02555556  E 105.8597222; 8_2:N 21.02333333  E 105.8608333; 8_3:N 21.02166667  E 105.8613889; 8_4:N 21.01916667  E 105.8619444; Sampling spot: Low residential/Commercial/Constructing; Traffic: High traffic, Car park, Bus station; "	2020/10/26	2020/10/26
PRA000107	SAA007470	ST031				HN-RD-11	Air	"Road dust (Urban)"	2016	9	16					Asia	Vietnam	"Tran Khat Chan, Hai Ba Trung, Hanoi"	21.00861111	21.00916667	105.8533333	105.8561111																																									"Pooled (n=5); Coodinates: 11_1:N 21.00861111  E 105.8533333; 11_2:N 21.00861111  E 105.8536111; 11_3:N 21.00888889  E 105.855; 11_4:N 21.00916667  E 105.8555556; 11_5:N 21.00916667  E 105.8561111; Sampling spot: Residential/Commercial; Traffic: High traffic (bus, cars, motorbikes)/Car park; "	2020/10/26	2020/10/26
PRA000107	SAA007471	ST031				HN-RD-13	Air	"Road dust (Urban)"	2016	8	30					Asia	Vietnam	"Minh Khai, Hai Ba Trung, Hanoi"	20.995	20.99694444	105.8491667	105.8575																																									"Pooled (n=5); Coodinates: 13_1:N 20.99583333  E 105.85; 13_2:N 20.99694444  E 105.8491667; 13_3:N 20.99666667  E 105.8533333; 13_4:N 20.99555556  E 105.8538889; 13_5:N 20.995  E 105.8575; Sampling spot: Commercial/Residential/Schools/Local markets/Wood furniture shops; Traffic: High traffic (bus, cars, motorbikes); "	2020/10/26	2020/10/26
PRA000107	SAA007472	ST031				HN-RD-17	Air	"Road dust (Urban)"	2016	9	14					Asia	Vietnam	"Kim Ma, Ba Dinh, Hanoi"	21.03111111	21.03277778	105.8177778	105.8233333																																									"Pooled (n=5); Coodinates: 17_1:N 21.03166667  E 105.8233333; 17_2:N 21.03277778  E 105.8219444; 17_3:N 21.03111111  E 105.8208333; 17_4:N 21.03111111  E 105.8194444; 17_5:N 21.03111111  E 105.8177778; Sampling spot: Commercial/Residential/Office buildings; Traffic: High traffic (bus, cars, motorbikes); "	2020/10/26	2020/10/26
PRA000107	SAA007473	ST031				HN-RD-20	Air	"Road dust (Urban)"	2016	8	18					Asia	Vietnam	"Ton Duc Thang, Dong Da, Hanoi"	21.01972222	21.02944444	105.8305556	105.8355556																																									"Pooled (n=5); Coodinates: 20_1:N 21.02944444  E 105.8355556; 20_2:N 21.02944444  E 105.835; 20_3:N 21.02805556  E 105.8344444; 20_4:N 21.02138889  E 105.8313889; 20_5:N 21.01972222  E 105.8305556; Sampling spot: Commercial/Residential; Traffic: High traffic (cars, bus, motorbikes); "	2020/10/26	2020/10/26
PRA000107	SAA007474	ST031				HN-RD-22	Air	"Road dust (Urban)"	2016	9	14					Asia	Vietnam	"Nguyen Chi Thanh, Dong Da, Hanoi"	21.02388889	21.02833333	105.8105556	105.8122222																																									"Pooled (n=5); Coodinates: 22_1:N 21.02833333  E 105.8122222; 22_2:N 21.0275  E 105.8119444; 22_3:N 21.02666667  E 105.8116667; 22_4:N 21.02444444  E 105.8108333; 22_5:N 21.02388889  E 105.8105556; Sampling spot: Commercial/Residential; Traffic: High traffic (cars, bus, motorbikes); "	2020/10/26	2020/10/26
PRA000107	SAA007475	ST031				HN-RD-24	Air	"Road dust (Urban)"	2016	8	18					Asia	Vietnam	"Nguyen Luong Bang - Tay Son, Dong Da, Hanoi"	21.02722222	21.03222222	105.825	105.8280556																																									"Pooled (n=5); Coodinates: 24_1:N 21.03222222  E 105.8280556; 24_2:N 21.03083333  E 105.8275; 24_3:N 21.03  E 105.8266667; 24_4:N 21.02805556  E 105.8255556; 24_5:N 21.02722222  E 105.825; Sampling spot: Residential/Commercial/Near universities; Traffic:High traffic(cars, bus, motorbikes)"	2020/10/26	2020/10/26
PRA000107	SAA007476	ST031				HN-RD-26	Air	"Road dust (Urban)"	2016	9	16					Asia	Vietnam	"Giai Phong, Dong Da, Hanoi"	21.00194444	21.00472222	105.8413889	105.8413889																																									"Pooled (n=5); Coodinates: 26_1:N 21.00444444  E 105.8411111; 26_2:N 21.00472222  E 105.8413889; 26_3:N 21.00305556  E 105.8413889; 26_4:N 21.00194444  E 105.8413889; 26_5:N 21.00222222  E 105.8413889; Sampling spot: Residential/Commercial; Traffic:High traffic (bus, cars, motorbikes)/Giap Bat bus station; "	2020/10/26	2020/10/26
PRA000107	SAA007477	ST031				HN-RD-29	Air	"Road dust (Urban)"	2016	9	17					Asia	Vietnam	"Cau Giay, Cau Giay, Hanoi"	21.03333333	21.03694444	105.7894444	105.7922222																																									"Pooled (n=5); Coodinates: 29_1:N 21.03333333  E 105.7905556; 29_2:N 21.03361111  E 105.7894444; 29_3:N 21.03583333  E 105.7913889; 29_4:N 21.03611111  E 105.7919444; 29_5:N 21.03694444  E 105.7922222; Sampling spot: Residential/Commercial/Constructing; Traffic: High traffic (cars, bus, motorbikes); "	2020/10/26	2020/10/26
PRA000107	SAA007478	ST031				HN-RD-30	Air	"Road dust (Urban)"	2016	9	17					Asia	Vietnam	"Pham Van Dong, Cau Giay, Hanoi"	21.04722222	21.05111111	105.7811111	105.7816667																																									"Pooled (n=5); Coodinates: 30_1:N 21.04722222  E 105.7811111; 30_2:N 21.04805556  E 105.7813889; 30_3:N 21.04777778  E 105.7813889; 30_4:N 21.04972222  E 105.7816667; 30_5:N 21.05111111  E 105.7816667; Sampling spot: Residential/Commercial/Constructing; Traffic:High traffic (trucks, cars, motorbikes); "	2020/10/26	2020/10/26
PRA000107	SAA007479	ST031				HN-RD-33	Air	"Road dust (Urban)"	2016	9	17					Asia	Vietnam	"Pham Hung, Cau Giay, Hanoi"	21.03222222	21.03361111	105.7777778	105.78																																									"Pooled (n=5); Coodinates: 33_1:N 21.03361111  E 105.78; 33_2:N 21.03333333  E 105.7777778; 33_3:N 21.03361111  E 105.7780556; 33_4:N 21.03305556  E 105.7777778; 33_5:N 21.03222222  E 105.7797222; Sampling spot: Low residential/Highrise buildings; Traffic: High traffic (bus, cars, motorbikes);  My Dinh bus station; "	2020/10/26	2020/10/26
PRA000107	SAA007480	ST031				HN-RD-34	Air	"Road dust (Urban)"	2016	9	5					Asia	Vietnam	"Tran Duy Hung, Cau Giay, Hanoi"	21.01111111	21.0125	105.8	105.8016667																																									"Pooled (n=5); Coodinates: 34_1:N 21.01111111  E 105.8; 34_2:N 21.01138889  E 105.8002778; 34_3:N 21.0125  E 105.8016667; 34_4:N 21.01222222  E 105.8013889; 34_5:N 21.01166667  E 105.8008333; Sampling spot: Commercial/Residential; Traffic: High traffic (bus, cars, motorbikes); "	2020/10/26	2020/10/26
PRA000107	SAA007481	ST031				HN-RD-37	Air	"Road dust (Urban)"	2016	8	18					Asia	Vietnam	"Nguyen Trai (road), Thanh Xuan, Hanoi"	20.99694444	20.99972222	105.8111111	105.8152778																																									"Pooled (n=5); Coodinates: 37_1:N 20.99972222  E 105.8152778; 37_2:N 20.99861111  E 105.8130556; 37_3:N 20.99833333  E 105.8133333; 37_4:N 20.99722222  E 105.8113889; 37_5:N 20.99694444  E 105.8111111; Sampling spot: Residential/Commercial/Constructing; Traffic: High traffic (cars, bus, motorbikes); "	2020/10/26	2020/10/26
PRA000107	SAA007482	ST031				HN-RD-51	Air	"Road dust (Urban)"	2016	9	17					Asia	Vietnam	"Nguyen Van Cu, Long Bien, Hanoi"	21.04194444	21.04555556	105.8686111	105.8752778																																									"Pooled (n=5); Coodinates: 51_1:N 21.04222222  E 105.8705556; 51_2:N 21.04194444  E 105.8686111; 51_3:N 21.04305556  E 105.8688889; 51_4:N 21.04416667  E 105.8752778; 51_5:N 21.04555556  E 105.875; Sampling spot: Residential/Commercial; Traffic: High traffic (bus, cars, motorbikes); "	2020/10/26	2020/10/26
PRA000107	SAA007483	ST031				TN-RD-1	Air	"Road dust (Industrial zone)"	2016	9	7					Asia	Vietnam	"Cach Mang Thang 10, Thang Loi Ward, Song Cong City, Thai Nguyen province"	21.47583333	21.47638889	105.8311111	105.8319444																																									"Pooled (n=4); Coodinates: 1_1:N 21.47583333  E 105.8311111; 1_2:N 21.47611111  E 105.8313889; 1_3:N 21.47638889  E 105.8316667; 1_4:N 21.47638889  E 105.8319444; Sampling spot: Residential/Industrial (Song Cong I Industrial Park); Traffic: Asphalt (Main road);  Medium traffic (trucks, cars and motorbikes); "	2020/10/26	2020/10/26
PRA000107	SAA007484	ST031				TN-RD-2	Air	"Road dust (Industrial zone)"	2016	9	7					Asia	Vietnam	"Cach Mang Thang 10, Luong Chau Ward, Song Cong City, Thai Nguyen province"	21.47555556	21.47583333	105.8294444	105.8302778																																									"Pooled (n=4); Coodinates: 2_1:N 21.47583333  E 105.8302778; 2_2:N 21.47555556  E 105.83; 2_3:N 21.47555556  E 105.8297222; 2_4:N 21.47555556  E 105.8294444; Sampling spot: Residential/Industrial; Traffic: Medium traffic; "	2020/10/26	2020/10/26
PRA000107	SAA007485	ST031				TN-RD-3	Air	"Road dust (Industrial zone)"	2016	9	7					Asia	Vietnam	"3 Thang 2, Mo Che Ward, Song Cong City, Thai Nguyen province"	21.47388889	21.47388889	105.8277778	105.8283333																																									"Pooled (n=3); Coodinates: 3_1:N 21.47388889  E 105.8277778; 3_2:N 21.47388889  E 105.8280556; 3_3:N 21.47388889  E 105.8283333; Sampling spot: Residential/Industrial; Traffic: Medium traffic; "	2020/10/26	2020/10/26
PRA000107	SAA007486	ST031				TN-RD-4	Air	"Road dust (Industrial zone)"	2016	9	7					Asia	Vietnam	"3 Thang 2, Mo Che Ward, Song Cong City, Thai Nguyen province"	21.47	21.47	105.8277778	105.8280556																																									"Pooled (n=2); Coodinates: 4_1:N 21.47  E 105.8277778; 4_2:N 21.47  E 105.8280556; Sampling spot: Residential/Industrial; Traffic: Medium traffic; "	2020/10/26	2020/10/26
PRA000107	SAA007487	ST031				TN-RD-5	Air	"Road dust (Industrial zone)"	2016	9	7					Asia	Vietnam	"Cach Mang Thang 8, Thang Loi Ward, Song Cong City, Thai Nguyen province"	21.47138889	21.47166667	105.8425	105.8427778																																									"Pooled (n=2); Coodinates: 5_1:N 21.47166667  E 105.8425; 5_2:N 21.47138889  E 105.8427778; Sampling spot: Residential/Industrial; Traffic: Medium traffic; "	2020/10/26	2020/10/26
PRA000107	SAA007488	ST031				TN-RD-6	Air	"Road dust (Industrial zone)"	2016	9	7					Asia	Vietnam	"Cach Mang Thang 10, Bach Quang Ward, Song Cong City, Thai Nguyen province"	21.48222222		105.855																																										"Sampling spot: Residential/Industrial; Traffic: Medium traffic; "	2020/10/26	2020/10/26
PRA000107	SAA007489	ST031				TN-RD-7	Air	"Road dust (Industrial zone)"	2016	9	7					Asia	Vietnam	"Cach Mang Thang 10, Bach Quang Ward, Song Cong City, Thai Nguyen province"	21.48305556		105.8591667																																										"Sampling spot: Residential/Industrial; Traffic: Medium traffic; "	2020/10/26	2020/10/26
PRA000107	SAA007490	ST031				TN-RD-8	Air	"Road dust (Industrial zone)"	2016	9	7					Asia	Vietnam	"Cach Mang Thang 10, Bach Quang Ward, Song Cong City, Thai Nguyen province"	21.48166667	21.48222222	105.8663889	105.8663889																																									"Pooled (n=3); Coodinates: 8_1:N 21.48166667  E 105.8663889; 8_2:N 21.48194444  E 105.8663889; 8_3:N 21.48222222  E 105.8663889; Sampling spot: Residential/Industrial; Traffic: Medium traffic; "	2020/10/26	2020/10/26
PRA000107	SAA007491	ST031				TN-RD-9	Air	"Road dust (Industrial zone)"	2016	9	16					Asia	Vietnam	"Cach Mang Thang 10, Bach Quang Ward, Song Cong City, Thai Nguyen province"	21.48111111		105.8719444																																										"Sampling spot: Residential/Industrial; Traffic: Medium traffic; "	2020/10/26	2020/10/26
PRA000107	SAA007492	ST031				TN-RD-10	Air	"Road dust (Industrial zone)"	2016	9	16					Asia	Vietnam	"Cach Mang Thang 10, Bach Quang Ward, Song Cong City, Thai Nguyen province"	21.48166667		105.8697222																																										"Sampling spot: Residential/Industrial; Traffic: Medium traffic; "	2020/10/26	2020/10/26
PRA000107	SAA007493	ST031				BG-RD-1	Air	"Road dust (Rural)"	2016	8	10					Asia	Vietnam	"Way to rice fields, Mai Dinh Commune, Hiep Hoa District, Bac Giang province"	21.23611111	21.2375	105.9402778	105.9416667																																									"Pooled (n=5); Coodinates: 1_1:N 21.2375  E 105.9416667; 1_2:N 21.23722222  E 105.9413889; 1_3:N 21.23666667  E 105.9408333; 1_4:N 21.23638889  E 105.9408333; 1_5:N 21.23611111  E 105.9402778; Sampling spot: Agricultural/Residential; Traffic: Concrete, Low traffic (motorbikes); "	2020/10/26	2020/10/26
PRA000107	SAA007494	ST031				BG-RD-2	Air	"Road dust (Rural)"	2016	8	19					Asia	Vietnam	"Way to rice fields, Mai Dinh Commune, Hiep Hoa District, Bac Giang province"	21.24027778	21.24083333	105.9408333	105.9427778																																									"Pooled (n=5); Coodinates: 2_1:N 21.24083333  E 105.9427778; 2_2:N 21.24055556  E 105.9422222; 2_3:N 21.24055556  E 105.9416667; 2_4:N 21.24055556  E 105.9413889; 2_5:N 21.24027778  E 105.9408333; Sampling spot: Agricultural/Residential; Traffic: Concrete, Low traffic (motorbikes); "	2020/10/26	2020/10/26
PRA000107	SAA007495	ST031				BG-RD-3	Air	"Road dust (Rural)"	2016	8	19					Asia	Vietnam	"Way on rice fields, Mai Dinh Commune, Hiep Hoa District, Bac Giang province"	21.23583333	21.23694444	105.9444444	105.945																																									"Pooled (n=5); Coodinates: 3_1:N 21.23611111  E 105.945; 3_2:N 21.23583333  E 105.9447222; 3_3:N 21.23638889  E 105.9447222; 3_4:N 21.23666667  E 105.9444444; 3_5:N 21.23694444  E 105.9444444; Sampling spot: Residential, far from rice fields; Traffic: Concrete, Medium traffic (motorbikes);  "	2020/10/26	2020/10/26
PRA000107	SAA007496	ST031				BG-RD-5	Air	"Road dust (Rural)"	2016	8	27					Asia	Vietnam	"Way on rice fields, Mai Dinh Commune, Hiep Hoa District, Bac Giang province"	21.23722222	21.23944444	105.9386111	105.9405556																																									"Pooled (n=5); Coodinates: 5_1:N 21.23777778  E 105.9402778; 5_2:N 21.23722222  E 105.9405556; 5_3:N 21.23861111  E 105.9394444; 5_4:N 21.23888889  E 105.9391667; 5_5:N 21.23944444  E 105.9386111; Sampling spot: Agricultural; Traffic: Land, Low traffic; "	2020/10/26	2020/10/26
PRA000107	SAA007497	ST031				BG-RD-6	Air	"Road dust (Rural)"	2016	8	27					Asia	Vietnam	"Way on rice fields, Mai Dinh Commune, Hiep Hoa District, Bac Giang province"	21.23444444	21.235	105.9552778	105.9580556																																									"Pooled (n=5); Coodinates: 6_1:N 21.23444444  E 105.9561111; 6_2:N 21.23444444  E 105.9552778; 6_3:N 21.23444444  E 105.9569444; 6_4:N 21.23444444  E 105.9577778; 6_5:N 21.235  E 105.9580556; Sampling spot: Agricultural; Traffic: Land, Low traffic; "	2020/10/26	2020/10/26
PRA000111	SAA007595	ST004	103596	es-BANK	EW00086	820106-13	"Peponocephala electra"	"Melon-headed whale"	1982	1						Asia	Japan	"Aoshima, Miyazaki"	31.45	32.73333333	131.9163889	132.5502778	Male	Blubber	58		144.2	kg	236	cm	"Body length"	Immature	"12.5 y.o."																														"This sample is out of the same speciman as SAA002113."	2021/1/4	2021/1/4
PRA000111	SAA007596	ST004	103596	es-BANK	EW00089	820106-16	"Peponocephala electra"	"Melon-headed whale"	1982	1						Asia	Japan	"Aoshima, Miyazaki"	31.45	32.73333333	131.9163889	132.5502778	Male	Blubber	58		211.7	kg	258	cm	"Body length"	Mature																															"This sample is out of the same speciman as SAA002109."	2021/1/4	2021/1/4
PRA000111	SAA007597	ST004	103596	es-BANK	EW00090	820106-17	"Peponocephala electra"	"Melon-headed whale"	1982	1						Asia	Japan	"Aoshima, Miyazaki"	31.45	32.73333333	131.9163889	132.5502778	Male	Blubber	69		198.4	kg	251	cm	"Body length"	Mature	"37.5 y.o."																														"This sample is out of the same speciman as SAA002110."	2021/1/4	2021/1/4
PRA000111	SAA007598	ST004	103596	es-BANK	EW00091	820106-18	"Peponocephala electra"	"Melon-headed whale"	1982	1						Asia	Japan	"Aoshima, Miyazaki"	31.45	32.73333333	131.9163889	132.5502778	Male	Blubber	62		175.6	kg	247.5	cm	"Body length"	Mature	"24.5 y.o."																														"This sample is out of the same speciman as SAA002111."	2021/1/4	2021/1/4
PRA000111	SAA007599	ST004	103596	es-BANK	EW00093	820106-20	"Peponocephala electra"	"Melon-headed whale"	1982	1						Asia	Japan	"Aoshima, Miyazaki"	31.45	32.73333333	131.9163889	132.5502778	Male	Blubber	63		196.5	kg	247	cm	"Body length"	Mature	"41.5 y.o."																														"This sample is out of the same speciman as SAA002112."	2021/1/4	2021/1/4
PRA000111	SAA007600	ST004	103596	es-BANK	EW00113	M32623	"Peponocephala electra"	"Melon-headed whale"	2001	2	12					Asia	Japan	"Hasaki, Ibaraki"	35.73184444	35.82913333	140.7697722	140.8939278	Male	Blubber	70				270	cm	"Body length"	Mature																															"This sample is out of the same speciman as SAA002119."	2021/1/4	2021/1/4
PRA000111	SAA007601	ST004	103596	es-BANK	EW00121	M32632	"Peponocephala electra"	"Melon-headed whale"	2001	2	14					Asia	Japan	"Hasaki, Ibaraki"	35.73184444	35.82913333	140.7697722	140.8939278	Male	Blubber	67				249	cm	"Body length"	Mature																															"This sample is out of the same speciman as SAA002123."	2021/1/4	2021/1/4
PRA000111	SAA007602	ST004	103596	es-BANK	EW00124	M32654	"Peponocephala electra"	"Melon-headed whale"	2001	3	12					Asia	Japan	"Tanegashima, Kagoshima"	30.28055556	30.89444444	130.8252778	131.2708333	Male	Blubber	99				245.5	cm	"Body length"	Mature																															"This sample is out of the same speciman as SAA002124."	2021/1/4	2021/1/4
PRA000111	SAA007603	ST004	103596	es-BANK	EW00125	M32655	"Peponocephala electra"	"Melon-headed whale"	2001	3	12					Asia	Japan	"Tanegashima, Kagoshima"	30.28055556	30.89444444	130.8252778	131.2708333	Male	Blubber	85				253	cm	"Body length"	Mature																															"This sample is out of the same speciman as SAA002122."	2021/1/4	2021/1/4
PRA000111	SAA007604	ST004	103596	es-BANK	EW00127	M32677	"Peponocephala electra"	"Melon-headed whale"	2001	3	12					Asia	Japan	"Tanegashima, Kagoshima"	30.28055556	30.89444444	130.8252778	131.2708333	Male	Blubber	83				261	cm	"Body length"	Mature																															"This sample is out of the same speciman as SAA002120."	2021/1/4	2021/1/4
PRA000111	SAA007605	ST004	103596	es-BANK	EW00134	M32774	"Peponocephala electra"	"Melon-headed whale"	2002	2	25					Asia	Japan	"Hasaki, Ibaraki"	35.73184444	35.82913333	140.7697722	140.8939278	Male	Blubber	44				243	cm	"Body length"	Mature	"15.5 y.o."																														"This sample is out of the same speciman as SAA002125."	2021/1/4	2021/1/4
PRA000111	SAA007606	ST004	103596	es-BANK	EW04669	M32785	"Peponocephala electra"	"Melon-headed whale"	2002	2	25					Asia	Japan	"Hasaki, Ibaraki"	35.73184444	35.82913333	140.7697722	140.8939278	Male	Blubber	69				243	cm	"Body length"	Mature	"16.5 y.o."																														"This sample is out of the same speciman as SAA002126."	2021/1/4	2021/1/4
PRA000111	SAA007607	ST004	103596	es-BANK	EW04676	M32798	"Peponocephala electra"	"Melon-headed whale"	2002	2	25					Asia	Japan	"Hasaki, Ibaraki"	35.73184444	35.82913333	140.7697722	140.8939278	Male	Blubber	43				234	cm	"Body length"	Immature	"10.5 y.o."																														"This sample is out of the same speciman as SAA002127."	2021/1/4	2021/1/4
PRA000111	SAA007608	ST004	103596	es-BANK	EW04690	M32818	"Peponocephala electra"	"Melon-headed whale"	2002	2	25					Asia	Japan	"Hasaki, Ibaraki"	35.73184444	35.82913333	140.7697722	140.8939278	Male	Blubber	40				255	cm	"Body length"	Immature	"11.5 y.o."																														"This sample is out of the same speciman as SAA002121."	2021/1/4	2021/1/4
PRA000111	SAA007609	ST004	103596	es-BANK	EW04766	M34072	"Peponocephala electra"	"Melon-headed whale"	2006	1	23					Asia	Japan	"Asahi, Chiba"	35.70111111		140.7113889		Male	Blubber	66		224.05	kg	249	cm	"Body length"	Mature																															"This sample is out of the same speciman as SAA002157."	2021/1/4	2021/1/4
PRA000111	SAA007610	ST004	103596	es-BANK	EW04764	M34076	"Peponocephala electra"	"Melon-headed whale"	2006	1	23					Asia	Japan	"Asahi, Chiba"	35.70111111		140.7113889		Male	Blubber	49		229.05	kg	255.6	cm	"Body length"	Mature																															"This sample is out of the same speciman as SAA002155."	2021/1/4	2021/1/4
PRA000111	SAA007611	ST004	103596	es-BANK	EW04762	M34077	"Peponocephala electra"	"Melon-headed whale"	2006	1	23					Asia	Japan	"Asahi, Chiba"	35.70111111		140.7113889		Male	Blubber	51		137.5	kg	234	cm	"Body length"	Mature																															"This sample is out of the same speciman as SAA002156."	2021/1/4	2021/1/4
PRA000111	SAA007612	ST004	103596	es-BANK	EW04779	M34085	"Peponocephala electra"	"Melon-headed whale"	2006	2	28					Asia	Japan	"Torami coast, Torami, Ichinomiya, Chiba"	35.33	35.35972222	140.3919417	140.3979167	Male	Blubber	28				260	cm	"Body length"	Mature																															"This sample is out of the same speciman as SAA002159."	2021/1/4	2021/1/4
PRA000111	SAA007613	ST004	103596	es-BANK	EW04772	M34090	"Peponocephala electra"	"Melon-headed whale"	2006	2	28					Asia	Japan	"Torami coast, Torami, Ichinomiya, Chiba"	35.33	35.35972222	140.3919417	140.3979167	Male	Blubber	35				239	cm	"Body length"	Mature																															"This sample is out of the same speciman as SAA002158."	2021/1/4	2021/1/4
PRA000111	SAA007614	ST004	103596	es-BANK	EW04925	M34095	"Peponocephala electra"	"Melon-headed whale"	2006	2	28					Asia	Japan	"Torami coast, Torami, Ichinomiya, Chiba"	35.33	35.35972222	140.3919417	140.3979167	Male	Blubber	45				238	cm	"Body length"	Mature																																2021/1/4	2021/1/4
PRA000111	SAA007615	ST004	103596	es-BANK	EW04926	M34099	"Peponocephala electra"	"Melon-headed whale"	2006	2	28					Asia	Japan	"Torami coast, Torami, Ichinomiya, Chiba"	35.33	35.35972222	140.3919417	140.3979167	Male	Blubber	64				243	cm	"Body length"	Mature																																2021/1/4	2021/1/4
PRA000111	SAA007616	ST004	103596	es-BANK	EW05312	010104-10	"Peponocephala electra"	"Melon-headed whale"	2010	3	10					Asia	Japan	"Yakutsu Nagahama coast, Sakai, Nakatane town, Kumage-gun, Kagoshima"	30.49722222		130.8997222		Male	Blubber	62				237	cm	"Body length"																																	2021/1/4	2021/1/4
PRA000111	SAA007617	ST004	103596	es-BANK	EW05313	010104-11	"Peponocephala electra"	"Melon-headed whale"	2010	3	10					Asia	Japan	"Yakutsu Nagahama coast, Sakai, Nakatane town, Kumage-gun, Kagoshima"	30.49722222		130.8997222		Male	Blubber	66				250	cm	"Body length"																																	2021/1/4	2021/1/4
PRA000111	SAA007618	ST004	103596	es-BANK	EW05314	010104-33	"Peponocephala electra"	"Melon-headed whale"	2010	3	10					Asia	Japan	"Yakutsu Nagahama coast, Sakai, Nakatane town, Kumage-gun, Kagoshima"	30.49722222		130.8997222		Male	Blubber	79				247	cm	"Body length"																																	2021/1/4	2021/1/4
PRA000111	SAA007619	ST004	103596	es-BANK	EW05195	110306-01	"Peponocephala electra"	"Melon-headed whale"	2011	3	6					Asia	Japan	"Oritsu coast, Kashima city, Ibaraki"	35.98201389		140.6644722		Male	Blubber	41				262	cm	"Body length"	Mature																																2021/1/4	2021/1/4
PRA000111	SAA007620	ST004	103596	es-BANK	EW05201	110306-07	"Peponocephala electra"	"Melon-headed whale"	2011	3	6					Asia	Japan	"Oritsu coast, Kashima city, Ibaraki"	35.98201389		140.6644722		Male	Blubber	41				267.5	cm	"Body length"	Mature																																2021/1/4	2021/1/4
PRA000111	SAA007621	ST004	103596	es-BANK	EW05202	110306-08	"Peponocephala electra"	"Melon-headed whale"	2011	3	6					Asia	Japan	"Oritsu coast, Kashima city, Ibaraki"	35.98201389		140.6644722		Male	Blubber	45				256.3	cm	"Body length"	Mature																																2021/1/4	2021/1/4
PRA000111	SAA007622	ST004	103596	es-BANK	EW05179	110306-17	"Peponocephala electra"	"Melon-headed whale"	2011	3	6					Asia	Japan	"Oritsu coast, Kashima city, Ibaraki"	35.98201389		140.6644722		Male	Blubber	61		232.4	kg	259.7	cm	"Body length"	Mature																																2021/1/4	2021/1/4
PRA000111	SAA007623	ST004	103596	es-BANK	EW05183	110306-21	"Peponocephala electra"	"Melon-headed whale"	2011	3	6					Asia	Japan	"Oritsu coast, Kashima city, Ibaraki"	35.98201389		140.6644722		Male	Blubber	53		238	kg	261.8	cm	"Body length"	Mature																																2021/1/4	2021/1/4
PRA000111	SAA007624	ST004	103596	es-BANK	EW05189	110306-27	"Peponocephala electra"	"Melon-headed whale"	2011	3	6					Asia	Japan	"Oritsu coast, Kashima city, Ibaraki"	35.98201389		140.6644722		Male	Blubber	56		249.8	kg	270	cm	"Body length"	Mature																																2021/1/4	2021/1/4
PRA000111	SAA007625	ST004	103596	es-BANK	EW05184	110306-22	"Peponocephala electra"	"Melon-headed whale"	2011	3	6					Asia	Japan	"Oritsu coast, Kashima city, Ibaraki"	35.98201389		140.6644722		Male	Blubber	73		178	kg	263	cm	"Body length"	Mature																																2021/1/4	2021/1/4
PRA000111	SAA007626	ST004	103596	es-BANK	EW05714	Hokota-02	"Peponocephala electra"	"Melon-headed whale"	2015	4	11					Asia	Japan	"Kyochigma coast, Kamizawa, Hokota city, Ibaraki"	36.095289	36.098629	140.603402	140.605157	Male	Blubber	53				254.7	cm	"Body length"																																	2021/1/4	2021/1/4
PRA000111	SAA007627	ST004	103596	es-BANK	EW05717	Hokota-05	"Peponocephala electra"	"Melon-headed whale"	2015	4	11					Asia	Japan	"Kyochigma coast, Kamizawa, Hokota city, Ibaraki"	36.095289	36.098629	140.603402	140.605157	Male	Blubber	52				244	cm	"Body length"																																	2021/1/4	2021/1/4
PRA000111	SAA007628	ST004	103596	es-BANK	EW05725	Hokota-15	"Peponocephala electra"	"Melon-headed whale"	2015	4	11					Asia	Japan	"Kyochigma coast, Kamizawa, Hokota city, Ibaraki"	36.095289	36.098629	140.603402	140.605157	Male	Blubber	48		195.4	kg	255.3	cm	"Body length"																																	2021/1/4	2021/1/4
PRA000111	SAA007629	ST004	103596	es-BANK	EW05726	Hokota-16	"Peponocephala electra"	"Melon-headed whale"	2015	4	11					Asia	Japan	"Kyochigma coast, Kamizawa, Hokota city, Ibaraki"	36.095289	36.098629	140.603402	140.605157	Male	Blubber	49				252	cm	"Body length"																																	2021/1/4	2021/1/4
PRA000111	SAA007630	ST004	103596	es-BANK	EW05727	Hokota-17	"Peponocephala electra"	"Melon-headed whale"	2015	4	11					Asia	Japan	"Kyochigma coast, Kamizawa, Hokota city, Ibaraki"	36.095289	36.098629	140.603402	140.605157	Male	Blubber	62				253	cm	"Body length"																																	2021/1/4	2021/1/4
PRA000111	SAA007631	ST004	103596	es-BANK	EW05736	Hokota-26	"Peponocephala electra"	"Melon-headed whale"	2015	4	11					Asia	Japan	"Kyochigma coast, Kamizawa, Hokota city, Ibaraki"	36.095289	36.098629	140.603402	140.605157	Male	Blubber	50				255	cm	"Body length"																																	2021/1/4	2021/1/4
PRA000111	SAA007632	ST004	103596	es-BANK	EW05741	Hokota-31	"Peponocephala electra"	"Melon-headed whale"	2015	4	11					Asia	Japan	"Kyochigma coast, Kamizawa, Hokota city, Ibaraki"	36.095289	36.098629	140.603402	140.605157	Male	Blubber	53		184.5	kg	252.5	cm	"Body length"																																	2021/1/4	2021/1/4
PRA000116	SAA008166	ST029				Hokkaido_air3-1_2018	Air	"Outside air"	2018	10	12	2018-10-05T10:30/2018-10-12T09:40		"7days (Oct. 05_12)"	Fair/Fair	Asia	Japan	"Hokkaido Oshima Subprefecture, Hakodate city, Hokkaido"	41.81944444		140.7527778														22.7/19.3																								52/63	SE/WNW	8.6/7.8	"1007.7 m^3"	"Air Sampler: Middle Volume; Weather during 7-day sampling: Fair, -, -, -, Fair, Cloudy, Cloudy, Fair; Wind direction: SE, -, -, -, NW, NNW, NW, WNW; Wind speed: 8.6, -, -, -, 5.7, 2.4, 3.2, 7.8"	" 2021/6/4"	" 2021/6/4"
PRA000116	SAA008173	ST029				SapporoCity_air1-123_2018	Air	"Outside air"	2018	8						Asia	Japan	"Sapporo Art Park, Sapporo city, Hokkaido"	42.93861111		141.3402778																																										"Air Sampler: High Volume; n=3 pooled: SAA008170, SAA008171, SAA008172"	" 2021/6/4"	" 2021/6/4"
PRA000116	SAA008180	ST029				Iwate_air1-123_2018	Air	"Outside air"	2018	9						Asia	Japan	"Sugo Air Pollution Monitoring Station, Takizawa city, Iwate"	39.78194444		141.1405556																																										"Air Sampler: High Volume; n=3 pooled: SAA008177, SAA008178, SAA008179"	" 2021/6/4"	" 2021/6/4"
PRA000116	SAA008184	ST029				Miyagi_air1-1_2018	Air	"Outside air"	2018	9	14	2018-09-07T10:26/2018-09-14T10:26		"7days (Sep. 07_14)"	"Light rain/ Fair"	Asia	Japan	"Miyagi Prefectural Institute of Public Health and Environment, Sendai City, Miyagi"	38.2775		140.9052778														23.5/24.1																								82/72	SSW/SW	1.6/2.4	"1008 m^3"	"Air Sampler: Middle Volume; Weather during 7-day sampling: Light rain, -, -, Rain, Cloudy, Fair, Fair, Fair; Wind direction: SSW, -, -, NW, N, ESE, S, SW; Wind speed: 1.6, -, -, 1.6,  2.4, 4.2, 1.5, 2.4 "	" 2021/6/4"	" 2021/6/4"
PRA000116	SAA008188	ST029				Yamagata_air1-1_2018	Air	"Outside air"	2018	9	25	2018-09-18T11:16/2018-09-25T11:16		"7days (Sep. 18_25)"	Fair/Rain	Asia	Japan	"Environmental Science Research Center of Yamagata Prefecture, Murayama city, Yamagata"	38.47361111		140.3988889														22.0/15.1																								56/88	W/NE	0.9/1.4	"997.5 m^3"	"Air Sampler: Middle Volume; Weather during 7-day sampling: Fair, Fair, Cloudy, Cloudy, Cloudy, Fair, Cloudy, Rain; Wind direction: W, NE, SW, NE, S, SSW, SE, NE; Wind speed: 0.9, 1.0, 1.0, 1.1, 0.6, 0.5, 0.6, 1.4"	" 2021/6/4"	" 2021/6/4"
PRA000116	SAA008191	ST029				Ibaraki_air1-1_2018	Air	"Outside air"	2018	10	19	2018-10-12T09:30/2018-10-19T09:30		"7days (Oct. 12_19)"	Cloudy/Fair	Asia	Japan	"Ibaraki Kasumigaura Environmental Science Center, Tsuchiura city, Ibaraki"	36.07555556		140.2666667														19.0/19.0																								97/72	NE/NE	1.2/3.5	"1008 m^3"	"Air Sampler: Middle Volume; Weather during 7-day sampling: Coudy, Cloudy, Cloudy, Fair, Cloudy, Fair, Fair, Fair; Wind direction: NE, NNE, N, NE, N, NE, NE, NE; Wind speed: 1.2, 2.6, 2.0, 1.3, 1.0, 2.2, 2.5, 3.5"	" 2021/6/4"	" 2021/6/4"
PRA000116	SAA008195	ST029				Chiba_air2-1_2018	Air	"Outside air"	2018	10	5	2018-09-28T10:00/2018-10-05T10:00		"7days (Sep. 28_Oct. 05)"	Cloudy/Rain	Asia	Japan	"Ichiharamatsuzaki Air Pollution Monitoring Station, Ichihara city, Chiba"	35.44861111		140.1363889														22.3/18.8																								55/97	NNW/N	3.7/3.5	"1008 m^3"	"Air Sampler: Middle Volume; Weather during 7-day sampling: Cloudy, Rain, Rain, Fair, Fair, Cloudy, Cloudy, Rain; Wind direction: NNW, SSW, WNW, SW, N, NNW, NNE, N; Wind speed: 3.7, 0.7, 2.9, 2.7, 1.0, 1.4, 4.1, 3.5"	" 2021/6/4"	" 2021/6/4"
PRA000116	SAA008199	ST029				Tokyo_air1-4_2018	Air	"Outside air"	2018	9	26	2018-09-19T09:56/2018-09-26T10:07		"7days (Sep. 19_26)"	Fair/Cloudy	Asia	Japan	"Tokyo Metropolitan Research Institute for Environmental Protection, Koto Ward, Tokyo"	35.66833333		139.8241667														24.3/17.5																								59/98	NNE/NW	2.4/2.2	"1011 m^3"	"Air Sampler: Middle Volume; Weather during 7-day sampling: Fair, Cloudy, Rain, Rain, Cloudy, Cloudy, Cloudy, Cloudy; Wind direction: NNE, NW, NNW, NW, SE, NNW, ENE, NW; Wind speed: 2.4, 1.2, 3.2, 2.5, 1.5, 2.6, 2.1, 2.2"	" 2021/6/4"	" 2021/6/4"
PRA000116	SAA008203	ST029				Tokyo_air2-4_2018	Air	"Outside air"	2018	10	14	2018-10-07T10:02/2018-10-14T10:00		"7days (Oct. 07_14)"	Fair/Cloudy	Asia	Japan	"Ogasawara Chichijima, Ogasawara Village, Tokyo"	27.09361111		142.2161111														29.4/28.9																								78/75	SE/NW	4.1/2.0	"1015 m^3"	"Air Sampler: Middle Volume; Weather during 7-day sampling: Fair, Fair, Cloudy, Fair, Fair, Fair, Fair, Cloudy; Wind direction:SE, S, S, SE, ESE, SSE, S, NW ; Wind speed: 4.1, 3.5, 1.5, 4.3, 1.8, 5.2, 3.7, 2.0"	" 2021/6/4"	" 2021/6/4"
PRA000116	SAA008210	ST029				Kanagawa_air1-456_2018	Air	"Outside air"	2018	9						Asia	Japan	"Kanagawa Environmental Research Center, Hiratsuka City, Kanagawa"	35.3475		139.3513889																																										"Air Sampler: High Volume; n=3 pooled: SAA008207, SAA008208, SAA008209"	" 2021/6/4"	" 2021/6/4"
PRA000116	SAA008214	ST029				YokohamaCity_air1-4_2018	Air	"Outside air"	2018	10	9	2018-10-02T09:29/2018-10-09T09:40		"7days (Oct. 02_09)"	Fair/Fair	Asia	Japan	"Yokohama Environmental Research Institute, Yokohama city, Kanagawa"	35.48111111		139.6580556														25.2/24.8																								44/70	N/N	2.6/2.8	"1008 m^3"	"Air Sampler: Middle Volume; Weather during 7-day sampling: Fair, Cloudy, Cloudy, Rain, Cloudy, Fair, Cloudy, Fair; Wind direction: N, N, NNE, N, N, SW, NNE, N; Wind speed: 2.6, 3.3, 2.2, 4.4, 1.4, 6.0, 2.0, 2.8"	" 2021/6/4"	" 2021/6/4"
PRA000116	SAA008221	ST029				Niigata_air1-123_2018	Air	"Outside air"	2018	9						Asia	Japan	"Oyama Air Pollution Monitoring Station, Niigata city, Niigata"	37.93611111		139.0794444																																										"Air Sampler: High Volume; n=3 pooled: SAA008218, SAA008219, SAA008220"	" 2021/6/4"	" 2021/6/4"
PRA000116	SAA008228	ST029				Toyama_air1-123_2018	Air	"Outside air"	2018	9						Asia	Japan	"Tonami Air Pollution Monitoring Station, Tonami city, Toyama"	36.62888889		136.9886111																																										"Air Sampler: High Volume; n=3 pooled: SAA008225, SAA008226, SAA008227"	" 2021/6/4"	" 2021/6/4"
PRA000116	SAA008235	ST029				Ishikawa_air1-456_2018	Air	"Outside air"	2018	9						Asia	Japan	"Ishikawa Prefectural Institute of Public Health and Environmental Science, Kanazawa City, Ishikawa"	36.52722222		136.7055556																																										"Air Sampler: High Volume; n=3 pooled: SAA008232, SAA008233, SAA008234"	" 2021/6/4"	" 2021/6/4"
PRA000116	SAA008242	ST029				Yamanashi_air1-123_2018	Air	"Outside air"	2018	9						Asia	Japan	"Yamanashi Institute of Public Health and Environment, Kofu city, Yamanashi"	35.67194444		138.5497222																																										"Air Sampler: High Volume; n=3 pooled: SAA008239, SAA008240, SAA008241"	" 2021/6/4"	" 2021/6/4"
PRA000116	SAA008246	ST029				Nagano_air1-4_2018	Air	"Outside air"	2018	9	25	2018-09-18T10:00/2018-09-25T10:00		"7days (Sep. 18_25)"	Cloudy/Fair	Asia	Japan	"Nagano Environmental Conservation Research Institute, Nagano City, Nagano"	36.63555556		138.1786111														19.9/17.4																								77/100	ENE/E	1.3/2.6	"1008 m^3"	"Air Sampler: Middle Volume; Weather during 7-day sampling: Cloudy, Fair, Fair, Rain, Rain, Cloudy, Cloudy, Fair; Wind direction: ENE, S, SW, W, ENE, SSE, S, E; Wind speed: 1.3, 1.0, 2.6, 4.9, 0.9, 1.9, 2.5, 2.6"	" 2021/6/4"	" 2021/6/4"
PRA000116	SAA008253	ST029				Gifu_air1-123_2018	Air	"Outside air"	2018	9						Asia	Japan	"Gifu Prefectural Research Institute for Health and Environmental Sciences, Kakamigahara city, Gifu"	35.4075		136.8447222																																										"Air Sampler: High Volume; n=3 pooled: SAA008250, SAA008251, SAA008252"	" 2021/6/4"	" 2021/6/4"
PRA000116	SAA008257	ST029				NagoyaCity_air1-7_2018	Air	"Outside air"	2018	9	12	2018-09-05T10:56/2018-09-12T10:56		"7days (Sep. 05_12)"	"Fair/Rain occasionally cloudy"	Asia	Japan	"Chikusa-ku Heiwakoen Park, Nagoya City, Aichi"	35.17055556		136.9788889														27.5/21.3																								69/82	SSE/SSE	3.0/1.4	"1008 m^3"	"Air Sampler: Middle Volume; Weather during 7-day sampling: Fair, Fair, Cloudy, Cloudy, Cloudy, Rain, Cloudy, Rain occasionally cloudy; Wind direction: SSE, SSE, SSE, SSE, SSE, SE, S, SSE; Wind speed: 3.0, 2.3, 4.3, 3.1, 4.5, 3.0, 2.3, 1.4"	" 2021/6/4"	" 2021/6/4"
PRA000116	SAA008264	ST029				Mie_air1-789_2018	Air	"Outside air"	2018	9						Asia	Japan	"Mie Prefecture Health and Environment Research Institute, Yokkaichi city, Mie"	34.99166667		136.4855556																																										"Air Sampler: High Volume; n=3 pooled: SAA008261, SAA008262, SAA008263"	" 2021/6/4"	" 2021/6/4"
PRA000116	SAA008271	ST029				Kyoto_air1-123_2018	Air	"Outside air"	2018	10						Asia	Japan	"Kyoto Prefectural Joyo High School, Joyo city, Kyoto"	34.85305556		135.79																																										"Air Sampler: High Volume; n=3 pooled: SAA008268, SAA008269, SAA008270"	" 2021/6/4"	" 2021/6/4"
PRA000116	SAA008278	ST029				Osaka_air1-456_2018	Air	"Outside air"	2018	9						Asia	Japan	"Osaka Joint government building No.2 Annex, Osaka city, Osaka"	34.6825		135.5191667																																										"Air Sampler: High Volume; n=3 pooled: SAA008275, SAA008276, SAA008277"	" 2021/6/4"	" 2021/6/4"
PRA000116	SAA008285	ST029				Hyogo_air1-123_2018	Air	"Outside air"	2018	9						Asia	Japan	"Hyogo Prefectural Institute of Environmental Sciences, Kobe city, Hyogo"	34.64916667		135.1316667																																										"Air Sampler: High Volume; n=3 pooled: SAA008282, SAA008283, SAA008284"	" 2021/6/4"	" 2021/6/4"
PRA000116	SAA008292	ST029				KobeCity_air1-123_2018	Air	"Outside air"	2018	10						Asia	Japan	"Kobe City Hall, Kobe city, Hyogo"	34.68972222		135.195																																										"Air Sampler: High Volume; n=3 pooled: SAA008289, SAA008290, SAA008291"	" 2021/6/4"	" 2021/6/4"
PRA000116	SAA008299	ST029				Nara_air1-123_2018	Air	"Outside air"	2018	9						Asia	Japan	"Tenri Air Pollution Monitoring Station, Tenri city, Nara"	34.59333333		135.8291667																																										"Air Sampler: High Volume; n=3 pooled: SAA008296, SAA008297, SAA008298"	" 2021/6/4"	" 2021/6/4"
PRA000116	SAA008306	ST029				Shimane_air1-123_2018	Air	"Outside air"	2018	9						Asia	Japan	"Oki Acid Rain Monitoring Station, Okinoshima town, Shimane"	36.28833333		133.1825																																										"Air Sampler: High Volume; n=3 pooled: SAA008303, SAA008304, SAA008305"	" 2021/6/4"	" 2021/6/4"
PRA000116	SAA008313	ST029				HiroshimaCity_air1-123_2018	Air	"Outside air"	2018	9						Asia	Japan	"Kokutaiji Junior high school, Hiroshima city, Hiroshima"	34.38472222		132.4580556																																										"Air Sampler: High Volume; n=3 pooled: SAA008310, SAA008311, SAA008312"	" 2021/6/4"	" 2021/6/4"
PRA000116	SAA008317	ST029				Yamaguchi_air1-5_2018	Air	"Outside air"	2018	8	28	2018-08-21T10:00/2018-08-28T10:00		"7days (Aug. 21_28)"	Fair/Fair	Asia	Japan	"Yamaguchi Prefectural Institute of Public Health and Environment, Yamaguchi City, Yamaguchi"	34.15277778		131.4333333														32.0/32.8																								63/55	SSE/SW	3.9/3.5	"1008 m^3"	"Air Sampler: Middle Volume; Weather during 7-day sampling: Fair, Cloudy, Cloudy, Cloudy, Cloudy, Fair, Fair, Fair; Wind direction: SSE, SE, E, S, SSE, SSE, SW, SW; Wind speed: 3.9, 8.0, 5.3, 5.6, 2.8, 2.3, 2.6, 3.5"	" 2021/6/4"	" 2021/6/4"
PRA000116	SAA008321	ST029				Yamaguchi_air3-1_2018	Air	"Outside air"	2018	8	28	2018-08-21T10:01/2018-08-28T10:01		"7days (Aug. 21_28)"	Cloudy/Fair	Asia	Japan	"Hagi Health and Welfare Center, Hagi city, Yamaguchi"	34.40848		131.39581														30.8/31.0																								67/64	SE/NNW	3.3/2.4	"1008 m^3"	"Air Sampler: Middle Volume; Weather during 7-day sampling: Cloudy, Cloudy, Fair, Fair Fair, Fair, Fair, Fair; Wind direction: SE, ESE, NNW, S, SE, SE, S, NNW; Wind speed: 3.3, 2.9, 1.9, 5.8, 4.1, 4.2, 4.2, 2.4"	" 2021/6/4"	" 2021/6/4"
PRA000116	SAA008328	ST029				Tokushima_air1-456_2018	Air	"Outside air"	2018	9						Asia	Japan	"Tokushima Prefectural Public health, Pharmaceutical and Environmental Sciences Center, Tokushima city, Tokushima"	34.07		134.5608333																																										"Air Sampler: High Volume; n=3 pooled: SAA008325, SAA008326, SAA008327"	" 2021/6/4"	" 2021/6/4"
PRA000116	SAA008332	ST029				Kagawa_air1-4_2018	Air	"Outside air"	2018	10	17	2018-10-10T10:38/2018-10-17T10:38		"7days (Oct. 10_17)"	"Cloudy/Lightly cloudy"	Asia	Japan	"Kagawa Pref. Synthesis Swimming Pool, Takamatsu City, Kagawa"	34.30861111		133.9802778														20.7/20.0																								91/64	SSE/NNW	1.8/2.4	"1008 m^3"	"Air Sampler: Middle Volume; Weather during 7-day sampling: Cloudy, Rain, Lightly cloudy, Fair, Fair, Fair, Fair, Ligtly cloudy; Wind direction: SSE, WSW, NW, N, NW, NE, ENE, NNW; Wind speed: 1.8, 2.3, 2.7, 1.9, 2.0, 1.3, 4.4, 2.4"	" 2021/6/4"	" 2021/6/4"
PRA000116	SAA008339	ST029				Ehime_air1-123_2018	Air	"Outside air"	2018	9						Asia	Japan	"Nanyo General Subprefectural Bureau, Uwajima city, Ehime"	33.22722222		132.57																																										"Air Sampler: High Volume; n=3 pooled: SAA008336, SAA008337, SAA008338"	" 2021/6/4"	" 2021/6/4"
PRA000116	SAA008346	ST029				Fukuoka_air1-456_2018	Air	"Outside air"	2018	9						Asia	Japan	"Omuta municipal office, Omuta city, Fukuoka"	33.03027778		130.4458333																																										"Air Sampler: High Volume; n=3 pooled: SAA008343, SAA008344, SAA008345"	" 2021/6/4"	" 2021/6/4"
PRA000116	SAA008350	ST029				Saga_air1-7_2018	Air	"Outside air"	2018	9	18	2018-09-11T10:00/2018-09-18T10:00		"7days (Sep. 11_18)"	Fair/Cloudy	Asia	Japan	"Saga Prefectural Environmental Research Center, Saga city, Saga"	33.27333333		130.2727778														24.9/26.5																								66/70	ENE/SSW	7.1/1.0	"1007 m^3"	"Air Sampler: Middle Volume; Weather during 7-day sampling: Fair, Cloudy, Fair, Rain/Fair, Cloudy, Fair, Cloudy, Cloudy; Wind direction: ENE, ENE, ENE, SSW, W, SW, WNW, SSW; Wind speed: 7.1, 4.5, 2.8, 1.0, 1.3, 4.1, 0.7, 1.0"	" 2021/6/4"	" 2021/6/4"
PRA000116	SAA008357	ST029				Kumamoto_air1-123_2018	Air	"Outside air"	2018	10						Asia	Japan	"Kumamoto Prefectural Institute of Public-Health and Environmental Science, Uto city, Kumamoto"	32.66583333		130.6530556																																										"Air Sampler: High Volume; n=3 pooled: SAA008354, SAA008355, SAA008356"	" 2021/6/4"	" 2021/6/4"
PRA000116	SAA008361	ST029				Miyazaki_air1-1_2018	Air	"Outside air"	2018	9	18	2018-09-11T10:01/2018-09-18T10:01		"7days (Sep. 11_18)"	Cloudy/Fair	Asia	Japan	"Miyazaki Prefectural Institute for Public Health and Environment, Miyazaki city, Miyazaki"	31.83305556		131.4152778														25.0/27.6																								72/78	ENE/E	2.8/2.3	"1008 m^3"	"Air Sampler: Middle Volume; Weather during 7-day sampling: Cloudy, Rain, Fair, Cloudy, Fair, Fair, Fair, Fair; Wind direction: ENE, S, W, NNW, W, W, WNW, E; Wind speed: 2.8, 1.5, 1.5, 0.7, 1.7, 1.0, 1.2, 2.3"	" 2021/6/4"	" 2021/6/4"
PRA000116	SAA008368	ST029				Kagoshima_air1-123_2018	Air	"Outside air"	2018	9						Asia	Japan	"Kagoshima Prefectural Institute for Environmental Research and Public Health, Kagoshima city, Kagoshima"	31.58444444		130.5644444																																										"Air Sampler: High Volume; n=3 pooled: SAA008365, SAA008366, SAA008367"	" 2021/6/4"	" 2021/6/4"
PRA000116	SAA008375	ST029				Okinawa_air1-123_2018	Air	"Outside air"	2018	8						Asia	Japan	"Cape Hedo-misaki, Kunigami villedge, Okinawa"	26.87		128.25																																										"Air Sampler: High Volume; n=3 pooled: SAA008372, SAA008373, SAA008374"	" 2021/6/4"	" 2021/6/4"
PRA000120	SAA008835	ST029				Hokkaido_air4-1_2019	Air	"Outside air"	2019	10	18	2019-10-11T12:12/2019-10-18T12:12		"7days (Oct. 11_18)"	Fair/Fair	Asia	Japan	"Hokkaido Kamikawa General Promotion Bureau, Asahikawa city, Hokkaido"	43.80777778		142.4394444														19.7/11.8																								58/53	S/E	1.9/0.9	"1008 m^3"	"Air Sampler: Middle Volume; Weather during 7-day sampling: Fair, -, -, -, Fair, Cloudy, Cloudy, Fair; Wind direction:S, -, -, -, W, WSW, W, E; Wind speed: 1.9, -, -, -, 4.9, 1.6, 2.0, 0.9"	2022/9/27	2022/9/27
PRA000120	SAA008842	ST029				SapporoCity_air1-123_2019H	Air	"Outside air"	2019	10		"2019-10-07/10-08; 10-08/10-09; 10-09/10-10"				Asia	Japan	"Sapporo Art Park, Sapporo city, Hokkaido"	42.93861111		141.3402778																																										"Air Sampler: High Volume; n=3 pooled: SAA008839, SAA008840, SAA008841"	2022/9/27	2022/9/27
PRA000120	SAA008849	ST029				Iwate_air1-123_2019H	Air	"Outside air"	2019	10		"2019-09-30/10-01; 10-01/10-02; 10-02/10-03"				Asia	Japan	"Sugo Air Pollution Monitoring Station, Takizawa city, Iwate"	39.78194444		141.1405556																																										"Air Sampler: High Volume; n=3 pooled: SAA008846, SAA008847, SAA008848"	2022/9/27	2022/9/27
PRA000120	SAA008853	ST029				Miyagi_air1-1_2019	Air	"Outside air"	2019	10	11	2019-10-04T10:10/2019-10-11T10:10		"7days (Oct. 04_11)"	"Cloudy/Light rain"	Asia	Japan	"Miyagi Prefectural Institute of Public Health and Environment, Sendai City, Miyagi"	38.2775		140.9052778														22.3/17.5																								89/97	S/N	5.2/3.4	"1008 m^3"	"Air Sampler: Middle Volume; Weather during 7-day sampling: Cloudy, -, -, Cloudy, occasionally light rain, Cloudy, Fair, Fair, Light rain; Wind direction:S, -, -, WSW, ESE, WNW, SSE N; Wind speed: 5.2, -, -, 0.6, 0.9, 5.8, 1.7, 3.4"	2022/9/27	2022/9/27
PRA000120	SAA008857	ST029				Yamagata_air1-4_2019	Air	"Outside air"	2019	10	1	2019-09-24T10:29/2019-10-01T10:29		"7days (Sep. 24_Oct. 01)"	Fair/Fair	Asia	Japan	"Environmental Science Research Center of Yamagata Prefecture, Murayama city, Yamagata"	38.47361111		140.3988889														23.4/22.4																								63/64	NE/S	1.7/1.0	"1008 m^3"	"Air Sampler: Middle Volume; Weather during 7-day sampling: Fair, Fair, Fair, Fair, Cloudy, Cloudy, Fair, Fair; Wind direction:NE, NNW, SSE, NNE, NNW, SSE, N, S; Wind speed: 1.7, 3.3, 0.6, 1.1, 0.3, 1.4, 0.7, 1.0"	2022/9/27	2022/9/27
PRA000120	SAA008861	ST029				Ibaraki_air1-4_2019	Air	"Outside air"	2019	11	1	2019-10-25T09:30/2019-11-01T09:30		"7days (Oct. 25_Nov. 01)"	Rain/Fair	Asia	Japan	"Ibaraki Kasumigaura Environmental Science Center, Tsuchiura city, Ibaraki"	36.07555556		140.2666667														15.8/18.3																								97/73	NNE/NW	5.6/3.2	"1008 m^3"	"Air Sampler: Middle Volume; Weather during 7-day sampling: Rain, Cloudy, Rain, Fair, Rain, Fair, Fair, Fair; Wind direction:NNE, WSW, SW, NE, NNE, WSW, ENE, NW; Wind speed: 5.6, 2.4, 0.8, 3.2, 2.2, 2.4, 1.9, 3.2"	2022/9/27	2022/9/27
PRA000120	SAA008865	ST029				Chiba_air1-1_2019	Air	"Outside air"	2019	11	5	2019-10-29T10:03/2019-11-05T10:03		"7days (Oct. 29_Nov. 05)"	Rain/Fair	Asia	Japan	"Ichihara Iwasaki Nishi Air pollution monitoring station, Ichihara city, Chiba"	35.52666667		140.0680556														15.2/16.1																								97/42	N/NNW	2.3/2.0	"1008 m^3"	"Air Sampler: Middle Volume; Weather during 7-day sampling: Rain, Fair, Fair, Fair, Fair, Cloudy, Fair, Fair; Wind direction:N, NNW, NE, WNW, NE, NW, E, NNW; Wind speed: 2.3, 0.7, 2.8, 1.2, 3.4, 2.3, 0.9, 2.0"	2022/9/27	2022/9/27
PRA000120	SAA008869	ST029				Tokyo_air1-4_2019	Air	"Outside air"	2019	11	1	2019-10-25T10:01/2019-11-01T10:00		"7days (Oct. 25_Nov. 01)"	Rain/Fair	Asia	Japan	"Tokyo Metropolitan Research Institute for Environmental Protection, Koto Ward, Tokyo"	35.66833333		139.8241667														17.7/20.8																								100/72	NNW/WNW	3.4/1.0	"1011 m^3"	"Air Sampler: Middle Volume; Weather during 7-day sampling: Rain, Fair, Fair, Fair, Fair, Cloudy, Fair, Fair; Wind direction:NNW, S, N, NE, NNW, N, NE, WNW; Wind speed: 3.4, 2.4, 2.1, 1.9, 3.5, 0.8, 1.3, 1.0"	2022/9/27	2022/9/27
PRA000120	SAA008873	ST029				Tokyo_air2-1_2019	Air	"Outside air"	2019	10	9	2019-10-03T10:00/2019-10-09T09:45		"6days (Oct. 03_09)"	Fair/Cloudy	Asia	Japan	"Ogasawara Chichijima, Ogasawara Village, Tokyo"	27.09361111		142.2161111														28.1/28.0																								63/77	NE/E	4.8/3.3	"865 m^3"	"Air Sampler: Middle Volume; Weather during 6-day sampling: Fair, Fair, Fair, Fair, Fair, Fair, Cloudy; Wind direction:NE, NE, E, ENE, NE, ENE, E; Wind speed: 4.8, 2.8, 2.0, 2.0, 3.8, 2.7, 3.3"	2022/9/27	2022/9/27
PRA000120	SAA008880	ST029				Kanagawa_air1-91011_2019H	Air	"Outside air"	2019	9		"2019-09-24/09-25; 09-25/09-26; 09-26/09-27"				Asia	Japan	"Kanagawa Environmental Research Center, Hiratsuka City, Kanagawa"	35.3475		139.3513889																																										"Air Sampler: High Volume; n=3 pooled: SAA008877, SAA008878, SAA008879"	2022/9/27	2022/9/27
PRA000120	SAA008884	ST029				YokohamaCity_air1-4_2019	Air	"Outside air"	2019	11	5	2019-10-29T09:54/2019-11-05T10:05		"7days (Oct. 29_Nov. 05)"	Rain/Fair	Asia	Japan	"Yokohama Environmental Research Institute, Yokohama city, Kanagawa"	35.48111111		139.6580556														15.7/24.7																								85/46	N/NE	6.0/2.0	"1007 m^3"	"Air Sampler: Middle Volume; Weather during 7-day sampling: Rain, Fair, Cloudy, Fair, Fair, Rain, Fair, Fair; Wind direction:N, NE, N, NE, ENE, NNE, NNE, NE; Wind speed: 6.0, 0.6, 2.2, 1.4, 2.4, 1.7, 1.6, 2.0"	2022/9/27	2022/9/27
PRA000120	SAA008891	ST029				Niigata_air1-123_2019H	Air	"Outside air"	2019	10		"2019-10-07/10-08; 10-08/10-09; 10-09/10-10"				Asia	Japan	"Oyama Air Pollution Monitoring Station, Niigata city, Niigata"	37.93611111		139.0794444																																										"Air Sampler: High Volume; n=3 pooled: SAA008888, SAA008889, SAA008890"	2022/9/27	2022/9/27
PRA000120	SAA008898	ST029				Toyama_air1-123_2019H	Air	"Outside air"	2019	10		"2019-10-15/10-16;10-16/10-17; 10-17/10-18"				Asia	Japan	"Tonami Air Pollution Monitoring Station, Tonami city, Toyama"	36.62888889		136.9886111																																										"Air Sampler: High Volume; n=3 pooled: SAA008895, SAA008896, SAA008897"	2022/9/27	2022/9/27
PRA000120	SAA008905	ST029				Ishikawa_air1-789_2019H	Air	"Outside air"	2019	10		"2019-10-15/10-16; 10-16/10-17; 10-17/10-18"				Asia	Japan	"Ishikawa Prefectural Institute of Public Health and Environmental Science, Kanazawa City, Ishikawa"	36.52722222		136.7055556																																										"Air Sampler: High Volume; n=3 pooled: SAA008902, SAA008903, SAA008904"	2022/9/27	2022/9/27
PRA000120	SAA008912	ST029				Yamanashi_air1-123_2019H	Air	"Outside air"	2019	10		"2019-10-28/10-29; 10-29/10-30; 10-30/10-31"				Asia	Japan	"Yamanashi Institute of Public Health and Environment, Kofu city, Yamanashi"	35.67194444		138.5497222																																										"Air Sampler: High Volume; n=3 pooled: SAA008909, SAA008910, SAA008911"	2022/9/27	2022/9/27
PRA000120	SAA008916	ST029				Nagano_air1-6_2019	Air	"Outside air"	2019	10	31	2019-10-24T10:00/2019-10-31T10:00		"7days (Oct. 24_31)"	Cloudy/Fair	Asia	Japan	"Nagano Environmental Conservation Research Institute, Nagano City, Nagano"	36.63555556		138.1786111														19.1/15.4																								65/66	W/SW	4.1/2.9	"1008 m^3"	"Air Sampler: Middle Volume; Weather during 7-day sampling: Cloudy, Rain, Cloudy, Cloudy, Fair, Rain, Fair, Fair; Wind direction:W, SW, ESE, E, S, WSW, SSW, SW; Wind speed: 4.1, 1.9, 1.5, 3.0, 1.9, 1.9, 2.1, 2.9"	2022/9/27	2022/9/27
PRA000120	SAA008923	ST029				Gifu_air1-123_2019H	Air	"Outside air"	2019	10		"2019-10-28/10-29; 10-29/10-30; 10-30/10-31"				Asia	Japan	"Gifu Prefectural Research Institute for Health and Environmental Sciences, Kakamigahara city, Gifu"	35.4075		136.8447222																																										"Air Sampler: High Volume; n=3 pooled: SAA008920, SAA008921, SAA008922"	2022/9/27	2022/9/27
PRA000120	SAA008927	ST029				NagoyaCity_air1-9_2019	Air	"Outside air"	2019	10	1	2019-09-24T11:07/2019-10-01T11:07		"7days (Sep. 24_Oct. 01)"	"Cloudy occasionally Fair/Fair occasionally Cloudy"	Asia	Japan	"Chikusa-ku Heiwakoen Park, Nagoya City, Aichi"	35.17055556		136.9788889														23.4/26.2																								71/74	WNW/S	3.2/2.3	"1007 m^3"	"Air Sampler: Middle Volume; Weather during 7-day sampling: Cloudy occasionally Fair, Fair occasionally cloudy, Fair, Cloudy, Cloudy, Slightly cloudy, Cloudy occasionally fair, Fair occasionally cloudy ; Wind direction:WNW, N, SW, SW, SSE, W, SSE, S; Wind speed: 3.2, 2.8, 2.6, 2.6, 2.5, 1.9, 2.8, 2.3"	2022/9/27	2022/9/27
PRA000120	SAA008934	ST029				Mie_air1-456_2019H	Air	"Outside air"	2019	10		"2019-09-30/10-01; 10-01/10-02; 10-02/10-03"				Asia	Japan	"Mie Prefecture Health and Environment Research Institute, Yokkaichi city, Mie"	34.99166667		136.4855556																																										"Air Sampler: High Volume; n=3 pooled: SAA008931, SAA008932, SAA008933"	2022/9/27	2022/9/27
PRA000120	SAA008941	ST029				Osaka_air1-456_2019H	Air	"Outside air"	2019	10		"2019-10-15/10-16; 10-16/10-17; 10-17/10-18"				Asia	Japan	"Osaka Joint government building No.2 Annex, Osaka city, Osaka"	34.6825		135.5191667																																										"Air Sampler: High Volume; n=3 pooled: SAA008938, SAA008939, SAA008940"	2022/9/27	2022/9/27
PRA000120	SAA008948	ST029				Hyogo_air1-123_2019H	Air	"Outside air"	2019	10		"2019-10-15/10-16; 10-16/10-17; 10-17/10-18"				Asia	Japan	"Hyogo Prefectural Institute of Environmental Sciences, Kobe city, Hyogo"	34.64916667		135.1316667																																										"Air Sampler: High Volume; n=3 pooled: SAA008945, SAA008946, SAA008947"	2022/9/27	2022/9/27
PRA000120	SAA008955	ST029				KobeCity_air1-123_2019H	Air	"Outside air"	2019	10		"2019-10-07/10-08; 10-08/10-09; 10-09/10-10"				Asia	Japan	"Public Health Research Institute of Kobe City, Kobe city, Hyogo"	34.67861111		135.2105556																																										"Air Sampler: High Volume; n=3 pooled: SAA008952, SAA008953, SAA008954"	2022/9/27	2022/9/27
PRA000120	SAA008962	ST029				Nara_air1-123_2019H	Air	"Outside air"	2019	11		"2019-11-05/11-06; 11-06/11-07; 11-07/11-08"				Asia	Japan	"Tenri Air Pollution Monitoring Station, Tenri city, Nara"	34.59333333		135.8291667																																										"Air Sampler: High Volume; n=3 pooled: SAA008959, SAA008960, SAA008961"	2022/9/27	2022/9/27
PRA000120	SAA008969	ST029				Shimane_air1-123_2019H	Air	"Outside air"	2019	10		"2019-10-28/10-29; 10-29/10-30; 10-30/10-31"				Asia	Japan	"Oki Acid Rain Monitoring Station, Okinoshima town, Shimane"	36.28833333		133.1825																																										"Air Sampler: High Volume; n=3 pooled: SAA008966, SAA008967, SAA008968"	2022/9/27	2022/9/27
PRA000120	SAA008976	ST029				HiroshimaCity_air1-123_2019H	Air	"Outside air"	2019	10		"2019-10-28/10-29; 10-29/10-30; 10-30/10-31"				Asia	Japan	"Kokutaiji Junior high school, Hiroshima city, Hiroshima"	34.38472222		132.4580556																																										"Air Sampler: High Volume; n=3 pooled: SAA008973, SAA008974, SAA008975"	2022/9/27	2022/9/27
PRA000120	SAA008980	ST029				Yamaguchi_air1-6_2019	Air	"Outside air"	2019	10	1	2019-09-24T10:00/2019-10-01T10:00		"7days (Sep. 24_Oct. 01)"	Fair/Cloudy	Asia	Japan	"Yamaguchi Prefectural Institute of Public Health and Environment, Yamaguchi City, Yamaguchi"	34.15277778		131.4333333														24.9/26.4																								57/80	NE/SE	3.1/1.1	"1008 m^3"	"Air Sampler: Middle Volume; Weather during 7-day sampling: Fair, Fair, Fair, Cloudy, Rain, Fair, Fair Cloudy; Wind direction:NE, SSE, SE, ENE, E, NE, S, SE; Wind speed: 3.1, 1.0, 0.6, 2.0, 1.9, 0.9, 1.5, 1.1"	2022/9/27	2022/9/27
PRA000120	SAA008984	ST029				Yamaguchi_air3-1_2019	Air	"Outside air"	2019	10	1	2019-09-24T10:00/2019-10-01T10:00		"7days (Sep. 24_Oct. 01)"	Fair/Cloudy	Asia	Japan	"Hagi Health and Welfare Center, Hagi city, Yamaguchi"	34.40848		131.39581														22.6/25.2																								66/87	NNE/N	2.3/1.7	"1008 m^3"	"Air Sampler: Middle Volume; Weather during 7-day sampling: Fair, Fair, Fair, Cloudy, Cloudy, Fair, Fair Cloudy; Wind direction:NNE, W, NE, ESE, S, NW, SW, N; Wind speed: 2.3, 0.7, 0.7, 1.0, 3.9, 2.8, 1.6, 1.7"	2022/9/27	2022/9/27
PRA000120	SAA008991	ST029				Tokushima_air1-123_2019H	Air	"Outside air"	2019	10		"2019-09-30/10-01; 10-01/10-02; 10-02/10-03"				Asia	Japan	"Tokushima Prefectural Public health, Pharmaceutical and Environmental Sciences Center, Tokushima city, Tokushima"	34.07		134.5608333																																										"Air Sampler: High Volume; n=3 pooled: SAA008988, SAA008989, SAA008990"	2022/9/27	2022/9/27
PRA000120	SAA008995	ST029				Kagawa_air1-9_2019	Air	"Outside air"	2019	11	1	2019-10-25T12:04/2019-11-01T12:04		"7days (Oct. 25_Nov. 01)"	Cloudy/Fair	Asia	Japan	"Kagawa Pref. Synthesis Swimming Pool, Takamatsu City, Kagawa"	34.30861111		133.9802778														20.4/21.5																								81/50	NNW/W	2.2/2.2	"1008 m^3"	"Air Sampler: Middle Volume; Weather during 7-day sampling: Cloudy, Cloudy, Fair, Slightly cloudy, Cloudy, Fair, Fair, Fair; Wind direction:NNW, WSW, WNW, ENE, WSW, W, WNW, W; Wind speed: 2.2, 3.1, 3.6, 3.3, 1.9, 2.7, 2.1, 2.2"	2022/9/27	2022/9/27
PRA000120	SAA009002	ST029				Ehime_air1-123_2019H	Air	"Outside air"	2019	10		"2019-10-07/10-08; 10-08/10-09; 10-09/10-10"				Asia	Japan	"Nanyo General Subprefectural Bureau, Uwajima city, Ehime"	33.22722222		132.57																																										"Air Sampler: High Volume; n=3 pooled: SAA008999, SAA009000, SAA009001"	2022/9/27	2022/9/27
PRA000120	SAA009009	ST029				Fukuoka_air1-123_2019H	Air	"Outside air"	2019	9		"2019-09-24/09-25; 09-25/09-26; 09-26/09-27"				Asia	Japan	"Omuta municipal office, Omuta city, Fukuoka"	33.03027778		130.4458333																																										"Air Sampler: High Volume; n=3 pooled: SAA009006, SAA009007, SAA009008"	2022/9/27	2022/9/27
PRA000120	SAA009013	ST029				Saga_air1-4_2019	Air	"Outside air"	2019	10	1	2019-09-24T09:52/2019-10-01T09:52		"7days (Sep. 24_Oct. 01)"	Fair/Cloudy	Asia	Japan	"Saga Prefectural Environmental Research Center, Saga city, Saga"	33.27333333		130.2727778														24.7/24.5																								61/80	ESE/WSW	2.0/1.7	"1008 m^3"	"Air Sampler: Middle Volume; Weather during 7-day sampling: Fair, Fair, Cloudy, Fair, Cloudy, Cloudy, Cloudy, Cloudy; Wind direction:ESE, N, NE, ENE, ENE,ESE, NE, WSW; Wind speed: 2.0, 0.9, 1.5, 3.6, 6.7, 1.6, 2.0, 1.7"	2022/9/27	2022/9/27
PRA000120	SAA009020	ST029				Kumamoto_air1-123_2019H	Air	"Outside air"	2019	9		"2019-09-24/09-25; 09-25/09-26; 09-26/09-27"				Asia	Japan	"Kumamoto Prefectural Institute of Public-Health and Environmental Science, Uto city, Kumamoto"	32.66583333		130.6530556																																										"Air Sampler: High Volume; n=3 pooled: SAA009017, SAA009018, SAA009019"	2022/9/27	2022/9/27
PRA000120	SAA009024	ST029				Miyazaki_air1-1_2019	Air	"Outside air"	2019	11	12	2019-11-05T10:02/2019-11-12T10:02		"7days (Nov. 05_12)"	Fair/Fair	Asia	Japan	"Miyazaki Prefectural Institute for Public Health and Environment, Miyazaki city, Miyazaki"	31.83305556		131.4152778														17.4/18.4																								56/63	NE/WNW	2.7/2.7	"1008 m^3"	"Air Sampler: Middle Volume; Weather during 7-day sampling: Fair, Fair, Cloudy, Fair, Fair, Fair, Fair, Fair; Wind direction:NE, W, WNW, WNW, WNW, W, W, WNW; Wind speed: 2.7, 1.7, 3.1, 2.5, 2.4, 1.2, 8.3, 2.7"	2022/9/27	2022/9/27
PRA000120	SAA009031	ST029				Kagoshima_air1-123_2019H	Air	"Outside air"	2019	10		"2019-10-28/10-29; 10-29/10-30; 10-30/10-31"				Asia	Japan	"Kagoshima Prefectural Institute for Environmental Research and Public Health, Kagoshima city, Kagoshima"	31.58444444		130.5644444																																										"Air Sampler: High Volume; n=3 pooled: SAA009028, SAA009029, SAA009030"	2022/9/27	2022/9/27
PRA000120	SAA009038	ST029				Okinawa_air1-123_2019H	Air	"Outside air"	2019	9		"2019-09-24/09-25; 09-25/09-26; 09-26/09-27"				Asia	Japan	"Cape Hedo-misaki, Kunigami villedge, Okinawa"	26.87		128.25																																										"Air Sampler: High Volume; n=3 pooled: SAA009035, SAA009036, SAA009037"	2022/9/27	2022/9/27
PRA000121	SAA008817	ST035				WR-1F	Air	"Floor dust"	2019	9						Asia	Vietnam	"Bui Dau Village, Hung Yen Province"	20.93361111		106.0947222																																										"This dust sample mainly contained soil, sand, biological fragments and debris from recycling activities; Homogenized by passing through 250 μm sieves and stored at -20℃ until analysis; E-recyling area (Main activities: Manual dismantling, pastic shredding, storing; Working area characteristics: Steel frame, corrugated wall/roof, concrete floor; Input materials: E-waste (TV, radio, DVD player, Printed circuit board[PCB]), consumer products, automotive plastic parts; Output products: Plastic pellets, metals)"	2022/8/8	2022/8/8
PRA000121	SAA008818	ST035				WR-1E	Air	"Dust on end-of-life equipment surface"	2019	9						Asia	Vietnam	"Bui Dau Village, Hung Yen Province"	20.93361111		106.0947222																																										"This dust sample mainly contained soil, sand, biological fragments and debris from recycling activities; Homogenized by passing through 250 μm sieves and stored at -20℃ until analysis; E-recyling area (Main activities: Manual dismantling, pastic shredding, storing; Working area characteristics: Steel frame, corrugated wall/roof, concrete floor; Input materials: E-waste (TV, radio, DVD player, Printed circuit board[PCB]), consumer products, automotive plastic parts; Output products: Plastic pellets, metals)"	2022/8/8	2022/8/8
PRA000121	SAA008819	ST035				WR-2F	Air	"Floor dust"	2019	9						Asia	Vietnam	"Bui Dau Village, Hung Yen Province"	20.93444444		106.0936111																																										"This dust sample mainly contained soil, sand, biological fragments and debris from recycling activities; Homogenized by passing through 250 μm sieves and stored at -20℃ until analysis; E-recyling area (Main activities: Manual dismantling, pastic shredding, acid leaching, storing; Working area characteristics: Steel frame, brick wall, corrugated roof, concrete floor; Input materials: E-waste (home appliance), consumer products; Output products: Plastic pellets, metals)"	2022/8/8	2022/8/8
PRA000121	SAA008820	ST035				WR-3F	Air	"Floor dust"	2019	9						Asia	Vietnam	"Bui Dau Village, Hung Yen Province"	20.93444444		106.0919444																																										"This dust sample mainly contained soil, sand, biological fragments and debris from recycling activities; Homogenized by passing through 250 μm sieves and stored at -20℃ until analysis; E-recyling area (Main activities: Manual dismantling, storing; Working area characteristics: Steel frame, brick wall/floor, corrugated roof; Input materials: E-waste (CRT TV, DVD player, printer, PCB, water pump, electric generator); Output products: Metals)"	2022/8/8	2022/8/8
PRA000121	SAA008821	ST035				WR-4F	Air	"Floor dust"	2019	9						Asia	Vietnam	"Bui Dau Village, Hung Yen Province"	20.93222222		106.0983333																																										"This dust sample mainly contained soil, sand, biological fragments and debris from recycling activities; Homogenized by passing through 250 μm sieves and stored at -20℃ until analysis; E-recyling area (Main activities: Manual dismantling, plastic shredding, storing; Working area characteristics: Steel frame, brick wall, corrugated roof, concrete floor; Input materials: E-waste (CRT TV case, PCB, cable, home appliance), consumer products; Output products: Plastic pellets, metals)"	2022/8/8	2022/8/8
PRA000121	SAA008822	ST035				WR-5F	Air	"Floor dust"	2019	9						Asia	Vietnam	"Bui Dau Village, Hung Yen Province"	20.93305556		106.0986111																																										"This dust sample mainly contained soil, sand, biological fragments and debris from recycling activities; Homogenized by passing through 250 μm sieves and stored at -20℃ until analysis; E-recyling area (Main activities: Manual dismantling, plastic crushing, storing; Working area characteristics: Steel frame, corrugated wall/roof, concrete floor; Input materials: E-waste (TV, refrigerator, home appliance), consumer products; Output products: Plastic pellets)"	2022/8/8	2022/8/8
PRA000121	SAA008823	ST035				WR-5E	Air	"Dust on end-of-life equipment surface"	2019	9						Asia	Vietnam	"Bui Dau Village, Hung Yen Province"	20.93305556		106.0986111																																										"This dust sample mainly contained soil, sand, biological fragments and debris from recycling activities; Homogenized by passing through 250 μm sieves and stored at -20℃ until analysis; E-recyling area (Main activities: Manual dismantling, plastic crushing, storing; Working area characteristics: Steel frame, corrugated wall/roof, concrete floor; Input materials: E-waste (TV, refrigerator, home appliance), consumer products; Output products: Plastic pellets)"	2022/8/8	2022/8/8
PRA000121	SAA008824	ST031				VP-1F	Air	"Floor dust"	2019	9						Asia	Vietnam	"Thuyen Village, Bac Giang Province"	21.14194444		106.0369444																																										"This dust sample mainly contained soil, sand, biological fragments and debris from recycling activities; Homogenized by passing through 250 μm sieves and stored at -20℃ until analysis; ELV processing area (Main activities: Dismantling, storing, open burning; Working area characteristics: Steel frame and floor, corrugated wall/roof, outdoor; Input materials: ELV (Truck, pickup truck, bus); Output products: Vehicle parts, scrap)"	2022/8/8	2022/8/8
PRA000121	SAA008825	ST031				VP-1E	Air	"Dust on end-of-life equipment surface"	2019	9						Asia	Vietnam	"Thuyen Village, Bac Giang Province"	21.14194444		106.0369444																																										"This dust sample mainly contained soil, sand, biological fragments and debris from recycling activities; Homogenized by passing through 250 μm sieves and stored at -20℃ until analysis; ELV processing area (Main activities: Dismantling, storing, open burning; Working area characteristics: Steel frame and floor, corrugated wall/roof, outdoor; Input materials: ELV (Truck, pickup truck, bus); Output products: Vehicle parts, scrap)"	2022/8/8	2022/8/8
PRA000121	SAA008826	ST031				VP-2F	Air	"Floor dust"	2019	9						Asia	Vietnam	"Thuyen Village, Bac Giang Province"	21.28166667		106.2313889																																										"This dust sample mainly contained soil, sand, biological fragments and debris from recycling activities; Homogenized by passing through 250 μm sieves and stored at -20℃ until analysis; ELV processing area (Main activities: Dismantling, storing; Working area characteristics: Steel frame, brick wall, corrugated roof, concrete floor, outdoor; Input materials: ELV (Truck, pickup truck, bus); Output products: Vehicle parts, scrap)"	2022/8/8	2022/8/8
PRA000121	SAA008827	ST031				VP-2E	Air	"Dust on end-of-life equipment surface"	2019	9						Asia	Vietnam	"Thuyen Village, Bac Giang Province"	21.28166667		106.2313889																																										"This dust sample mainly contained soil, sand, biological fragments and debris from recycling activities; Homogenized by passing through 250 μm sieves and stored at -20℃ until analysis; ELV processing area (Main activities: Dismantling, storing; Working area characteristics: Steel frame, brick wall, corrugated roof, concrete floor, outdoor; Input materials: ELV (Truck, pickup truck, bus); Output products: Vehicle parts, scrap)"	2022/8/8	2022/8/8
PRA000121	SAA008828	ST031				VP-3F	Air	"Floor dust"	2019	9						Asia	Vietnam	"Thuyen Village, Bac Giang Province"	21.28055556		106.2316667																																										"This dust sample mainly contained soil, sand, biological fragments and debris from recycling activities; Homogenized by passing through 250 μm sieves and stored at -20℃ until analysis; Used only for HFRs and PCBs analysis and not used for OPEs analysis due to limited sample amount; ELV processing area (Main activities: Dismantling, storing, open burning; Working area characteristics: Steel frame, no wall, tarpaulin cover, soil floor, outdoor; Input materials: ELV (bus); Output products: Vehicle parts, scrap"	2022/8/8	2022/8/8
PRA000121	SAA008829	ST031				VP-3E	Air	"Dust on end-of-life equipment surface"	2019	9						Asia	Vietnam	"Thuyen Village, Bac Giang Province"	21.28055556		106.2316667																																										"This dust sample mainly contained soil, sand, biological fragments and debris from recycling activities; Homogenized by passing through 250 μm sieves and stored at -20℃ until analysis; ELV processing area (Main activities: Dismantling, storing, open burning; Working area characteristics: Steel frame, no wall, tarpaulin cover, soil floor, outdoor; Input materials: ELV (bus); Output products: Vehicle parts, scrap)"	2022/8/8	2022/8/8
PRA000121	SAA008830	ST031				VP-4F	Air	"Floor dust"	2019	9						Asia	Vietnam	"Thuyen Village, Bac Giang Province"	21.2825		106.2311111																																										"This dust sample mainly contained soil, sand, biological fragments and debris from recycling activities; Homogenized by passing through 250 μm sieves and stored at -20℃ until analysis; ELV processing area (Main activities: Repair, maintenance; Working area characteristics: Steel frame, brick wall, corrugated roof, concrete floor, outdoor; Input materials: Truck, dump truck; Output products: No)"	2022/8/8	2022/8/8
PRA000121	SAA008831	ST031				VP-5F	Air	"Floor dust"	2019	9						Asia	Vietnam	"Thuyen Village, Bac Giang Province"	21.28222222		106.2308333																																										"This dust sample mainly contained soil, sand, biological fragments and debris from recycling activities; Homogenized by passing through 250 μm sieves and stored at -20℃ until analysis; ELV processing area (Main activities: Dismantling, storing; Working area characteristics: Steel frame, brick wall, corrugated roof, concrete floor, outdoor; Input materials: ELV(truck, pickup truck, bus, car); Output products: Vehicle parts, scrap)"	2022/8/8	2022/8/8
PRA000121	SAA008832	ST031				VP-5E	Air	"Dust on end-of-life equipment surface"	2019	9						Asia	Vietnam	"Thuyen Village, Bac Giang Province"	21.28222222		106.2308333																																										"This dust sample mainly contained soil, sand, biological fragments and debris from recycling activities; Homogenized by passing through 250 μm sieves and stored at -20℃ until analysis; ELV processing area (Main activities: Dismantling, storing; Working area characteristics: Steel frame, brick wall, corrugated roof, concrete floor, outdoor; Input materials: ELV(truck, pickup truck, bus, car); Output products: Vehicle parts, scrap)"	2022/8/8	2022/8/8
PRA000121	SAA008833	ST031				VP-6F	Air	"Floor dust"	2019	9						Asia	Vietnam	"Thuyen Village, Bac Giang Province"	21.2825		106.2302778																																										"This dust sample mainly contained soil, sand, biological fragments and debris from recycling activities; Homogenized by passing through 250 μm sieves and stored at -20℃ until analysis; ELV processing area (Main activities: Dismantling, storing; Working area characteristics: Steel frame/floor, brick wall, corrugated roof, outdoor; Input materials: ELV(truck, pickup truck, bus); Output products: Vehicle parts, scrap)"	2022/8/8	2022/8/8
PRA000121	SAA008834	ST031				VP-6F	Air	"Dust on end-of-life equipment surface"	2019	9						Asia	Vietnam	"Thuyen Village, Bac Giang Province"	21.2825		106.2302778																																										"This dust sample mainly contained soil, sand, biological fragments and debris from recycling activities; Homogenized by passing through 250 μm sieves and stored at -20℃ until analysis; ELV processing area (Main activities: Dismantling, storing; Working area characteristics: Steel frame/floor, brick wall, corrugated roof, outdoor; Input materials: ELV(truck, pickup truck, bus); Output products: Vehicle parts, scrap)"	2022/8/8	2022/8/8
PRA000127	SAA009950	ST009	29158			HR-1M	"Mytilus galloprovincialis"	"Blue mussel"	2017	11	7					Asia	Japan	"Otake city, Horoshima"	34.24083333		132.2330556			"Whole soft tissues"	0.88																																							2025/02/14	2025/02/14
PRA000127	SAA009951	ST009	29158			HR-2M	"Mytilus galloprovincialis"	"Blue mussel"	2017	11	7					Asia	Japan	"Hatsukaichi city, Horoshima"	34.30638889		132.32			"Whole soft tissues"	0.84																																							2025/02/14	2025/02/14
PRA000127	SAA009952	ST009	29158			HR-3M	"Mytilus galloprovincialis"	"Blue mussel"	2017	11	7					Asia	Japan	"Hatsukaichi city, Horoshima"	34.3575		132.3386111			"Whole soft tissues"	0.64																																							2025/02/14	2025/02/14
PRA000127	SAA009953	ST009	29158			HR-4M	"Mytilus galloprovincialis"	"Blue mussel"	2017	11	7					Asia	Japan	"Etajima city, Horoshima"	34.26666667		132.4088889			"Whole soft tissues"	0.77																																							2025/02/14	2025/02/14
PRA000127	SAA009954	ST009	29158			HR-5M	"Mytilus galloprovincialis"	"Blue mussel"	2017	11	7					Asia	Japan	"Hiroshima city, Horoshima"	34.34305556		132.465			"Whole soft tissues"	1.1																																							2025/02/14	2025/02/14
PRA000127	SAA009955	ST009	29158			EH-1M	"Mytilus galloprovincialis"	"Blue mussel"	2017	10	30					Asia	Japan	"Iyo City, Ehime"	33.75		132.6697222			"Whole soft tissues"	1.6																																							2025/02/14	2025/02/14
PRA000127	SAA009956	ST009	121615			EH-1O	"Crassostrea nippona"	Oyster	2017	10	30					Asia	Japan	"Iyo City, Ehime"	33.75		132.6697222			"Whole soft tissues"	1.6																																							2025/02/14	2025/02/14
PRA000127	SAA009957	ST009	29158			EH-2M	"Mytilus galloprovincialis"	"Blue mussel"	2017	11	8					Asia	Japan	"Matsuyama City, Ehime"	33.8525		132.7077778			"Whole soft tissues"	1.2																																							2025/02/14	2025/02/14
PRA000127	SAA009958	ST009	29158			EH-3M	"Mytilus galloprovincialis"	"Blue mussel"	2017	11	8					Asia	Japan	"Matsuyama City, Ehime"	33.89111111		132.7252778			"Whole soft tissues"	0.66																																							2025/02/14	2025/02/14
PRA000127	SAA009959	ST009	42192			EH-4M	"Mytilus coruscus"	Mussel	2017	11	8					Asia	Japan	"Imabari City, Ehime"	34.09277778		133.0197222			"Whole soft tissues"	0.68																																							2025/02/14	2025/02/14
PRA000127	SAA009960	ST009	42192			EH-5M	"Mytilus coruscus"	Mussel	2017	11	8					Asia	Japan	"Niihama City, Ehime"	33.97277778		133.2977778			"Whole soft tissues"	2.7																																							2025/02/14	2025/02/14
PRA000127	SAA009961	ST009	42192			EH-6M	"Mytilus coruscus"	Mussel	2017	11	8					Asia	Japan	"Shikokuchuo City, Ehime"	34.02444444		133.5805556			"Whole soft tissues"	2.7																																							2025/02/14	2025/02/14
PRA000127	SAA009962	ST009	121615			OK-1O	"Crassostrea nippona"	Oyster	2017	11	30					Asia	Japan	"Kurashiki City, Okayama"	34.52777778		133.6561111			"Whole soft tissues"	1.9																																							2025/02/14	2025/02/14
PRA000127	SAA009963	ST009	121615			OK-2O	"Crassostrea nippona"	Oyster	2017	11	30					Asia	Japan	"Kurashiki City, Okayama"	34.52138889		133.6938889			"Whole soft tissues"	0.38																																							2025/02/14	2025/02/14
PRA000127	SAA009964	ST009	121615			OK-3O	"Crassostrea nippona"	Oyster	2017	11	30					Asia	Japan	"Okayama City, Okayama"	34.60305556		133.9883333			"Whole soft tissues"	1.7																																							2025/02/14	2025/02/14
PRA000127	SAA009965	ST009	42192			KG-1M	"Mytilus coruscus"	Mussel	2017	11	29					Asia	Japan	"Utazu Town, Kagawa"	34.32833333		133.84			"Whole soft tissues"	1.8																																							2025/02/14	2025/02/14
PRA000127	SAA009966	ST009	42192			KG-2M	"Mytilus coruscus"	Mussel	2017	11	29					Asia	Japan	"Sakaide City, Kagawa"	34.37138889		133.8763889			"Whole soft tissues"	1.3																																							2025/02/14	2025/02/14
PRA000127	SAA009967	ST009	121615			KG-2O	"Crassostrea nippona"	Oyster	2017	11	29					Asia	Japan	"Sakaide City, Kagawa"	34.37138889		133.8763889			"Whole soft tissues"	1.3																																							2025/02/14	2025/02/14
PRA000127	SAA009968	ST009	121615			KG-3O	"Crassostrea nippona"	Oyster	2017	11	29					Asia	Japan	"Takamatsu City, Kagawa"	34.34777778		134.0711111			"Whole soft tissues"	0.87																																							2025/02/14	2025/02/14
PRA000127	SAA009969	ST009	29158			HY-1M	"Mytilus galloprovincialis"	"Blue mussel"	2017	11	29					Asia	Japan	"Himeji City, Hyogo"	34.77916667		134.5997222			"Whole soft tissues"	1.4																																							2025/02/14	2025/02/14
PRA000127	SAA009970	ST009	121615			HY-2O	"Crassostrea nippona"	Oyster	2017	11	29					Asia	Japan	"Himeji City, Hyogo"	34.79888889		134.6608333			"Whole soft tissues"	1.1																																							2025/02/14	2025/02/14
PRA000127	SAA009971	ST009	121615			HY-3O	"Crassostrea nippona"	Oyster	2017	11	29					Asia	Japan	"Minamiawaji City, Hyogo"	34.32027778		134.7183333			"Whole soft tissues"	0.65																																							2025/02/14	2025/02/14
PRA000127	SAA009972	ST009	29158			HY-5M	"Mytilus galloprovincialis"	"Blue mussel"	2017	11	30					Asia	Japan	"Kobe City, Hyogo"	34.62277778		135.0638889			"Whole soft tissues"	1.1																																							2025/02/14	2025/02/14
PRA000127	SAA009973	ST009	121615			HY-5O	"Crassostrea nippona"	Oyster	2017	11	30					Asia	Japan	"Kobe City, Hyogo"	34.62277778		135.0638889			"Whole soft tissues"	0.78																																							2025/02/14	2025/02/14
PRA000127	SAA009974	ST009	121615			HY-6O	"Crassostrea nippona"	Oyster	2017	11	29					Asia	Japan	"Kobe City, Hyogo"	34.67833333		135.1861111			"Whole soft tissues"	0.61																																							2025/02/14	2025/02/14
PRA000127	SAA009975	ST009	121615			OS-1O	"Crassostrea nippona"	Oyster	2017	11	30					Asia	Japan	"Osaka City, Osaka"	34.69305556		135.4075			"Whole soft tissues"	0.82																																							2025/02/14	2025/02/14
PRA000127	SAA009976	ST009	1289581			OS-2M	"Xenostrobus securis"	"Small brown mussel"	2017	11	30					Asia	Japan	"Osaka City, Osaka"	34.665		135.4483333			"Whole soft tissues"	0.55																																							2025/02/14	2025/02/14
PRA000127	SAA009977	ST009	121615			OS-3O	"Crassostrea nippona"	Oyster	2019	7	16					Asia	Japan	"Izumisano City, Osaka"	34.42944444		135.3194444			"Whole soft tissues"	0.99																																							2025/02/14	2025/02/14
PRA000127	SAA009978	ST009	121615			OS-4O	"Crassostrea nippona"	Oyster	2019	7	16					Asia	Japan	"Sennan City, Osaka"	34.32166667		135.1294444			"Whole soft tissues"	1.3																																							2025/02/14	2025/02/14
PRA000127	SAA009979	ST009	121615			OS-5O	"Crassostrea nippona"	Oyster	2019	7	17					Asia	Japan	"Osaka City, Osaka"	34.61361111		135.4441667			"Whole soft tissues"	2.4																																							2025/2/14	2025/2/14
